<?xml version="1.0" encoding="UTF-8" standalone="no" ?>
<gpx xmlns="http://www.topografix.com/GPX/1/1" xmlns:xsi="http://www.w3.org/2001/XMLSchema-instance" xsi:schemaLocation="http://www.topografix.com/GPX/1/1 http://www.topografix.com/GPX/1/1/gpx.xsd" version="1.1" creator="VisuGPX - https://www.visugpx.com">
  <metadata>
    <name>luzech 6 descentes</name>
    <desc><![CDATA[parcours typé enduro avec de belles descentes]]></desc>
  </metadata>
  <trk>
    <name><![CDATA[2014-04-01-08-18-57]]></name>
    <desc><![CDATA[Total: 39.9km]]></desc>
    <trkseg>
      <trkpt lat="44.47501" lon="1.28054">
        <ele>111.155</ele>
        <time>2014-04-01T08:18:58Z</time>
      </trkpt>
      <trkpt lat="44.47497" lon="1.28022">
        <ele>112.265</ele>
        <time>2014-04-01T08:19:06Z</time>
      </trkpt>
      <trkpt lat="44.47492" lon="1.27983">
        <ele>113.344</ele>
        <time>2014-04-01T08:19:16Z</time>
      </trkpt>
      <trkpt lat="44.47488" lon="1.27952">
        <ele>114.674</ele>
        <time>2014-04-01T08:19:24Z</time>
      </trkpt>
      <trkpt lat="44.47487" lon="1.27916">
        <ele>116.584</ele>
        <time>2014-04-01T08:19:34Z</time>
      </trkpt>
      <trkpt lat="44.47488" lon="1.27908">
        <ele>116.554</ele>
        <time>2014-04-01T08:19:37Z</time>
      </trkpt>
      <trkpt lat="44.47479" lon="1.27894">
        <ele>116.223</ele>
        <time>2014-04-01T08:19:43Z</time>
      </trkpt>
      <trkpt lat="44.47456" lon="1.27874">
        <ele>116.353</ele>
        <time>2014-04-01T08:19:51Z</time>
      </trkpt>
      <trkpt lat="44.47438" lon="1.27849">
        <ele>117.704</ele>
        <time>2014-04-01T08:19:59Z</time>
      </trkpt>
      <trkpt lat="44.47416" lon="1.27802">
        <ele>117.973</ele>
        <time>2014-04-01T08:20:12Z</time>
      </trkpt>
      <trkpt lat="44.47396" lon="1.27765">
        <ele>118.163</ele>
        <time>2014-04-01T08:20:23Z</time>
      </trkpt>
      <trkpt lat="44.47377" lon="1.27738">
        <ele>117.943</ele>
        <time>2014-04-01T08:20:32Z</time>
      </trkpt>
      <trkpt lat="44.47356" lon="1.27702">
        <ele>118.843</ele>
        <time>2014-04-01T08:20:43Z</time>
      </trkpt>
      <trkpt lat="44.47341" lon="1.27673">
        <ele>119.313</ele>
        <time>2014-04-01T08:20:52Z</time>
      </trkpt>
      <trkpt lat="44.47324" lon="1.27643">
        <ele>120.364</ele>
        <time>2014-04-01T08:21:02Z</time>
      </trkpt>
      <trkpt lat="44.47307" lon="1.27621">
        <ele>123.624</ele>
        <time>2014-04-01T08:21:12Z</time>
      </trkpt>
      <trkpt lat="44.473" lon="1.27608">
        <ele>124.403</ele>
        <time>2014-04-01T08:21:18Z</time>
      </trkpt>
      <trkpt lat="44.47295" lon="1.27595">
        <ele>125.804</ele>
        <time>2014-04-01T08:21:24Z</time>
      </trkpt>
      <trkpt lat="44.4729" lon="1.27575">
        <ele>128.293</ele>
        <time>2014-04-01T08:21:32Z</time>
      </trkpt>
      <trkpt lat="44.47286" lon="1.27562">
        <ele>128.423</ele>
        <time>2014-04-01T08:21:37Z</time>
      </trkpt>
      <trkpt lat="44.4728" lon="1.27548">
        <ele>129.493</ele>
        <time>2014-04-01T08:21:43Z</time>
      </trkpt>
      <trkpt lat="44.47273" lon="1.27536">
        <ele>128.892</ele>
        <time>2014-04-01T08:21:49Z</time>
      </trkpt>
      <trkpt lat="44.47264" lon="1.27526">
        <ele>128.202</ele>
        <time>2014-04-01T08:21:55Z</time>
      </trkpt>
      <trkpt lat="44.47253" lon="1.27513">
        <ele>126.962</ele>
        <time>2014-04-01T08:22:02Z</time>
      </trkpt>
      <trkpt lat="44.47245" lon="1.27503">
        <ele>126.452</ele>
        <time>2014-04-01T08:22:07Z</time>
      </trkpt>
      <trkpt lat="44.47235" lon="1.27492">
        <ele>128.253</ele>
        <time>2014-04-01T08:22:13Z</time>
      </trkpt>
      <trkpt lat="44.47225" lon="1.27479">
        <ele>130.413</ele>
        <time>2014-04-01T08:22:20Z</time>
      </trkpt>
      <trkpt lat="44.47214" lon="1.27469">
        <ele>129.312</ele>
        <time>2014-04-01T08:22:26Z</time>
      </trkpt>
      <trkpt lat="44.47203" lon="1.27454">
        <ele>129.572</ele>
        <time>2014-04-01T08:22:33Z</time>
      </trkpt>
      <trkpt lat="44.47193" lon="1.27439">
        <ele>129.882</ele>
        <time>2014-04-01T08:22:40Z</time>
      </trkpt>
      <trkpt lat="44.47182" lon="1.2743">
        <ele>130.282</ele>
        <time>2014-04-01T08:22:46Z</time>
      </trkpt>
      <trkpt lat="44.47169" lon="1.27421">
        <ele>132.803</ele>
        <time>2014-04-01T08:22:53Z</time>
      </trkpt>
      <trkpt lat="44.47152" lon="1.27411">
        <ele>132.132</ele>
        <time>2014-04-01T08:23:01Z</time>
      </trkpt>
      <trkpt lat="44.47136" lon="1.27391">
        <ele>132.502</ele>
        <time>2014-04-01T08:23:11Z</time>
      </trkpt>
      <trkpt lat="44.47123" lon="1.27374">
        <ele>134.642</ele>
        <time>2014-04-01T08:23:19Z</time>
      </trkpt>
      <trkpt lat="44.47107" lon="1.27355">
        <ele>134.811</ele>
        <time>2014-04-01T08:23:28Z</time>
      </trkpt>
      <trkpt lat="44.47097" lon="1.27342">
        <ele>135.041</ele>
        <time>2014-04-01T08:23:34Z</time>
      </trkpt>
      <trkpt lat="44.47082" lon="1.27327">
        <ele>137.222</ele>
        <time>2014-04-01T08:23:41Z</time>
      </trkpt>
      <trkpt lat="44.4706" lon="1.27312">
        <ele>138.111</ele>
        <time>2014-04-01T08:23:49Z</time>
      </trkpt>
      <trkpt lat="44.47038" lon="1.27299">
        <ele>138.221</ele>
        <time>2014-04-01T08:23:57Z</time>
      </trkpt>
      <trkpt lat="44.47014" lon="1.27286">
        <ele>139.391</ele>
        <time>2014-04-01T08:24:05Z</time>
      </trkpt>
      <trkpt lat="44.46987" lon="1.27268">
        <ele>139.66</ele>
        <time>2014-04-01T08:24:15Z</time>
      </trkpt>
      <trkpt lat="44.46967" lon="1.27258">
        <ele>140.141</ele>
        <time>2014-04-01T08:24:22Z</time>
      </trkpt>
      <trkpt lat="44.46945" lon="1.27247">
        <ele>143.203</ele>
        <time>2014-04-01T08:24:31Z</time>
      </trkpt>
      <trkpt lat="44.4692" lon="1.27239">
        <ele>142.82</ele>
        <time>2014-04-01T08:24:40Z</time>
      </trkpt>
      <trkpt lat="44.469" lon="1.27232">
        <ele>142.32</ele>
        <time>2014-04-01T08:24:47Z</time>
      </trkpt>
      <trkpt lat="44.46878" lon="1.27222">
        <ele>144.601</ele>
        <time>2014-04-01T08:24:55Z</time>
      </trkpt>
      <trkpt lat="44.46849" lon="1.27211">
        <ele>145.941</ele>
        <time>2014-04-01T08:25:06Z</time>
      </trkpt>
      <trkpt lat="44.46831" lon="1.27207">
        <ele>145.141</ele>
        <time>2014-04-01T08:25:14Z</time>
      </trkpt>
      <trkpt lat="44.46811" lon="1.2721">
        <ele>144.5</ele>
        <time>2014-04-01T08:25:22Z</time>
      </trkpt>
      <trkpt lat="44.46793" lon="1.27212">
        <ele>143.879</ele>
        <time>2014-04-01T08:25:29Z</time>
      </trkpt>
      <trkpt lat="44.46767" lon="1.27209">
        <ele>145.22</ele>
        <time>2014-04-01T08:25:39Z</time>
      </trkpt>
      <trkpt lat="44.46742" lon="1.27207">
        <ele>146.64</ele>
        <time>2014-04-01T08:25:49Z</time>
      </trkpt>
      <trkpt lat="44.46726" lon="1.27204">
        <ele>149.141</ele>
        <time>2014-04-01T08:25:56Z</time>
      </trkpt>
      <trkpt lat="44.46712" lon="1.27201">
        <ele>151.831</ele>
        <time>2014-04-01T08:26:02Z</time>
      </trkpt>
      <trkpt lat="44.46694" lon="1.27197">
        <ele>152.62</ele>
        <time>2014-04-01T08:26:10Z</time>
      </trkpt>
      <trkpt lat="44.46682" lon="1.27192">
        <ele>153.509</ele>
        <time>2014-04-01T08:26:16Z</time>
      </trkpt>
      <trkpt lat="44.46668" lon="1.27186">
        <ele>154.369</ele>
        <time>2014-04-01T08:26:23Z</time>
      </trkpt>
      <trkpt lat="44.46653" lon="1.2718">
        <ele>153.648</ele>
        <time>2014-04-01T08:26:30Z</time>
      </trkpt>
      <trkpt lat="44.46638" lon="1.27175">
        <ele>154.469</ele>
        <time>2014-04-01T08:26:37Z</time>
      </trkpt>
      <trkpt lat="44.46619" lon="1.27167">
        <ele>151.366</ele>
        <time>2014-04-01T08:26:46Z</time>
      </trkpt>
      <trkpt lat="44.46605" lon="1.27161">
        <ele>151.178</ele>
        <time>2014-04-01T08:26:53Z</time>
      </trkpt>
      <trkpt lat="44.46594" lon="1.27156">
        <ele>152.099</ele>
        <time>2014-04-01T08:26:59Z</time>
      </trkpt>
      <trkpt lat="44.46582" lon="1.27153">
        <ele>154.27</ele>
        <time>2014-04-01T08:27:05Z</time>
      </trkpt>
      <trkpt lat="44.4656" lon="1.27153">
        <ele>153.979</ele>
        <time>2014-04-01T08:27:15Z</time>
      </trkpt>
      <trkpt lat="44.46541" lon="1.27157">
        <ele>153.698</ele>
        <time>2014-04-01T08:27:24Z</time>
      </trkpt>
      <trkpt lat="44.46521" lon="1.27163">
        <ele>156.338</ele>
        <time>2014-04-01T08:27:34Z</time>
      </trkpt>
      <trkpt lat="44.46506" lon="1.27168">
        <ele>157.439</ele>
        <time>2014-04-01T08:27:41Z</time>
      </trkpt>
      <trkpt lat="44.46491" lon="1.27175">
        <ele>158.169</ele>
        <time>2014-04-01T08:27:49Z</time>
      </trkpt>
      <trkpt lat="44.46482" lon="1.27181">
        <ele>158.739</ele>
        <time>2014-04-01T08:27:54Z</time>
      </trkpt>
      <trkpt lat="44.46472" lon="1.27189">
        <ele>160.419</ele>
        <time>2014-04-01T08:28:00Z</time>
      </trkpt>
      <trkpt lat="44.46463" lon="1.27196">
        <ele>161.208</ele>
        <time>2014-04-01T08:28:05Z</time>
      </trkpt>
      <trkpt lat="44.46444" lon="1.27208">
        <ele>162.939</ele>
        <time>2014-04-01T08:28:15Z</time>
      </trkpt>
      <trkpt lat="44.4643" lon="1.27215">
        <ele>163.488</ele>
        <time>2014-04-01T08:28:22Z</time>
      </trkpt>
      <trkpt lat="44.46415" lon="1.27224">
        <ele>164.118</ele>
        <time>2014-04-01T08:28:30Z</time>
      </trkpt>
      <trkpt lat="44.46397" lon="1.27235">
        <ele>165.538</ele>
        <time>2014-04-01T08:28:40Z</time>
      </trkpt>
      <trkpt lat="44.46383" lon="1.27241">
        <ele>166.659</ele>
        <time>2014-04-01T08:28:47Z</time>
      </trkpt>
      <trkpt lat="44.46367" lon="1.27241">
        <ele>167.338</ele>
        <time>2014-04-01T08:28:55Z</time>
      </trkpt>
      <trkpt lat="44.4635" lon="1.27236">
        <ele>167.908</ele>
        <time>2014-04-01T08:29:04Z</time>
      </trkpt>
      <trkpt lat="44.46337" lon="1.27231">
        <ele>172.119</ele>
        <time>2014-04-01T08:29:12Z</time>
      </trkpt>
      <trkpt lat="44.46329" lon="1.27228">
        <ele>173.588</ele>
        <time>2014-04-01T08:29:17Z</time>
      </trkpt>
      <trkpt lat="44.46314" lon="1.27225">
        <ele>175.098</ele>
        <time>2014-04-01T08:29:26Z</time>
      </trkpt>
      <trkpt lat="44.46303" lon="1.27223">
        <ele>176.478</ele>
        <time>2014-04-01T08:29:33Z</time>
      </trkpt>
      <trkpt lat="44.46291" lon="1.27224">
        <ele>177.778</ele>
        <time>2014-04-01T08:29:40Z</time>
      </trkpt>
      <trkpt lat="44.46277" lon="1.27224">
        <ele>180.498</ele>
        <time>2014-04-01T08:29:49Z</time>
      </trkpt>
      <trkpt lat="44.46263" lon="1.2722">
        <ele>181.998</ele>
        <time>2014-04-01T08:29:57Z</time>
      </trkpt>
      <trkpt lat="44.4625" lon="1.27214">
        <ele>183.178</ele>
        <time>2014-04-01T08:30:05Z</time>
      </trkpt>
      <trkpt lat="44.46234" lon="1.27204">
        <ele>187.748</ele>
        <time>2014-04-01T08:30:15Z</time>
      </trkpt>
      <trkpt lat="44.46221" lon="1.27194">
        <ele>190.867</ele>
        <time>2014-04-01T08:30:24Z</time>
      </trkpt>
      <trkpt lat="44.46211" lon="1.27187">
        <ele>192.168</ele>
        <time>2014-04-01T08:30:31Z</time>
      </trkpt>
      <trkpt lat="44.46198" lon="1.2718">
        <ele>192.997</ele>
        <time>2014-04-01T08:30:39Z</time>
      </trkpt>
      <trkpt lat="44.46187" lon="1.27177">
        <ele>194.118</ele>
        <time>2014-04-01T08:30:46Z</time>
      </trkpt>
      <trkpt lat="44.46177" lon="1.27175">
        <ele>195.758</ele>
        <time>2014-04-01T08:30:53Z</time>
      </trkpt>
      <trkpt lat="44.46165" lon="1.27175">
        <ele>198.077</ele>
        <time>2014-04-01T08:31:02Z</time>
      </trkpt>
      <trkpt lat="44.46157" lon="1.27173">
        <ele>198.587</ele>
        <time>2014-04-01T08:31:08Z</time>
      </trkpt>
      <trkpt lat="44.46156" lon="1.27172">
        <ele>198.757</ele>
        <time>2014-04-01T08:31:09Z</time>
      </trkpt>
      <trkpt lat="44.46151" lon="1.27167">
        <ele>198.408</ele>
        <time>2014-04-01T08:31:16Z</time>
      </trkpt>
    </trkseg>
  </trk>
  <trk>
    <name><![CDATA[2014-04-01-08-18-57]]></name>
    <trkseg>
      <trkpt lat="44.46145" lon="1.2716">
        <ele>196.146</ele>
        <time>2014-04-01T08:32:14Z</time>
      </trkpt>
      <trkpt lat="44.4614" lon="1.27155">
        <ele>195.666</ele>
        <time>2014-04-01T08:32:18Z</time>
      </trkpt>
      <trkpt lat="44.46138" lon="1.27162">
        <ele>196.526</ele>
        <time>2014-04-01T08:32:23Z</time>
      </trkpt>
      <trkpt lat="44.46144" lon="1.27171">
        <ele>196.826</ele>
        <time>2014-04-01T08:32:29Z</time>
      </trkpt>
      <trkpt lat="44.46154" lon="1.27183">
        <ele>198.887</ele>
        <time>2014-04-01T08:32:38Z</time>
      </trkpt>
      <trkpt lat="44.46163" lon="1.27193">
        <ele>201.247</ele>
        <time>2014-04-01T08:32:47Z</time>
      </trkpt>
      <trkpt lat="44.46171" lon="1.27202">
        <ele>203.257</ele>
        <time>2014-04-01T08:32:55Z</time>
      </trkpt>
      <trkpt lat="44.4618" lon="1.27214">
        <ele>205.678</ele>
        <time>2014-04-01T08:33:04Z</time>
      </trkpt>
      <trkpt lat="44.46189" lon="1.27229">
        <ele>208.407</ele>
        <time>2014-04-01T08:33:14Z</time>
      </trkpt>
      <trkpt lat="44.46196" lon="1.27243">
        <ele>211.257</ele>
        <time>2014-04-01T08:33:23Z</time>
      </trkpt>
      <trkpt lat="44.46199" lon="1.2726">
        <ele>212.847</ele>
        <time>2014-04-01T08:33:32Z</time>
      </trkpt>
      <trkpt lat="44.46197" lon="1.27277">
        <ele>214.437</ele>
        <time>2014-04-01T08:33:41Z</time>
      </trkpt>
      <trkpt lat="44.4619" lon="1.27292">
        <ele>217.488</ele>
        <time>2014-04-01T08:33:50Z</time>
      </trkpt>
      <trkpt lat="44.46181" lon="1.27303">
        <ele>220.488</ele>
        <time>2014-04-01T08:33:59Z</time>
      </trkpt>
      <trkpt lat="44.46171" lon="1.27311">
        <ele>223.638</ele>
        <time>2014-04-01T08:34:08Z</time>
      </trkpt>
      <trkpt lat="44.4616" lon="1.27314">
        <ele>226.518</ele>
        <time>2014-04-01T08:34:16Z</time>
      </trkpt>
      <trkpt lat="44.46145" lon="1.27314">
        <ele>229.938</ele>
        <time>2014-04-01T08:34:27Z</time>
      </trkpt>
      <trkpt lat="44.46134" lon="1.2731">
        <ele>231.258</ele>
        <time>2014-04-01T08:34:35Z</time>
      </trkpt>
      <trkpt lat="44.46126" lon="1.27309">
        <ele>233.888</ele>
        <time>2014-04-01T08:34:43Z</time>
      </trkpt>
      <trkpt lat="44.46119" lon="1.2731">
        <ele>234.748</ele>
        <time>2014-04-01T08:34:49Z</time>
      </trkpt>
      <trkpt lat="44.46114" lon="1.27312">
        <ele>236.517</ele>
        <time>2014-04-01T08:34:54Z</time>
      </trkpt>
      <trkpt lat="44.46104" lon="1.27313">
        <ele>236.927</ele>
        <time>2014-04-01T08:35:01Z</time>
      </trkpt>
      <trkpt lat="44.46094" lon="1.27318">
        <ele>237.067</ele>
        <time>2014-04-01T08:35:08Z</time>
      </trkpt>
      <trkpt lat="44.46081" lon="1.27326">
        <ele>237.467</ele>
        <time>2014-04-01T08:35:16Z</time>
      </trkpt>
      <trkpt lat="44.4607" lon="1.27333">
        <ele>238.097</ele>
        <time>2014-04-01T08:35:22Z</time>
      </trkpt>
      <trkpt lat="44.46059" lon="1.27351">
        <ele>241.037</ele>
        <time>2014-04-01T08:35:30Z</time>
      </trkpt>
      <trkpt lat="44.46054" lon="1.27363">
        <ele>244.02</ele>
        <time>2014-04-01T08:35:35Z</time>
      </trkpt>
      <trkpt lat="44.46049" lon="1.27387">
        <ele>248.798</ele>
        <time>2014-04-01T08:35:43Z</time>
      </trkpt>
      <trkpt lat="44.46048" lon="1.27401">
        <ele>249.758</ele>
        <time>2014-04-01T08:35:48Z</time>
      </trkpt>
      <trkpt lat="44.46049" lon="1.27425">
        <ele>250.167</ele>
        <time>2014-04-01T08:35:56Z</time>
      </trkpt>
      <trkpt lat="44.46052" lon="1.27447">
        <ele>249.587</ele>
        <time>2014-04-01T08:36:04Z</time>
      </trkpt>
      <trkpt lat="44.46058" lon="1.27471">
        <ele>249.777</ele>
        <time>2014-04-01T08:36:13Z</time>
      </trkpt>
      <trkpt lat="44.46062" lon="1.275">
        <ele>251.317</ele>
        <time>2014-04-01T08:36:23Z</time>
      </trkpt>
      <trkpt lat="44.46062" lon="1.27523">
        <ele>251.817</ele>
        <time>2014-04-01T08:36:31Z</time>
      </trkpt>
      <trkpt lat="44.46068" lon="1.27533">
        <ele>250.256</ele>
        <time>2014-04-01T08:36:36Z</time>
      </trkpt>
      <trkpt lat="44.4607" lon="1.27534">
        <ele>249.246</ele>
        <time>2014-04-01T08:36:40Z</time>
      </trkpt>
    </trkseg>
  </trk>
  <trk>
    <name><![CDATA[2014-04-01-08-18-57]]></name>
    <trkseg>
      <trkpt lat="44.46082" lon="1.2755">
        <ele>245.766</ele>
        <time>2014-04-01T08:36:58Z</time>
      </trkpt>
      <trkpt lat="44.46091" lon="1.27558">
        <ele>245.986</ele>
        <time>2014-04-01T08:37:03Z</time>
      </trkpt>
      <trkpt lat="44.46095" lon="1.27558">
        <ele>246.287</ele>
        <time>2014-04-01T08:37:06Z</time>
      </trkpt>
      <trkpt lat="44.46106" lon="1.27564">
        <ele>246.816</ele>
        <time>2014-04-01T08:37:12Z</time>
      </trkpt>
      <trkpt lat="44.46123" lon="1.27568">
        <ele>246.967</ele>
        <time>2014-04-01T08:37:20Z</time>
      </trkpt>
      <trkpt lat="44.46142" lon="1.27572">
        <ele>247.617</ele>
        <time>2014-04-01T08:37:28Z</time>
      </trkpt>
      <trkpt lat="44.46157" lon="1.2758">
        <ele>249.107</ele>
        <time>2014-04-01T08:37:36Z</time>
      </trkpt>
      <trkpt lat="44.46172" lon="1.27597">
        <ele>253.028</ele>
        <time>2014-04-01T08:37:45Z</time>
      </trkpt>
      <trkpt lat="44.46186" lon="1.27606">
        <ele>255.663</ele>
        <time>2014-04-01T08:37:52Z</time>
      </trkpt>
      <trkpt lat="44.46199" lon="1.27613">
        <ele>258.198</ele>
        <time>2014-04-01T08:37:59Z</time>
      </trkpt>
      <trkpt lat="44.46211" lon="1.27624">
        <ele>260.348</ele>
        <time>2014-04-01T08:38:06Z</time>
      </trkpt>
      <trkpt lat="44.46224" lon="1.27642">
        <ele>262.497</ele>
        <time>2014-04-01T08:38:14Z</time>
      </trkpt>
      <trkpt lat="44.46237" lon="1.27658">
        <ele>263.767</ele>
        <time>2014-04-01T08:38:21Z</time>
      </trkpt>
      <trkpt lat="44.46256" lon="1.2768">
        <ele>264.957</ele>
        <time>2014-04-01T08:38:28Z</time>
      </trkpt>
      <trkpt lat="44.46279" lon="1.27697">
        <ele>264.346</ele>
        <time>2014-04-01T08:38:34Z</time>
      </trkpt>
      <trkpt lat="44.46291" lon="1.27717">
        <ele>261.385</ele>
        <time>2014-04-01T08:38:38Z</time>
      </trkpt>
      <trkpt lat="44.46307" lon="1.27728">
        <ele>257.924</ele>
        <time>2014-04-01T08:38:41Z</time>
      </trkpt>
      <trkpt lat="44.46335" lon="1.27747">
        <ele>253.465</ele>
        <time>2014-04-01T08:38:46Z</time>
      </trkpt>
      <trkpt lat="44.46359" lon="1.27759">
        <ele>249.575</ele>
        <time>2014-04-01T08:38:51Z</time>
      </trkpt>
      <trkpt lat="44.46389" lon="1.27776">
        <ele>248.598</ele>
        <time>2014-04-01T08:38:58Z</time>
      </trkpt>
      <trkpt lat="44.46406" lon="1.27784">
        <ele>248.578</ele>
        <time>2014-04-01T08:39:03Z</time>
      </trkpt>
      <trkpt lat="44.46428" lon="1.27789">
        <ele>250.138</ele>
        <time>2014-04-01T08:39:10Z</time>
      </trkpt>
      <trkpt lat="44.46453" lon="1.27802">
        <ele>253.818</ele>
        <time>2014-04-01T08:39:20Z</time>
      </trkpt>
      <trkpt lat="44.46472" lon="1.27808">
        <ele>255.399</ele>
        <time>2014-04-01T08:39:28Z</time>
      </trkpt>
      <trkpt lat="44.465" lon="1.27812">
        <ele>256.109</ele>
        <time>2014-04-01T08:39:39Z</time>
      </trkpt>
      <trkpt lat="44.46518" lon="1.27812">
        <ele>256.259</ele>
        <time>2014-04-01T08:39:46Z</time>
      </trkpt>
      <trkpt lat="44.46529" lon="1.27822">
        <ele>256.779</ele>
        <time>2014-04-01T08:39:51Z</time>
      </trkpt>
      <trkpt lat="44.46544" lon="1.27837">
        <ele>258.279</ele>
        <time>2014-04-01T08:39:58Z</time>
      </trkpt>
      <trkpt lat="44.46553" lon="1.27839">
        <ele>259.359</ele>
        <time>2014-04-01T08:40:02Z</time>
      </trkpt>
      <trkpt lat="44.46555" lon="1.27839">
        <ele>259.299</ele>
        <time>2014-04-01T08:40:03Z</time>
      </trkpt>
      <trkpt lat="44.46559" lon="1.27837">
        <ele>259.619</ele>
        <time>2014-04-01T08:40:05Z</time>
      </trkpt>
      <trkpt lat="44.4657" lon="1.2784">
        <ele>260.149</ele>
        <time>2014-04-01T08:40:10Z</time>
      </trkpt>
      <trkpt lat="44.46578" lon="1.27844">
        <ele>261.98</ele>
        <time>2014-04-01T08:40:14Z</time>
      </trkpt>
      <trkpt lat="44.46586" lon="1.27841">
        <ele>262.17</ele>
        <time>2014-04-01T08:40:18Z</time>
      </trkpt>
      <trkpt lat="44.46595" lon="1.2784">
        <ele>261.639</ele>
        <time>2014-04-01T08:40:22Z</time>
      </trkpt>
      <trkpt lat="44.46597" lon="1.27837">
        <ele>261.428</ele>
        <time>2014-04-01T08:40:23Z</time>
      </trkpt>
      <trkpt lat="44.46602" lon="1.27827">
        <ele>260.758</ele>
        <time>2014-04-01T08:40:26Z</time>
      </trkpt>
      <trkpt lat="44.46612" lon="1.27827">
        <ele>258.797</ele>
        <time>2014-04-01T08:40:30Z</time>
      </trkpt>
      <trkpt lat="44.46622" lon="1.27824">
        <ele>257.527</ele>
        <time>2014-04-01T08:40:33Z</time>
      </trkpt>
      <trkpt lat="44.46628" lon="1.27811">
        <ele>256.758</ele>
        <time>2014-04-01T08:40:36Z</time>
      </trkpt>
      <trkpt lat="44.46631" lon="1.27809">
        <ele>256.667</ele>
        <time>2014-04-01T08:40:37Z</time>
      </trkpt>
      <trkpt lat="44.4665" lon="1.2779">
        <ele>252.286</ele>
        <time>2014-04-01T08:40:43Z</time>
      </trkpt>
      <trkpt lat="44.46657" lon="1.2779">
        <ele>251.757</ele>
        <time>2014-04-01T08:40:46Z</time>
      </trkpt>
      <trkpt lat="44.46665" lon="1.27781">
        <ele>248.805</ele>
        <time>2014-04-01T08:40:49Z</time>
      </trkpt>
      <trkpt lat="44.46672" lon="1.27777">
        <ele>247.315</ele>
        <time>2014-04-01T08:40:51Z</time>
      </trkpt>
      <trkpt lat="44.46685" lon="1.27781">
        <ele>244.474</ele>
        <time>2014-04-01T08:40:54Z</time>
      </trkpt>
      <trkpt lat="44.46699" lon="1.27763">
        <ele>242.506</ele>
        <time>2014-04-01T08:40:58Z</time>
      </trkpt>
      <trkpt lat="44.46706" lon="1.2775">
        <ele>241.696</ele>
        <time>2014-04-01T08:41:01Z</time>
      </trkpt>
      <trkpt lat="44.46708" lon="1.27734">
        <ele>240.677</ele>
        <time>2014-04-01T08:41:04Z</time>
      </trkpt>
      <trkpt lat="44.46732" lon="1.27709">
        <ele>234.567</ele>
        <time>2014-04-01T08:41:10Z</time>
      </trkpt>
      <trkpt lat="44.46744" lon="1.27707">
        <ele>233.477</ele>
        <time>2014-04-01T08:41:13Z</time>
      </trkpt>
      <trkpt lat="44.46745" lon="1.27691">
        <ele>234.179</ele>
        <time>2014-04-01T08:41:16Z</time>
      </trkpt>
      <trkpt lat="44.46744" lon="1.27686">
        <ele>234.238</ele>
        <time>2014-04-01T08:41:17Z</time>
      </trkpt>
      <trkpt lat="44.46743" lon="1.27676">
        <ele>234.218</ele>
        <time>2014-04-01T08:41:20Z</time>
      </trkpt>
      <trkpt lat="44.4675" lon="1.27668">
        <ele>232.469</ele>
        <time>2014-04-01T08:41:25Z</time>
      </trkpt>
      <trkpt lat="44.46771" lon="1.27648">
        <ele>230.649</ele>
        <time>2014-04-01T08:41:30Z</time>
      </trkpt>
      <trkpt lat="44.46779" lon="1.27638">
        <ele>230.179</ele>
        <time>2014-04-01T08:41:32Z</time>
      </trkpt>
      <trkpt lat="44.46797" lon="1.27627">
        <ele>230.779</ele>
        <time>2014-04-01T08:41:37Z</time>
      </trkpt>
      <trkpt lat="44.46813" lon="1.27624">
        <ele>231.74</ele>
        <time>2014-04-01T08:41:42Z</time>
      </trkpt>
      <trkpt lat="44.4682" lon="1.27613">
        <ele>232</ele>
        <time>2014-04-01T08:41:45Z</time>
      </trkpt>
      <trkpt lat="44.46833" lon="1.27603">
        <ele>232.059</ele>
        <time>2014-04-01T08:41:49Z</time>
      </trkpt>
      <trkpt lat="44.46844" lon="1.27609">
        <ele>231.769</ele>
        <time>2014-04-01T08:41:52Z</time>
      </trkpt>
      <trkpt lat="44.46849" lon="1.27626">
        <ele>231.789</ele>
        <time>2014-04-01T08:41:56Z</time>
      </trkpt>
      <trkpt lat="44.46859" lon="1.27636">
        <ele>230.969</ele>
        <time>2014-04-01T08:41:59Z</time>
      </trkpt>
      <trkpt lat="44.46869" lon="1.27645">
        <ele>230.749</ele>
        <time>2014-04-01T08:42:02Z</time>
      </trkpt>
      <trkpt lat="44.46882" lon="1.27645">
        <ele>231.289</ele>
        <time>2014-04-01T08:42:05Z</time>
      </trkpt>
      <trkpt lat="44.46891" lon="1.27659">
        <ele>228.887</ele>
        <time>2014-04-01T08:42:09Z</time>
      </trkpt>
      <trkpt lat="44.46897" lon="1.27661">
        <ele>228.037</ele>
        <time>2014-04-01T08:42:10Z</time>
      </trkpt>
      <trkpt lat="44.46912" lon="1.27671">
        <ele>225.067</ele>
        <time>2014-04-01T08:42:14Z</time>
      </trkpt>
      <trkpt lat="44.46919" lon="1.27682">
        <ele>223.706</ele>
        <time>2014-04-01T08:42:17Z</time>
      </trkpt>
      <trkpt lat="44.46933" lon="1.27681">
        <ele>222.607</ele>
        <time>2014-04-01T08:42:20Z</time>
      </trkpt>
      <trkpt lat="44.46941" lon="1.27693">
        <ele>221.357</ele>
        <time>2014-04-01T08:42:23Z</time>
      </trkpt>
      <trkpt lat="44.46939" lon="1.27704">
        <ele>219.697</ele>
        <time>2014-04-01T08:42:26Z</time>
      </trkpt>
      <trkpt lat="44.4695" lon="1.27703">
        <ele>219.709</ele>
        <time>2014-04-01T08:42:29Z</time>
      </trkpt>
      <trkpt lat="44.46954" lon="1.277">
        <ele>220.3</ele>
        <time>2014-04-01T08:42:30Z</time>
      </trkpt>
      <trkpt lat="44.46971" lon="1.27693">
        <ele>220.669</ele>
        <time>2014-04-01T08:42:35Z</time>
      </trkpt>
      <trkpt lat="44.46982" lon="1.27694">
        <ele>219.978</ele>
        <time>2014-04-01T08:42:37Z</time>
      </trkpt>
      <trkpt lat="44.47004" lon="1.27719">
        <ele>216.747</ele>
        <time>2014-04-01T08:42:43Z</time>
      </trkpt>
      <trkpt lat="44.47009" lon="1.27734">
        <ele>214.176</ele>
        <time>2014-04-01T08:42:46Z</time>
      </trkpt>
      <trkpt lat="44.4703" lon="1.27742">
        <ele>211.769</ele>
        <time>2014-04-01T08:42:51Z</time>
      </trkpt>
      <trkpt lat="44.47043" lon="1.27741">
        <ele>211.129</ele>
        <time>2014-04-01T08:42:56Z</time>
      </trkpt>
      <trkpt lat="44.47043" lon="1.27741">
        <ele>211.239</ele>
        <time>2014-04-01T08:42:58Z</time>
      </trkpt>
    </trkseg>
  </trk>
  <trk>
    <name><![CDATA[2014-04-01-08-18-57]]></name>
    <trkseg>
      <trkpt lat="44.47054" lon="1.27754">
        <ele>208.969</ele>
        <time>2014-04-01T08:43:49Z</time>
      </trkpt>
      <trkpt lat="44.47059" lon="1.27757">
        <ele>207.286</ele>
        <time>2014-04-01T08:43:51Z</time>
      </trkpt>
      <trkpt lat="44.47064" lon="1.27763">
        <ele>204.971</ele>
        <time>2014-04-01T08:43:53Z</time>
      </trkpt>
      <trkpt lat="44.47085" lon="1.27778">
        <ele>198.535</ele>
        <time>2014-04-01T08:43:58Z</time>
      </trkpt>
      <trkpt lat="44.47095" lon="1.27783">
        <ele>195.8</ele>
        <time>2014-04-01T08:44:00Z</time>
      </trkpt>
      <trkpt lat="44.47103" lon="1.2779">
        <ele>192.963</ele>
        <time>2014-04-01T08:44:02Z</time>
      </trkpt>
      <trkpt lat="44.47122" lon="1.27796">
        <ele>188.381</ele>
        <time>2014-04-01T08:44:06Z</time>
      </trkpt>
      <trkpt lat="44.47137" lon="1.27808">
        <ele>184.416</ele>
        <time>2014-04-01T08:44:10Z</time>
      </trkpt>
      <trkpt lat="44.47143" lon="1.27814">
        <ele>182.486</ele>
        <time>2014-04-01T08:44:12Z</time>
      </trkpt>
      <trkpt lat="44.4715" lon="1.27839">
        <ele>177.286</ele>
        <time>2014-04-01T08:44:17Z</time>
      </trkpt>
      <trkpt lat="44.47157" lon="1.27858">
        <ele>173.049</ele>
        <time>2014-04-01T08:44:21Z</time>
      </trkpt>
      <trkpt lat="44.47154" lon="1.27875">
        <ele>168.687</ele>
        <time>2014-04-01T08:44:25Z</time>
      </trkpt>
      <trkpt lat="44.47154" lon="1.27892">
        <ele>162.102</ele>
        <time>2014-04-01T08:44:31Z</time>
      </trkpt>
      <trkpt lat="44.47158" lon="1.27903">
        <ele>158.196</ele>
        <time>2014-04-01T08:44:34Z</time>
      </trkpt>
      <trkpt lat="44.47162" lon="1.2791">
        <ele>155.665</ele>
        <time>2014-04-01T08:44:36Z</time>
      </trkpt>
      <trkpt lat="44.47165" lon="1.27917">
        <ele>153.16</ele>
        <time>2014-04-01T08:44:38Z</time>
      </trkpt>
      <trkpt lat="44.47173" lon="1.27928">
        <ele>149.948</ele>
        <time>2014-04-01T08:44:41Z</time>
      </trkpt>
      <trkpt lat="44.47189" lon="1.2795">
        <ele>144.567</ele>
        <time>2014-04-01T08:44:46Z</time>
      </trkpt>
      <trkpt lat="44.47203" lon="1.27943">
        <ele>141.518</ele>
        <time>2014-04-01T08:44:49Z</time>
      </trkpt>
      <trkpt lat="44.47221" lon="1.27942">
        <ele>136.466</ele>
        <time>2014-04-01T08:44:53Z</time>
      </trkpt>
      <trkpt lat="44.47226" lon="1.27941">
        <ele>135.436</ele>
        <time>2014-04-01T08:44:54Z</time>
      </trkpt>
      <trkpt lat="44.47244" lon="1.27939">
        <ele>132.949</ele>
        <time>2014-04-01T08:44:57Z</time>
      </trkpt>
      <trkpt lat="44.47259" lon="1.2794">
        <ele>130.587</ele>
        <time>2014-04-01T08:45:01Z</time>
      </trkpt>
      <trkpt lat="44.47267" lon="1.2793">
        <ele>129.878</ele>
        <time>2014-04-01T08:45:04Z</time>
      </trkpt>
      <trkpt lat="44.47279" lon="1.27929">
        <ele>126.278</ele>
        <time>2014-04-01T08:45:09Z</time>
      </trkpt>
      <trkpt lat="44.47278" lon="1.27944">
        <ele>124.758</ele>
        <time>2014-04-01T08:45:12Z</time>
      </trkpt>
      <trkpt lat="44.47275" lon="1.27971">
        <ele>126.22</ele>
        <time>2014-04-01T08:45:16Z</time>
      </trkpt>
      <trkpt lat="44.47271" lon="1.27989">
        <ele>125.019</ele>
        <time>2014-04-01T08:45:19Z</time>
      </trkpt>
      <trkpt lat="44.47265" lon="1.28008">
        <ele>123.208</ele>
        <time>2014-04-01T08:45:23Z</time>
      </trkpt>
      <trkpt lat="44.47267" lon="1.28019">
        <ele>122.089</ele>
        <time>2014-04-01T08:45:26Z</time>
      </trkpt>
      <trkpt lat="44.47262" lon="1.28024">
        <ele>122.562</ele>
        <time>2014-04-01T08:45:30Z</time>
      </trkpt>
      <trkpt lat="44.47255" lon="1.28018">
        <ele>123.633</ele>
        <time>2014-04-01T08:45:35Z</time>
      </trkpt>
      <trkpt lat="44.47242" lon="1.2801">
        <ele>125.363</ele>
        <time>2014-04-01T08:45:42Z</time>
      </trkpt>
      <trkpt lat="44.47225" lon="1.28003">
        <ele>127.583</ele>
        <time>2014-04-01T08:45:50Z</time>
      </trkpt>
      <trkpt lat="44.47208" lon="1.27997">
        <ele>129.546</ele>
        <time>2014-04-01T08:45:58Z</time>
      </trkpt>
      <trkpt lat="44.47195" lon="1.27994">
        <ele>132.146</ele>
        <time>2014-04-01T08:46:04Z</time>
      </trkpt>
      <trkpt lat="44.47179" lon="1.27988">
        <ele>134.584</ele>
        <time>2014-04-01T08:46:12Z</time>
      </trkpt>
      <trkpt lat="44.47161" lon="1.27978">
        <ele>137.534</ele>
        <time>2014-04-01T08:46:21Z</time>
      </trkpt>
      <trkpt lat="44.47144" lon="1.27967">
        <ele>139.803</ele>
        <time>2014-04-01T08:46:30Z</time>
      </trkpt>
      <trkpt lat="44.47131" lon="1.27956">
        <ele>140.902</ele>
        <time>2014-04-01T08:46:38Z</time>
      </trkpt>
      <trkpt lat="44.47116" lon="1.27948">
        <ele>143.103</ele>
        <time>2014-04-01T08:46:46Z</time>
      </trkpt>
      <trkpt lat="44.47101" lon="1.27949">
        <ele>144.376</ele>
        <time>2014-04-01T08:46:53Z</time>
      </trkpt>
      <trkpt lat="44.47093" lon="1.27959">
        <ele>144.795</ele>
        <time>2014-04-01T08:46:58Z</time>
      </trkpt>
      <trkpt lat="44.47094" lon="1.27977">
        <ele>145.137</ele>
        <time>2014-04-01T08:47:04Z</time>
      </trkpt>
      <trkpt lat="44.47105" lon="1.28004">
        <ele>145.512</ele>
        <time>2014-04-01T08:47:14Z</time>
      </trkpt>
      <trkpt lat="44.47114" lon="1.28025">
        <ele>145.422</ele>
        <time>2014-04-01T08:47:22Z</time>
      </trkpt>
      <trkpt lat="44.47121" lon="1.28051">
        <ele>145.798</ele>
        <time>2014-04-01T08:47:31Z</time>
      </trkpt>
      <trkpt lat="44.47125" lon="1.2807">
        <ele>146.703</ele>
        <time>2014-04-01T08:47:38Z</time>
      </trkpt>
      <trkpt lat="44.47121" lon="1.28088">
        <ele>147.762</ele>
        <time>2014-04-01T08:47:45Z</time>
      </trkpt>
      <trkpt lat="44.47109" lon="1.28093">
        <ele>148.646</ele>
        <time>2014-04-01T08:47:52Z</time>
      </trkpt>
      <trkpt lat="44.47089" lon="1.28097">
        <ele>150.243</ele>
        <time>2014-04-01T08:48:02Z</time>
      </trkpt>
      <trkpt lat="44.47069" lon="1.28104">
        <ele>151.976</ele>
        <time>2014-04-01T08:48:13Z</time>
      </trkpt>
      <trkpt lat="44.47053" lon="1.28107">
        <ele>153.346</ele>
        <time>2014-04-01T08:48:22Z</time>
      </trkpt>
      <trkpt lat="44.47033" lon="1.28105">
        <ele>154.554</ele>
        <time>2014-04-01T08:48:32Z</time>
      </trkpt>
      <trkpt lat="44.47017" lon="1.28104">
        <ele>156.504</ele>
        <time>2014-04-01T08:48:40Z</time>
      </trkpt>
      <trkpt lat="44.46996" lon="1.28104">
        <ele>159.027</ele>
        <time>2014-04-01T08:48:51Z</time>
      </trkpt>
      <trkpt lat="44.46978" lon="1.28102">
        <ele>161.665</ele>
        <time>2014-04-01T08:49:01Z</time>
      </trkpt>
      <trkpt lat="44.46963" lon="1.28102">
        <ele>163.848</ele>
        <time>2014-04-01T08:49:09Z</time>
      </trkpt>
      <trkpt lat="44.46947" lon="1.28104">
        <ele>166.262</ele>
        <time>2014-04-01T08:49:18Z</time>
      </trkpt>
      <trkpt lat="44.4693" lon="1.28104">
        <ele>166.114</ele>
        <time>2014-04-01T08:49:28Z</time>
      </trkpt>
      <trkpt lat="44.46913" lon="1.28104">
        <ele>166.225</ele>
        <time>2014-04-01T08:49:37Z</time>
      </trkpt>
      <trkpt lat="44.46899" lon="1.28105">
        <ele>167.652</ele>
        <time>2014-04-01T08:49:45Z</time>
      </trkpt>
      <trkpt lat="44.46884" lon="1.28108">
        <ele>169.442</ele>
        <time>2014-04-01T08:49:54Z</time>
      </trkpt>
      <trkpt lat="44.46872" lon="1.28112">
        <ele>171.503</ele>
        <time>2014-04-01T08:50:01Z</time>
      </trkpt>
      <trkpt lat="44.46859" lon="1.28116">
        <ele>171.736</ele>
        <time>2014-04-01T08:50:09Z</time>
      </trkpt>
      <trkpt lat="44.46839" lon="1.28121">
        <ele>173.378</ele>
        <time>2014-04-01T08:50:21Z</time>
      </trkpt>
      <trkpt lat="44.46827" lon="1.28117">
        <ele>175.308</ele>
        <time>2014-04-01T08:50:28Z</time>
      </trkpt>
      <trkpt lat="44.46812" lon="1.28111">
        <ele>177.565</ele>
        <time>2014-04-01T08:50:37Z</time>
      </trkpt>
      <trkpt lat="44.46801" lon="1.28109">
        <ele>179.897</ele>
        <time>2014-04-01T08:50:44Z</time>
      </trkpt>
      <trkpt lat="44.46781" lon="1.28106">
        <ele>182.842</ele>
        <time>2014-04-01T08:50:55Z</time>
      </trkpt>
      <trkpt lat="44.46761" lon="1.28101">
        <ele>184.532</ele>
        <time>2014-04-01T08:51:06Z</time>
      </trkpt>
      <trkpt lat="44.46746" lon="1.281">
        <ele>185.542</ele>
        <time>2014-04-01T08:51:14Z</time>
      </trkpt>
      <trkpt lat="44.46731" lon="1.28101">
        <ele>186.214</ele>
        <time>2014-04-01T08:51:22Z</time>
      </trkpt>
      <trkpt lat="44.46714" lon="1.28099">
        <ele>187.852</ele>
        <time>2014-04-01T08:51:31Z</time>
      </trkpt>
      <trkpt lat="44.467" lon="1.28096">
        <ele>188.116</ele>
        <time>2014-04-01T08:51:38Z</time>
      </trkpt>
      <trkpt lat="44.46685" lon="1.28091">
        <ele>189.272</ele>
        <time>2014-04-01T08:51:46Z</time>
      </trkpt>
      <trkpt lat="44.46672" lon="1.28084">
        <ele>192.268</ele>
        <time>2014-04-01T08:51:55Z</time>
      </trkpt>
      <trkpt lat="44.46664" lon="1.28075">
        <ele>193.831</ele>
        <time>2014-04-01T08:52:02Z</time>
      </trkpt>
      <trkpt lat="44.46654" lon="1.2807">
        <ele>195.868</ele>
        <time>2014-04-01T08:52:09Z</time>
      </trkpt>
      <trkpt lat="44.46643" lon="1.28067">
        <ele>197.268</ele>
        <time>2014-04-01T08:52:16Z</time>
      </trkpt>
      <trkpt lat="44.4663" lon="1.28071">
        <ele>198.816</ele>
        <time>2014-04-01T08:52:24Z</time>
      </trkpt>
      <trkpt lat="44.46617" lon="1.28074">
        <ele>196.345</ele>
        <time>2014-04-01T08:52:33Z</time>
      </trkpt>
      <trkpt lat="44.46602" lon="1.28079">
        <ele>195.104</ele>
        <time>2014-04-01T08:52:43Z</time>
      </trkpt>
      <trkpt lat="44.4659" lon="1.28084">
        <ele>194.52</ele>
        <time>2014-04-01T08:52:51Z</time>
      </trkpt>
      <trkpt lat="44.46577" lon="1.28082">
        <ele>195.568</ele>
        <time>2014-04-01T08:53:00Z</time>
      </trkpt>
      <trkpt lat="44.46565" lon="1.28076">
        <ele>198.951</ele>
        <time>2014-04-01T08:53:08Z</time>
      </trkpt>
      <trkpt lat="44.4655" lon="1.2807">
        <ele>202.145</ele>
        <time>2014-04-01T08:53:18Z</time>
      </trkpt>
      <trkpt lat="44.46539" lon="1.28065">
        <ele>202.335</ele>
        <time>2014-04-01T08:53:25Z</time>
      </trkpt>
      <trkpt lat="44.46528" lon="1.2806">
        <ele>202.33</ele>
        <time>2014-04-01T08:53:32Z</time>
      </trkpt>
      <trkpt lat="44.46513" lon="1.28054">
        <ele>204.776</ele>
        <time>2014-04-01T08:53:42Z</time>
      </trkpt>
      <trkpt lat="44.465" lon="1.28049">
        <ele>205.01</ele>
        <time>2014-04-01T08:53:51Z</time>
      </trkpt>
      <trkpt lat="44.46487" lon="1.28041">
        <ele>204.623</ele>
        <time>2014-04-01T08:54:00Z</time>
      </trkpt>
      <trkpt lat="44.46471" lon="1.28032">
        <ele>204.5</ele>
        <time>2014-04-01T08:54:11Z</time>
      </trkpt>
      <trkpt lat="44.46456" lon="1.28021">
        <ele>204.68</ele>
        <time>2014-04-01T08:54:22Z</time>
      </trkpt>
      <trkpt lat="44.4644" lon="1.28009">
        <ele>205.836</ele>
        <time>2014-04-01T08:54:33Z</time>
      </trkpt>
      <trkpt lat="44.46423" lon="1.27997">
        <ele>207.049</ele>
        <time>2014-04-01T08:54:45Z</time>
      </trkpt>
      <trkpt lat="44.46409" lon="1.27988">
        <ele>208.259</ele>
        <time>2014-04-01T08:54:54Z</time>
      </trkpt>
      <trkpt lat="44.46394" lon="1.27978">
        <ele>210.17</ele>
        <time>2014-04-01T08:55:04Z</time>
      </trkpt>
      <trkpt lat="44.46378" lon="1.27968">
        <ele>212.07</ele>
        <time>2014-04-01T08:55:15Z</time>
      </trkpt>
      <trkpt lat="44.46367" lon="1.27955">
        <ele>213.269</ele>
        <time>2014-04-01T08:55:24Z</time>
      </trkpt>
      <trkpt lat="44.46355" lon="1.27938">
        <ele>214.041</ele>
        <time>2014-04-01T08:55:35Z</time>
      </trkpt>
      <trkpt lat="44.46345" lon="1.27923">
        <ele>214.179</ele>
        <time>2014-04-01T08:55:45Z</time>
      </trkpt>
      <trkpt lat="44.46336" lon="1.27911">
        <ele>215.062</ele>
        <time>2014-04-01T08:55:53Z</time>
      </trkpt>
      <trkpt lat="44.46324" lon="1.27898">
        <ele>217.225</ele>
        <time>2014-04-01T08:56:03Z</time>
      </trkpt>
      <trkpt lat="44.46312" lon="1.27888">
        <ele>219.019</ele>
        <time>2014-04-01T08:56:12Z</time>
      </trkpt>
      <trkpt lat="44.463" lon="1.27879">
        <ele>220.519</ele>
        <time>2014-04-01T08:56:21Z</time>
      </trkpt>
      <trkpt lat="44.46284" lon="1.27865">
        <ele>222.484</ele>
        <time>2014-04-01T08:56:32Z</time>
      </trkpt>
      <trkpt lat="44.46275" lon="1.27854">
        <ele>223.314</ele>
        <time>2014-04-01T08:56:39Z</time>
      </trkpt>
      <trkpt lat="44.46266" lon="1.27841">
        <ele>224.162</ele>
        <time>2014-04-01T08:56:47Z</time>
      </trkpt>
      <trkpt lat="44.46257" lon="1.27825">
        <ele>225.67</ele>
        <time>2014-04-01T08:56:56Z</time>
      </trkpt>
      <trkpt lat="44.46247" lon="1.27808">
        <ele>226.994</ele>
        <time>2014-04-01T08:57:06Z</time>
      </trkpt>
      <trkpt lat="44.46238" lon="1.27792">
        <ele>230.269</ele>
        <time>2014-04-01T08:57:15Z</time>
      </trkpt>
      <trkpt lat="44.46229" lon="1.27775">
        <ele>232.769</ele>
        <time>2014-04-01T08:57:25Z</time>
      </trkpt>
      <trkpt lat="44.46219" lon="1.27758">
        <ele>233.834</ele>
        <time>2014-04-01T08:57:35Z</time>
      </trkpt>
      <trkpt lat="44.46209" lon="1.27742">
        <ele>235.014</ele>
        <time>2014-04-01T08:57:45Z</time>
      </trkpt>
      <trkpt lat="44.46199" lon="1.27727">
        <ele>236.766</ele>
        <time>2014-04-01T08:57:54Z</time>
      </trkpt>
      <trkpt lat="44.46189" lon="1.27712">
        <ele>237.598</ele>
        <time>2014-04-01T08:58:03Z</time>
      </trkpt>
      <trkpt lat="44.46179" lon="1.27698">
        <ele>239.044</ele>
        <time>2014-04-01T08:58:11Z</time>
      </trkpt>
      <trkpt lat="44.46168" lon="1.2768">
        <ele>240.182</ele>
        <time>2014-04-01T08:58:21Z</time>
      </trkpt>
      <trkpt lat="44.46159" lon="1.27663">
        <ele>241.273</ele>
        <time>2014-04-01T08:58:30Z</time>
      </trkpt>
      <trkpt lat="44.4615" lon="1.27649">
        <ele>242.318</ele>
        <time>2014-04-01T08:58:38Z</time>
      </trkpt>
      <trkpt lat="44.46141" lon="1.27633">
        <ele>244.092</ele>
        <time>2014-04-01T08:58:47Z</time>
      </trkpt>
      <trkpt lat="44.4613" lon="1.27617">
        <ele>244.458</ele>
        <time>2014-04-01T08:58:56Z</time>
      </trkpt>
      <trkpt lat="44.46117" lon="1.27599">
        <ele>245.362</ele>
        <time>2014-04-01T08:59:06Z</time>
      </trkpt>
      <trkpt lat="44.46104" lon="1.27583">
        <ele>247.313</ele>
        <time>2014-04-01T08:59:16Z</time>
      </trkpt>
      <trkpt lat="44.46096" lon="1.2757">
        <ele>247.468</ele>
        <time>2014-04-01T08:59:23Z</time>
      </trkpt>
      <trkpt lat="44.46086" lon="1.27552">
        <ele>246.06</ele>
        <time>2014-04-01T08:59:32Z</time>
      </trkpt>
      <trkpt lat="44.46072" lon="1.27538">
        <ele>247.407</ele>
        <time>2014-04-01T08:59:41Z</time>
      </trkpt>
      <trkpt lat="44.4607" lon="1.27535">
        <ele>247.287</ele>
        <time>2014-04-01T08:59:43Z</time>
      </trkpt>
      <trkpt lat="44.46063" lon="1.27526">
        <ele>247.648</ele>
        <time>2014-04-01T08:59:50Z</time>
      </trkpt>
      <trkpt lat="44.46062" lon="1.27526">
        <ele>247.767</ele>
        <time>2014-04-01T08:59:52Z</time>
      </trkpt>
    </trkseg>
  </trk>
  <trk>
    <name><![CDATA[2014-04-01-08-18-57]]></name>
    <trkseg>
      <trkpt lat="44.46058" lon="1.27528">
        <ele>258.027</ele>
        <time>2014-04-01T09:01:51Z</time>
      </trkpt>
      <trkpt lat="44.46049" lon="1.27523">
        <ele>257.598</ele>
        <time>2014-04-01T09:01:58Z</time>
      </trkpt>
      <trkpt lat="44.46038" lon="1.27514">
        <ele>257.817</ele>
        <time>2014-04-01T09:02:06Z</time>
      </trkpt>
      <trkpt lat="44.46028" lon="1.27508">
        <ele>258.407</ele>
        <time>2014-04-01T09:02:13Z</time>
      </trkpt>
      <trkpt lat="44.46018" lon="1.27502">
        <ele>258.897</ele>
        <time>2014-04-01T09:02:19Z</time>
      </trkpt>
      <trkpt lat="44.46005" lon="1.27492">
        <ele>260.057</ele>
        <time>2014-04-01T09:02:28Z</time>
      </trkpt>
      <trkpt lat="44.45993" lon="1.27484">
        <ele>261.297</ele>
        <time>2014-04-01T09:02:36Z</time>
      </trkpt>
      <trkpt lat="44.4598" lon="1.27475">
        <ele>263.217</ele>
        <time>2014-04-01T09:02:45Z</time>
      </trkpt>
      <trkpt lat="44.45968" lon="1.27467">
        <ele>266.147</ele>
        <time>2014-04-01T09:02:54Z</time>
      </trkpt>
      <trkpt lat="44.45959" lon="1.2746">
        <ele>268.167</ele>
        <time>2014-04-01T09:03:01Z</time>
      </trkpt>
      <trkpt lat="44.45951" lon="1.27457">
        <ele>268.936</ele>
        <time>2014-04-01T09:03:07Z</time>
      </trkpt>
      <trkpt lat="44.45941" lon="1.27452">
        <ele>268.927</ele>
        <time>2014-04-01T09:03:13Z</time>
      </trkpt>
      <trkpt lat="44.45925" lon="1.27439">
        <ele>269.897</ele>
        <time>2014-04-01T09:03:23Z</time>
      </trkpt>
      <trkpt lat="44.45907" lon="1.27427">
        <ele>270.716</ele>
        <time>2014-04-01T09:03:33Z</time>
      </trkpt>
      <trkpt lat="44.45892" lon="1.27419">
        <ele>271.366</ele>
        <time>2014-04-01T09:03:41Z</time>
      </trkpt>
      <trkpt lat="44.45868" lon="1.27409">
        <ele>272.756</ele>
        <time>2014-04-01T09:03:53Z</time>
      </trkpt>
      <trkpt lat="44.45845" lon="1.27399">
        <ele>274.066</ele>
        <time>2014-04-01T09:04:05Z</time>
      </trkpt>
      <trkpt lat="44.45823" lon="1.27391">
        <ele>275.006</ele>
        <time>2014-04-01T09:04:16Z</time>
      </trkpt>
      <trkpt lat="44.45798" lon="1.27384">
        <ele>276.856</ele>
        <time>2014-04-01T09:04:28Z</time>
      </trkpt>
      <trkpt lat="44.45779" lon="1.27381">
        <ele>277.796</ele>
        <time>2014-04-01T09:04:38Z</time>
      </trkpt>
      <trkpt lat="44.45759" lon="1.27382">
        <ele>277.885</ele>
        <time>2014-04-01T09:04:48Z</time>
      </trkpt>
      <trkpt lat="44.45744" lon="1.27385">
        <ele>278.645</ele>
        <time>2014-04-01T09:04:56Z</time>
      </trkpt>
      <trkpt lat="44.45727" lon="1.2739">
        <ele>280.926</ele>
        <time>2014-04-01T09:05:05Z</time>
      </trkpt>
      <trkpt lat="44.45711" lon="1.27397">
        <ele>281.785</ele>
        <time>2014-04-01T09:05:14Z</time>
      </trkpt>
      <trkpt lat="44.45699" lon="1.27403">
        <ele>280.975</ele>
        <time>2014-04-01T09:05:21Z</time>
      </trkpt>
      <trkpt lat="44.45683" lon="1.27417">
        <ele>282.365</ele>
        <time>2014-04-01T09:05:32Z</time>
      </trkpt>
      <trkpt lat="44.45671" lon="1.27428">
        <ele>284.035</ele>
        <time>2014-04-01T09:05:40Z</time>
      </trkpt>
      <trkpt lat="44.45663" lon="1.27438">
        <ele>286.846</ele>
        <time>2014-04-01T09:05:47Z</time>
      </trkpt>
      <trkpt lat="44.45654" lon="1.27453">
        <ele>288.805</ele>
        <time>2014-04-01T09:05:55Z</time>
      </trkpt>
      <trkpt lat="44.45647" lon="1.27468">
        <ele>289.025</ele>
        <time>2014-04-01T09:06:03Z</time>
      </trkpt>
      <trkpt lat="44.4564" lon="1.27485">
        <ele>288.614</ele>
        <time>2014-04-01T09:06:12Z</time>
      </trkpt>
      <trkpt lat="44.45632" lon="1.27501">
        <ele>289.175</ele>
        <time>2014-04-01T09:06:21Z</time>
      </trkpt>
      <trkpt lat="44.45624" lon="1.27514">
        <ele>290.404</ele>
        <time>2014-04-01T09:06:29Z</time>
      </trkpt>
      <trkpt lat="44.45614" lon="1.27525">
        <ele>291.565</ele>
        <time>2014-04-01T09:06:36Z</time>
      </trkpt>
      <trkpt lat="44.45597" lon="1.27536">
        <ele>292.385</ele>
        <time>2014-04-01T09:06:44Z</time>
      </trkpt>
      <trkpt lat="44.45577" lon="1.27544">
        <ele>292.664</ele>
        <time>2014-04-01T09:06:54Z</time>
      </trkpt>
      <trkpt lat="44.45563" lon="1.27548">
        <ele>293.594</ele>
        <time>2014-04-01T09:07:01Z</time>
      </trkpt>
      <trkpt lat="44.45547" lon="1.27552">
        <ele>294.524</ele>
        <time>2014-04-01T09:07:09Z</time>
      </trkpt>
      <trkpt lat="44.4553" lon="1.27558">
        <ele>296.015</ele>
        <time>2014-04-01T09:07:18Z</time>
      </trkpt>
      <trkpt lat="44.45518" lon="1.27562">
        <ele>297.144</ele>
        <time>2014-04-01T09:07:25Z</time>
      </trkpt>
      <trkpt lat="44.45504" lon="1.27568">
        <ele>298.465</ele>
        <time>2014-04-01T09:07:33Z</time>
      </trkpt>
      <trkpt lat="44.45487" lon="1.27573">
        <ele>298.954</ele>
        <time>2014-04-01T09:07:42Z</time>
      </trkpt>
      <trkpt lat="44.45473" lon="1.27575">
        <ele>299.964</ele>
        <time>2014-04-01T09:07:49Z</time>
      </trkpt>
      <trkpt lat="44.45454" lon="1.27577">
        <ele>300.184</ele>
        <time>2014-04-01T09:07:58Z</time>
      </trkpt>
      <trkpt lat="44.45438" lon="1.2758">
        <ele>299.993</ele>
        <time>2014-04-01T09:08:06Z</time>
      </trkpt>
      <trkpt lat="44.45424" lon="1.27579">
        <ele>300.763</ele>
        <time>2014-04-01T09:08:14Z</time>
      </trkpt>
      <trkpt lat="44.45412" lon="1.27578">
        <ele>301.094</ele>
        <time>2014-04-01T09:08:20Z</time>
      </trkpt>
      <trkpt lat="44.45397" lon="1.27575">
        <ele>301.073</ele>
        <time>2014-04-01T09:08:27Z</time>
      </trkpt>
      <trkpt lat="44.45376" lon="1.27571">
        <ele>300.373</ele>
        <time>2014-04-01T09:08:35Z</time>
      </trkpt>
      <trkpt lat="44.4535" lon="1.27561">
        <ele>299.103</ele>
        <time>2014-04-01T09:08:43Z</time>
      </trkpt>
      <trkpt lat="44.45346" lon="1.27559">
        <ele>298.813</ele>
        <time>2014-04-01T09:08:44Z</time>
      </trkpt>
      <trkpt lat="44.45324" lon="1.27551">
        <ele>298.553</ele>
        <time>2014-04-01T09:08:50Z</time>
      </trkpt>
      <trkpt lat="44.45302" lon="1.27542">
        <ele>299.394</ele>
        <time>2014-04-01T09:08:57Z</time>
      </trkpt>
      <trkpt lat="44.45293" lon="1.27545">
        <ele>300.794</ele>
        <time>2014-04-01T09:09:01Z</time>
      </trkpt>
      <trkpt lat="44.45285" lon="1.27556">
        <ele>301.923</ele>
        <time>2014-04-01T09:09:07Z</time>
      </trkpt>
      <trkpt lat="44.45277" lon="1.27576">
        <ele>302.303</ele>
        <time>2014-04-01T09:09:13Z</time>
      </trkpt>
      <trkpt lat="44.45265" lon="1.27602">
        <ele>301.712</ele>
        <time>2014-04-01T09:09:18Z</time>
      </trkpt>
      <trkpt lat="44.4526" lon="1.27636">
        <ele>299.991</ele>
        <time>2014-04-01T09:09:23Z</time>
      </trkpt>
      <trkpt lat="44.45269" lon="1.27667">
        <ele>296.4</ele>
        <time>2014-04-01T09:09:27Z</time>
      </trkpt>
      <trkpt lat="44.45275" lon="1.27674">
        <ele>295.64</ele>
        <time>2014-04-01T09:09:28Z</time>
      </trkpt>
      <trkpt lat="44.45322" lon="1.2772">
        <ele>293.093</ele>
        <time>2014-04-01T09:09:36Z</time>
      </trkpt>
      <trkpt lat="44.45341" lon="1.27738">
        <ele>293.424</ele>
        <time>2014-04-01T09:09:40Z</time>
      </trkpt>
      <trkpt lat="44.45353" lon="1.27765">
        <ele>294.104</ele>
        <time>2014-04-01T09:09:45Z</time>
      </trkpt>
      <trkpt lat="44.45351" lon="1.2778">
        <ele>294.815</ele>
        <time>2014-04-01T09:09:48Z</time>
      </trkpt>
      <trkpt lat="44.4534" lon="1.27804">
        <ele>296.985</ele>
        <time>2014-04-01T09:09:55Z</time>
      </trkpt>
      <trkpt lat="44.45327" lon="1.27829">
        <ele>298.214</ele>
        <time>2014-04-01T09:10:03Z</time>
      </trkpt>
      <trkpt lat="44.45309" lon="1.27862">
        <ele>299.674</ele>
        <time>2014-04-01T09:10:14Z</time>
      </trkpt>
      <trkpt lat="44.45301" lon="1.27871">
        <ele>299.884</ele>
        <time>2014-04-01T09:10:18Z</time>
      </trkpt>
      <trkpt lat="44.45289" lon="1.27866">
        <ele>300.974</ele>
        <time>2014-04-01T09:10:23Z</time>
      </trkpt>
      <trkpt lat="44.4527" lon="1.2786">
        <ele>301.443</ele>
        <time>2014-04-01T09:10:30Z</time>
      </trkpt>
      <trkpt lat="44.45246" lon="1.27872">
        <ele>299.091</ele>
        <time>2014-04-01T09:10:35Z</time>
      </trkpt>
      <trkpt lat="44.45205" lon="1.27894">
        <ele>296.993</ele>
        <time>2014-04-01T09:10:42Z</time>
      </trkpt>
      <trkpt lat="44.45169" lon="1.27915">
        <ele>296.833</ele>
        <time>2014-04-01T09:10:49Z</time>
      </trkpt>
      <trkpt lat="44.4514" lon="1.27934">
        <ele>296.703</ele>
        <time>2014-04-01T09:10:56Z</time>
      </trkpt>
      <trkpt lat="44.45116" lon="1.27961">
        <ele>296.263</ele>
        <time>2014-04-01T09:11:04Z</time>
      </trkpt>
      <trkpt lat="44.45096" lon="1.27997">
        <ele>296.253</ele>
        <time>2014-04-01T09:11:12Z</time>
      </trkpt>
      <trkpt lat="44.4508" lon="1.28029">
        <ele>296.943</ele>
        <time>2014-04-01T09:11:20Z</time>
      </trkpt>
      <trkpt lat="44.45066" lon="1.28042">
        <ele>299.314</ele>
        <time>2014-04-01T09:11:26Z</time>
      </trkpt>
      <trkpt lat="44.45046" lon="1.28053">
        <ele>300.813</ele>
        <time>2014-04-01T09:11:34Z</time>
      </trkpt>
      <trkpt lat="44.45027" lon="1.28069">
        <ele>300.722</ele>
        <time>2014-04-01T09:11:42Z</time>
      </trkpt>
      <trkpt lat="44.45017" lon="1.28087">
        <ele>302.364</ele>
        <time>2014-04-01T09:11:48Z</time>
      </trkpt>
      <trkpt lat="44.45003" lon="1.28113">
        <ele>305.804</ele>
        <time>2014-04-01T09:11:56Z</time>
      </trkpt>
      <trkpt lat="44.44985" lon="1.2814">
        <ele>308.733</ele>
        <time>2014-04-01T09:12:06Z</time>
      </trkpt>
      <trkpt lat="44.44975" lon="1.2817">
        <ele>306.292</ele>
        <time>2014-04-01T09:12:13Z</time>
      </trkpt>
      <trkpt lat="44.44965" lon="1.28195">
        <ele>306.332</ele>
        <time>2014-04-01T09:12:19Z</time>
      </trkpt>
      <trkpt lat="44.44963" lon="1.28213">
        <ele>305.672</ele>
        <time>2014-04-01T09:12:22Z</time>
      </trkpt>
      <trkpt lat="44.44965" lon="1.28267">
        <ele>303.111</ele>
        <time>2014-04-01T09:12:30Z</time>
      </trkpt>
      <trkpt lat="44.44972" lon="1.28331">
        <ele>301.332</ele>
        <time>2014-04-01T09:12:38Z</time>
      </trkpt>
      <trkpt lat="44.4498" lon="1.2838">
        <ele>302.293</ele>
        <time>2014-04-01T09:12:45Z</time>
      </trkpt>
      <trkpt lat="44.44988" lon="1.28424">
        <ele>303.794</ele>
        <time>2014-04-01T09:12:53Z</time>
      </trkpt>
      <trkpt lat="44.44996" lon="1.28466">
        <ele>304.643</ele>
        <time>2014-04-01T09:13:01Z</time>
      </trkpt>
      <trkpt lat="44.45" lon="1.28511">
        <ele>303.502</ele>
        <time>2014-04-01T09:13:09Z</time>
      </trkpt>
      <trkpt lat="44.44997" lon="1.28553">
        <ele>301.812</ele>
        <time>2014-04-01T09:13:15Z</time>
      </trkpt>
      <trkpt lat="44.45001" lon="1.28599">
        <ele>298.8</ele>
        <time>2014-04-01T09:13:21Z</time>
      </trkpt>
      <trkpt lat="44.45001" lon="1.28608">
        <ele>298.37</ele>
        <time>2014-04-01T09:13:22Z</time>
      </trkpt>
      <trkpt lat="44.44994" lon="1.28654">
        <ele>295.661</ele>
        <time>2014-04-01T09:13:27Z</time>
      </trkpt>
      <trkpt lat="44.44983" lon="1.28715">
        <ele>292.632</ele>
        <time>2014-04-01T09:13:33Z</time>
      </trkpt>
      <trkpt lat="44.44979" lon="1.28761">
        <ele>292.433</ele>
        <time>2014-04-01T09:13:38Z</time>
      </trkpt>
      <trkpt lat="44.44976" lon="1.28807">
        <ele>292.894</ele>
        <time>2014-04-01T09:13:45Z</time>
      </trkpt>
      <trkpt lat="44.44975" lon="1.28852">
        <ele>293.674</ele>
        <time>2014-04-01T09:13:53Z</time>
      </trkpt>
      <trkpt lat="44.44975" lon="1.28908">
        <ele>294.124</ele>
        <time>2014-04-01T09:14:03Z</time>
      </trkpt>
      <trkpt lat="44.44975" lon="1.28949">
        <ele>294.124</ele>
        <time>2014-04-01T09:14:11Z</time>
      </trkpt>
      <trkpt lat="44.44976" lon="1.28987">
        <ele>293.674</ele>
        <time>2014-04-01T09:14:18Z</time>
      </trkpt>
      <trkpt lat="44.44978" lon="1.29009">
        <ele>293.364</ele>
        <time>2014-04-01T09:14:22Z</time>
      </trkpt>
      <trkpt lat="44.4498" lon="1.29026">
        <ele>293.144</ele>
        <time>2014-04-01T09:14:25Z</time>
      </trkpt>
      <trkpt lat="44.45" lon="1.29073">
        <ele>292.734</ele>
        <time>2014-04-01T09:14:34Z</time>
      </trkpt>
      <trkpt lat="44.45023" lon="1.29118">
        <ele>290.832</ele>
        <time>2014-04-01T09:14:42Z</time>
      </trkpt>
      <trkpt lat="44.45032" lon="1.29155">
        <ele>289.162</ele>
        <time>2014-04-01T09:14:47Z</time>
      </trkpt>
      <trkpt lat="44.45042" lon="1.29212">
        <ele>286.263</ele>
        <time>2014-04-01T09:14:54Z</time>
      </trkpt>
      <trkpt lat="44.4506" lon="1.29247">
        <ele>283.993</ele>
        <time>2014-04-01T09:14:59Z</time>
      </trkpt>
      <trkpt lat="44.45078" lon="1.29261">
        <ele>282.593</ele>
        <time>2014-04-01T09:15:02Z</time>
      </trkpt>
      <trkpt lat="44.45135" lon="1.29288">
        <ele>278.893</ele>
        <time>2014-04-01T09:15:11Z</time>
      </trkpt>
      <trkpt lat="44.45154" lon="1.29298">
        <ele>277.604</ele>
        <time>2014-04-01T09:15:15Z</time>
      </trkpt>
      <trkpt lat="44.45154" lon="1.29298">
        <ele>277.567</ele>
        <time>2014-04-01T09:15:17Z</time>
      </trkpt>
    </trkseg>
  </trk>
  <trk>
    <name><![CDATA[2014-04-01-08-18-57]]></name>
    <trkseg>
      <trkpt lat="44.45159" lon="1.29298">
        <ele>276.764</ele>
        <time>2014-04-01T09:15:39Z</time>
      </trkpt>
      <trkpt lat="44.45176" lon="1.29306">
        <ele>275.524</ele>
        <time>2014-04-01T09:15:44Z</time>
      </trkpt>
      <trkpt lat="44.4521" lon="1.29323">
        <ele>274.855</ele>
        <time>2014-04-01T09:15:52Z</time>
      </trkpt>
      <trkpt lat="44.45253" lon="1.29344">
        <ele>275.196</ele>
        <time>2014-04-01T09:16:02Z</time>
      </trkpt>
      <trkpt lat="44.45291" lon="1.29364">
        <ele>277.237</ele>
        <time>2014-04-01T09:16:12Z</time>
      </trkpt>
      <trkpt lat="44.45315" lon="1.29387">
        <ele>276.895</ele>
        <time>2014-04-01T09:16:20Z</time>
      </trkpt>
      <trkpt lat="44.45334" lon="1.29423">
        <ele>275.295</ele>
        <time>2014-04-01T09:16:27Z</time>
      </trkpt>
      <trkpt lat="44.45342" lon="1.29434">
        <ele>274.504</ele>
        <time>2014-04-01T09:16:29Z</time>
      </trkpt>
      <trkpt lat="44.45368" lon="1.29453">
        <ele>271.133</ele>
        <time>2014-04-01T09:16:34Z</time>
      </trkpt>
      <trkpt lat="44.45395" lon="1.29451">
        <ele>268.442</ele>
        <time>2014-04-01T09:16:38Z</time>
      </trkpt>
      <trkpt lat="44.45455" lon="1.29432">
        <ele>263.323</ele>
        <time>2014-04-01T09:16:46Z</time>
      </trkpt>
      <trkpt lat="44.45507" lon="1.29415">
        <ele>258.065</ele>
        <time>2014-04-01T09:16:54Z</time>
      </trkpt>
      <trkpt lat="44.45553" lon="1.2941">
        <ele>253.555</ele>
        <time>2014-04-01T09:17:01Z</time>
      </trkpt>
      <trkpt lat="44.45589" lon="1.29417">
        <ele>249.945</ele>
        <time>2014-04-01T09:17:07Z</time>
      </trkpt>
      <trkpt lat="44.45603" lon="1.29423">
        <ele>249.065</ele>
        <time>2014-04-01T09:17:10Z</time>
      </trkpt>
      <trkpt lat="44.45617" lon="1.29414">
        <ele>249.318</ele>
        <time>2014-04-01T09:17:14Z</time>
      </trkpt>
      <trkpt lat="44.45619" lon="1.29404">
        <ele>249.768</ele>
        <time>2014-04-01T09:17:16Z</time>
      </trkpt>
      <trkpt lat="44.4563" lon="1.29373">
        <ele>250.618</ele>
        <time>2014-04-01T09:17:23Z</time>
      </trkpt>
      <trkpt lat="44.45641" lon="1.29369">
        <ele>250.697</ele>
        <time>2014-04-01T09:17:27Z</time>
      </trkpt>
      <trkpt lat="44.45651" lon="1.29371">
        <ele>250.347</ele>
        <time>2014-04-01T09:17:30Z</time>
      </trkpt>
      <trkpt lat="44.45666" lon="1.29376">
        <ele>250.647</ele>
        <time>2014-04-01T09:17:34Z</time>
      </trkpt>
      <trkpt lat="44.45689" lon="1.29377">
        <ele>251.818</ele>
        <time>2014-04-01T09:17:41Z</time>
      </trkpt>
      <trkpt lat="44.45708" lon="1.29374">
        <ele>252.387</ele>
        <time>2014-04-01T09:17:47Z</time>
      </trkpt>
      <trkpt lat="44.45716" lon="1.29358">
        <ele>252.657</ele>
        <time>2014-04-01T09:17:51Z</time>
      </trkpt>
      <trkpt lat="44.45719" lon="1.29343">
        <ele>252.237</ele>
        <time>2014-04-01T09:17:54Z</time>
      </trkpt>
      <trkpt lat="44.45731" lon="1.29328">
        <ele>251.648</ele>
        <time>2014-04-01T09:17:58Z</time>
      </trkpt>
      <trkpt lat="44.45747" lon="1.2933">
        <ele>251.958</ele>
        <time>2014-04-01T09:18:02Z</time>
      </trkpt>
      <trkpt lat="44.45755" lon="1.29322">
        <ele>252.298</ele>
        <time>2014-04-01T09:18:05Z</time>
      </trkpt>
      <trkpt lat="44.45761" lon="1.2933">
        <ele>252.999</ele>
        <time>2014-04-01T09:18:08Z</time>
      </trkpt>
      <trkpt lat="44.45764" lon="1.29338">
        <ele>253.308</ele>
        <time>2014-04-01T09:18:10Z</time>
      </trkpt>
      <trkpt lat="44.45772" lon="1.29352">
        <ele>253.147</ele>
        <time>2014-04-01T09:18:14Z</time>
      </trkpt>
      <trkpt lat="44.45787" lon="1.29347">
        <ele>252.918</ele>
        <time>2014-04-01T09:18:18Z</time>
      </trkpt>
      <trkpt lat="44.45802" lon="1.29344">
        <ele>252.868</ele>
        <time>2014-04-01T09:18:22Z</time>
      </trkpt>
      <trkpt lat="44.45806" lon="1.29346">
        <ele>252.848</ele>
        <time>2014-04-01T09:18:23Z</time>
      </trkpt>
      <trkpt lat="44.45827" lon="1.29349">
        <ele>253.098</ele>
        <time>2014-04-01T09:18:28Z</time>
      </trkpt>
      <trkpt lat="44.45847" lon="1.29344">
        <ele>253.869</ele>
        <time>2014-04-01T09:18:33Z</time>
      </trkpt>
      <trkpt lat="44.45863" lon="1.29347">
        <ele>254.569</ele>
        <time>2014-04-01T09:18:37Z</time>
      </trkpt>
      <trkpt lat="44.45881" lon="1.29357">
        <ele>255.779</ele>
        <time>2014-04-01T09:18:42Z</time>
      </trkpt>
      <trkpt lat="44.45888" lon="1.29359">
        <ele>256.119</ele>
        <time>2014-04-01T09:18:44Z</time>
      </trkpt>
      <trkpt lat="44.45899" lon="1.29367">
        <ele>256.678</ele>
        <time>2014-04-01T09:18:48Z</time>
      </trkpt>
      <trkpt lat="44.45913" lon="1.29372">
        <ele>257.249</ele>
        <time>2014-04-01T09:18:52Z</time>
      </trkpt>
      <trkpt lat="44.45926" lon="1.29371">
        <ele>257.77</ele>
        <time>2014-04-01T09:18:56Z</time>
      </trkpt>
      <trkpt lat="44.45933" lon="1.29378">
        <ele>257.849</ele>
        <time>2014-04-01T09:18:59Z</time>
      </trkpt>
      <trkpt lat="44.45941" lon="1.29403">
        <ele>257.879</ele>
        <time>2014-04-01T09:19:06Z</time>
      </trkpt>
      <trkpt lat="44.45946" lon="1.29414">
        <ele>257.538</ele>
        <time>2014-04-01T09:19:10Z</time>
      </trkpt>
      <trkpt lat="44.45948" lon="1.29414">
        <ele>257.287</ele>
        <time>2014-04-01T09:19:13Z</time>
      </trkpt>
    </trkseg>
  </trk>
  <trk>
    <name><![CDATA[2014-04-01-08-18-57]]></name>
    <trkseg>
      <trkpt lat="44.45954" lon="1.29431">
        <ele>254.109</ele>
        <time>2014-04-01T09:23:07Z</time>
      </trkpt>
      <trkpt lat="44.4596" lon="1.29446">
        <ele>253.448</ele>
        <time>2014-04-01T09:23:13Z</time>
      </trkpt>
      <trkpt lat="44.45972" lon="1.29467">
        <ele>252.328</ele>
        <time>2014-04-01T09:23:19Z</time>
      </trkpt>
      <trkpt lat="44.4598" lon="1.29479">
        <ele>251.368</ele>
        <time>2014-04-01T09:23:23Z</time>
      </trkpt>
      <trkpt lat="44.45986" lon="1.29493">
        <ele>250.508</ele>
        <time>2014-04-01T09:23:27Z</time>
      </trkpt>
      <trkpt lat="44.45993" lon="1.29509">
        <ele>249.698</ele>
        <time>2014-04-01T09:23:31Z</time>
      </trkpt>
      <trkpt lat="44.45999" lon="1.29531">
        <ele>249.128</ele>
        <time>2014-04-01T09:23:35Z</time>
      </trkpt>
      <trkpt lat="44.46017" lon="1.29557">
        <ele>248.669</ele>
        <time>2014-04-01T09:23:41Z</time>
      </trkpt>
      <trkpt lat="44.46021" lon="1.29563">
        <ele>247.878</ele>
        <time>2014-04-01T09:23:45Z</time>
      </trkpt>
      <trkpt lat="44.46025" lon="1.29571">
        <ele>245.256</ele>
        <time>2014-04-01T09:23:49Z</time>
      </trkpt>
      <trkpt lat="44.46034" lon="1.29582">
        <ele>242.706</ele>
        <time>2014-04-01T09:23:53Z</time>
      </trkpt>
      <trkpt lat="44.46045" lon="1.29595">
        <ele>240.497</ele>
        <time>2014-04-01T09:23:57Z</time>
      </trkpt>
      <trkpt lat="44.46048" lon="1.29599">
        <ele>240.007</ele>
        <time>2014-04-01T09:23:58Z</time>
      </trkpt>
      <trkpt lat="44.46063" lon="1.29615">
        <ele>236.407</ele>
        <time>2014-04-01T09:24:03Z</time>
      </trkpt>
      <trkpt lat="44.46073" lon="1.29627">
        <ele>233.195</ele>
        <time>2014-04-01T09:24:06Z</time>
      </trkpt>
      <trkpt lat="44.46091" lon="1.2964">
        <ele>228.554</ele>
        <time>2014-04-01T09:24:10Z</time>
      </trkpt>
      <trkpt lat="44.46098" lon="1.29646">
        <ele>226.565</ele>
        <time>2014-04-01T09:24:12Z</time>
      </trkpt>
      <trkpt lat="44.46108" lon="1.29655">
        <ele>222.194</ele>
        <time>2014-04-01T09:24:16Z</time>
      </trkpt>
      <trkpt lat="44.46119" lon="1.29664">
        <ele>218.255</ele>
        <time>2014-04-01T09:24:21Z</time>
      </trkpt>
      <trkpt lat="44.46126" lon="1.2967">
        <ele>216.167</ele>
        <time>2014-04-01T09:24:25Z</time>
      </trkpt>
      <trkpt lat="44.4613" lon="1.29674">
        <ele>214.558</ele>
        <time>2014-04-01T09:24:29Z</time>
      </trkpt>
      <trkpt lat="44.46139" lon="1.2968">
        <ele>212.527</ele>
        <time>2014-04-01T09:24:33Z</time>
      </trkpt>
      <trkpt lat="44.46151" lon="1.29687">
        <ele>209.587</ele>
        <time>2014-04-01T09:24:38Z</time>
      </trkpt>
      <trkpt lat="44.4616" lon="1.29694">
        <ele>209.199</ele>
        <time>2014-04-01T09:24:42Z</time>
      </trkpt>
      <trkpt lat="44.46161" lon="1.29696">
        <ele>209.019</ele>
        <time>2014-04-01T09:24:43Z</time>
      </trkpt>
      <trkpt lat="44.4617" lon="1.29712">
        <ele>205.056</ele>
        <time>2014-04-01T09:24:49Z</time>
      </trkpt>
      <trkpt lat="44.46178" lon="1.2972">
        <ele>202.006</ele>
        <time>2014-04-01T09:24:53Z</time>
      </trkpt>
      <trkpt lat="44.46189" lon="1.29732">
        <ele>199.376</ele>
        <time>2014-04-01T09:24:57Z</time>
      </trkpt>
      <trkpt lat="44.46202" lon="1.29743">
        <ele>196.087</ele>
        <time>2014-04-01T09:25:02Z</time>
      </trkpt>
      <trkpt lat="44.46216" lon="1.29743">
        <ele>192.376</ele>
        <time>2014-04-01T09:25:06Z</time>
      </trkpt>
      <trkpt lat="44.46227" lon="1.29749">
        <ele>190.609</ele>
        <time>2014-04-01T09:25:11Z</time>
      </trkpt>
      <trkpt lat="44.46237" lon="1.29757">
        <ele>189.71</ele>
        <time>2014-04-01T09:25:15Z</time>
      </trkpt>
      <trkpt lat="44.46238" lon="1.29758">
        <ele>189.566</ele>
        <time>2014-04-01T09:25:18Z</time>
      </trkpt>
    </trkseg>
  </trk>
  <trk>
    <name><![CDATA[2014-04-01-08-18-57]]></name>
    <trkseg>
      <trkpt lat="44.46238" lon="1.2976">
        <ele>189.05</ele>
        <time>2014-04-01T09:25:37Z</time>
      </trkpt>
      <trkpt lat="44.46238" lon="1.2976">
        <ele>188.834</ele>
        <time>2014-04-01T09:25:38Z</time>
      </trkpt>
    </trkseg>
  </trk>
  <trk>
    <name><![CDATA[2014-04-01-08-18-57]]></name>
    <trkseg>
      <trkpt lat="44.46253" lon="1.29766">
        <ele>186.017</ele>
        <time>2014-04-01T09:25:55Z</time>
      </trkpt>
      <trkpt lat="44.46257" lon="1.29769">
        <ele>184.668</ele>
        <time>2014-04-01T09:25:57Z</time>
      </trkpt>
      <trkpt lat="44.46272" lon="1.29783">
        <ele>179.928</ele>
        <time>2014-04-01T09:26:03Z</time>
      </trkpt>
      <trkpt lat="44.46278" lon="1.29784">
        <ele>178.34</ele>
        <time>2014-04-01T09:26:07Z</time>
      </trkpt>
    </trkseg>
  </trk>
  <trk>
    <name><![CDATA[2014-04-01-08-18-57]]></name>
    <trkseg>
      <trkpt lat="44.46289" lon="1.29786">
        <ele>173.839</ele>
        <time>2014-04-01T09:26:32Z</time>
      </trkpt>
      <trkpt lat="44.46309" lon="1.2979">
        <ele>168.147</ele>
        <time>2014-04-01T09:26:38Z</time>
      </trkpt>
      <trkpt lat="44.46324" lon="1.29796">
        <ele>163.302</ele>
        <time>2014-04-01T09:26:43Z</time>
      </trkpt>
      <trkpt lat="44.46328" lon="1.29799">
        <ele>161.672</ele>
        <time>2014-04-01T09:26:45Z</time>
      </trkpt>
      <trkpt lat="44.46338" lon="1.29802">
        <ele>158.611</ele>
        <time>2014-04-01T09:26:50Z</time>
      </trkpt>
      <trkpt lat="44.46348" lon="1.29814">
        <ele>157.305</ele>
        <time>2014-04-01T09:26:53Z</time>
      </trkpt>
      <trkpt lat="44.46365" lon="1.2983">
        <ele>153.215</ele>
        <time>2014-04-01T09:26:58Z</time>
      </trkpt>
      <trkpt lat="44.46368" lon="1.29834">
        <ele>152.428</ele>
        <time>2014-04-01T09:26:59Z</time>
      </trkpt>
      <trkpt lat="44.46381" lon="1.29845">
        <ele>148.418</ele>
        <time>2014-04-01T09:27:04Z</time>
      </trkpt>
      <trkpt lat="44.46385" lon="1.29849">
        <ele>147.732</ele>
        <time>2014-04-01T09:27:05Z</time>
      </trkpt>
      <trkpt lat="44.46401" lon="1.29859">
        <ele>146.091</ele>
        <time>2014-04-01T09:27:09Z</time>
      </trkpt>
      <trkpt lat="44.46409" lon="1.29864">
        <ele>144.342</ele>
        <time>2014-04-01T09:27:13Z</time>
      </trkpt>
      <trkpt lat="44.46423" lon="1.29867">
        <ele>141.416</ele>
        <time>2014-04-01T09:27:17Z</time>
      </trkpt>
      <trkpt lat="44.46426" lon="1.29869">
        <ele>140.533</ele>
        <time>2014-04-01T09:27:18Z</time>
      </trkpt>
      <trkpt lat="44.46429" lon="1.29887">
        <ele>137.464</ele>
        <time>2014-04-01T09:27:22Z</time>
      </trkpt>
      <trkpt lat="44.46427" lon="1.29912">
        <ele>132.796</ele>
        <time>2014-04-01T09:27:27Z</time>
      </trkpt>
      <trkpt lat="44.46424" lon="1.29934">
        <ele>128.431</ele>
        <time>2014-04-01T09:27:32Z</time>
      </trkpt>
      <trkpt lat="44.46426" lon="1.29954">
        <ele>122.679</ele>
        <time>2014-04-01T09:27:37Z</time>
      </trkpt>
      <trkpt lat="44.46436" lon="1.29958">
        <ele>118.725</ele>
        <time>2014-04-01T09:27:41Z</time>
      </trkpt>
      <trkpt lat="44.46444" lon="1.29956">
        <ele>115.131</ele>
        <time>2014-04-01T09:27:45Z</time>
      </trkpt>
      <trkpt lat="44.46444" lon="1.29956">
        <ele>114.636</ele>
        <time>2014-04-01T09:27:47Z</time>
      </trkpt>
    </trkseg>
  </trk>
  <trk>
    <name><![CDATA[2014-04-01-08-18-57]]></name>
    <trkseg>
      <trkpt lat="44.46448" lon="1.29961">
        <ele>113.995</ele>
        <time>2014-04-01T09:27:58Z</time>
      </trkpt>
    </trkseg>
  </trk>
  <trk>
    <name><![CDATA[2014-04-01-08-18-57]]></name>
    <trkseg>
      <trkpt lat="44.46446" lon="1.29963">
        <ele>114.23</ele>
        <time>2014-04-01T09:28:03Z</time>
      </trkpt>
    </trkseg>
  </trk>
  <trk>
    <name><![CDATA[2014-04-01-08-18-57]]></name>
    <trkseg>
      <trkpt lat="44.46435" lon="1.29975">
        <ele>110.719</ele>
        <time>2014-04-01T09:28:11Z</time>
      </trkpt>
      <trkpt lat="44.46431" lon="1.29976">
        <ele>110.099</ele>
        <time>2014-04-01T09:28:12Z</time>
      </trkpt>
      <trkpt lat="44.46422" lon="1.29978">
        <ele>110.001</ele>
        <time>2014-04-01T09:28:16Z</time>
      </trkpt>
      <trkpt lat="44.46413" lon="1.29977">
        <ele>112.654</ele>
        <time>2014-04-01T09:28:23Z</time>
      </trkpt>
      <trkpt lat="44.46404" lon="1.29976">
        <ele>115.013</ele>
        <time>2014-04-01T09:28:29Z</time>
      </trkpt>
      <trkpt lat="44.46393" lon="1.2997">
        <ele>118.403</ele>
        <time>2014-04-01T09:28:37Z</time>
      </trkpt>
      <trkpt lat="44.46384" lon="1.29963">
        <ele>119.914</ele>
        <time>2014-04-01T09:28:44Z</time>
      </trkpt>
      <trkpt lat="44.46383" lon="1.29961">
        <ele>120.105</ele>
        <time>2014-04-01T09:28:47Z</time>
      </trkpt>
    </trkseg>
  </trk>
  <trk>
    <name><![CDATA[2014-04-01-08-18-57]]></name>
    <trkseg>
      <trkpt lat="44.46378" lon="1.29957">
        <ele>122.693</ele>
        <time>2014-04-01T09:29:03Z</time>
      </trkpt>
      <trkpt lat="44.46378" lon="1.29957">
        <ele>122.582</ele>
        <time>2014-04-01T09:29:04Z</time>
      </trkpt>
    </trkseg>
  </trk>
  <trk>
    <name><![CDATA[2014-04-01-08-18-57]]></name>
    <trkseg>
      <trkpt lat="44.46372" lon="1.29949">
        <ele>125.683</ele>
        <time>2014-04-01T09:29:26Z</time>
      </trkpt>
      <trkpt lat="44.46362" lon="1.29941">
        <ele>127.533</ele>
        <time>2014-04-01T09:29:33Z</time>
      </trkpt>
      <trkpt lat="44.46347" lon="1.29931">
        <ele>129.243</ele>
        <time>2014-04-01T09:29:43Z</time>
      </trkpt>
      <trkpt lat="44.46333" lon="1.29931">
        <ele>129.982</ele>
        <time>2014-04-01T09:29:52Z</time>
      </trkpt>
      <trkpt lat="44.46319" lon="1.2993">
        <ele>131.063</ele>
        <time>2014-04-01T09:30:01Z</time>
      </trkpt>
      <trkpt lat="44.46306" lon="1.29929">
        <ele>131.932</ele>
        <time>2014-04-01T09:30:09Z</time>
      </trkpt>
      <trkpt lat="44.46291" lon="1.29929">
        <ele>133.842</ele>
        <time>2014-04-01T09:30:18Z</time>
      </trkpt>
      <trkpt lat="44.46273" lon="1.2993">
        <ele>135.513</ele>
        <time>2014-04-01T09:30:29Z</time>
      </trkpt>
      <trkpt lat="44.46263" lon="1.2993">
        <ele>136.612</ele>
        <time>2014-04-01T09:30:35Z</time>
      </trkpt>
      <trkpt lat="44.4625" lon="1.29927">
        <ele>138.612</ele>
        <time>2014-04-01T09:30:44Z</time>
      </trkpt>
      <trkpt lat="44.46237" lon="1.29919">
        <ele>141.543</ele>
        <time>2014-04-01T09:30:54Z</time>
      </trkpt>
      <trkpt lat="44.46224" lon="1.29912">
        <ele>144.243</ele>
        <time>2014-04-01T09:31:04Z</time>
      </trkpt>
      <trkpt lat="44.46209" lon="1.29905">
        <ele>147.542</ele>
        <time>2014-04-01T09:31:15Z</time>
      </trkpt>
      <trkpt lat="44.46194" lon="1.29897">
        <ele>149.632</ele>
        <time>2014-04-01T09:31:26Z</time>
      </trkpt>
      <trkpt lat="44.46184" lon="1.2989">
        <ele>151.442</ele>
        <time>2014-04-01T09:31:34Z</time>
      </trkpt>
      <trkpt lat="44.46176" lon="1.29886">
        <ele>152.521</ele>
        <time>2014-04-01T09:31:40Z</time>
      </trkpt>
      <trkpt lat="44.46164" lon="1.2988">
        <ele>152.932</ele>
        <time>2014-04-01T09:31:48Z</time>
      </trkpt>
      <trkpt lat="44.4615" lon="1.29871">
        <ele>155.012</ele>
        <time>2014-04-01T09:31:57Z</time>
      </trkpt>
      <trkpt lat="44.46137" lon="1.29857">
        <ele>156.321</ele>
        <time>2014-04-01T09:32:07Z</time>
      </trkpt>
      <trkpt lat="44.46128" lon="1.29844">
        <ele>157.401</ele>
        <time>2014-04-01T09:32:15Z</time>
      </trkpt>
      <trkpt lat="44.46118" lon="1.29833">
        <ele>159.251</ele>
        <time>2014-04-01T09:32:24Z</time>
      </trkpt>
      <trkpt lat="44.46108" lon="1.29821">
        <ele>160.251</ele>
        <time>2014-04-01T09:32:33Z</time>
      </trkpt>
      <trkpt lat="44.46096" lon="1.29813">
        <ele>162.642</ele>
        <time>2014-04-01T09:32:42Z</time>
      </trkpt>
      <trkpt lat="44.46082" lon="1.29807">
        <ele>165.492</ele>
        <time>2014-04-01T09:32:52Z</time>
      </trkpt>
      <trkpt lat="44.46071" lon="1.29802">
        <ele>167.122</ele>
        <time>2014-04-01T09:33:00Z</time>
      </trkpt>
      <trkpt lat="44.46062" lon="1.29798">
        <ele>169.191</ele>
        <time>2014-04-01T09:33:09Z</time>
      </trkpt>
    </trkseg>
  </trk>
  <trk>
    <name><![CDATA[2014-04-01-08-18-57]]></name>
    <trkseg>
      <trkpt lat="44.4606" lon="1.29795">
        <ele>169.292</ele>
        <time>2014-04-01T09:33:20Z</time>
      </trkpt>
    </trkseg>
  </trk>
  <trk>
    <name><![CDATA[2014-04-01-08-18-57]]></name>
    <trkseg>
      <trkpt lat="44.46055" lon="1.29792">
        <ele>170.31</ele>
        <time>2014-04-01T09:33:33Z</time>
      </trkpt>
      <trkpt lat="44.46054" lon="1.29791">
        <ele>170.423</ele>
        <time>2014-04-01T09:33:35Z</time>
      </trkpt>
    </trkseg>
  </trk>
  <trk>
    <name><![CDATA[2014-04-01-08-18-57]]></name>
    <trkseg>
      <trkpt lat="44.46043" lon="1.29785">
        <ele>170.351</ele>
        <time>2014-04-01T09:33:46Z</time>
      </trkpt>
      <trkpt lat="44.46031" lon="1.29777">
        <ele>172.361</ele>
        <time>2014-04-01T09:33:54Z</time>
      </trkpt>
      <trkpt lat="44.46018" lon="1.29769">
        <ele>174.531</ele>
        <time>2014-04-01T09:34:03Z</time>
      </trkpt>
      <trkpt lat="44.46007" lon="1.29762">
        <ele>176.351</ele>
        <time>2014-04-01T09:34:11Z</time>
      </trkpt>
      <trkpt lat="44.45992" lon="1.29753">
        <ele>178.411</ele>
        <time>2014-04-01T09:34:21Z</time>
      </trkpt>
      <trkpt lat="44.45978" lon="1.29742">
        <ele>180.671</ele>
        <time>2014-04-01T09:34:32Z</time>
      </trkpt>
      <trkpt lat="44.45966" lon="1.2973">
        <ele>182.551</ele>
        <time>2014-04-01T09:34:42Z</time>
      </trkpt>
      <trkpt lat="44.45954" lon="1.29718">
        <ele>184.231</ele>
        <time>2014-04-01T09:34:52Z</time>
      </trkpt>
      <trkpt lat="44.45944" lon="1.29706">
        <ele>185.571</ele>
        <time>2014-04-01T09:35:01Z</time>
      </trkpt>
      <trkpt lat="44.45936" lon="1.29694">
        <ele>187.39</ele>
        <time>2014-04-01T09:35:09Z</time>
      </trkpt>
      <trkpt lat="44.45934" lon="1.29692">
        <ele>187.77</ele>
        <time>2014-04-01T09:35:11Z</time>
      </trkpt>
      <trkpt lat="44.45928" lon="1.29684">
        <ele>188.43</ele>
        <time>2014-04-01T09:35:17Z</time>
      </trkpt>
      <trkpt lat="44.45921" lon="1.29673">
        <ele>189.38</ele>
        <time>2014-04-01T09:35:25Z</time>
      </trkpt>
      <trkpt lat="44.45913" lon="1.29657">
        <ele>190.43</ele>
        <time>2014-04-01T09:35:35Z</time>
      </trkpt>
      <trkpt lat="44.45908" lon="1.29645">
        <ele>191.43</ele>
        <time>2014-04-01T09:35:42Z</time>
      </trkpt>
      <trkpt lat="44.45899" lon="1.29629">
        <ele>193.55</ele>
        <time>2014-04-01T09:35:52Z</time>
      </trkpt>
      <trkpt lat="44.45891" lon="1.29618">
        <ele>195.08</ele>
        <time>2014-04-01T09:36:00Z</time>
      </trkpt>
      <trkpt lat="44.45879" lon="1.29609">
        <ele>197.49</ele>
        <time>2014-04-01T09:36:09Z</time>
      </trkpt>
      <trkpt lat="44.4587" lon="1.29601">
        <ele>199.31</ele>
        <time>2014-04-01T09:36:17Z</time>
      </trkpt>
      <trkpt lat="44.45858" lon="1.29592">
        <ele>203.52</ele>
        <time>2014-04-01T09:36:27Z</time>
      </trkpt>
      <trkpt lat="44.45848" lon="1.2959">
        <ele>206.03</ele>
        <time>2014-04-01T09:36:34Z</time>
      </trkpt>
      <trkpt lat="44.45837" lon="1.29585">
        <ele>207.46</ele>
        <time>2014-04-01T09:36:42Z</time>
      </trkpt>
      <trkpt lat="44.45824" lon="1.29583">
        <ele>209.118</ele>
        <time>2014-04-01T09:36:50Z</time>
      </trkpt>
      <trkpt lat="44.45809" lon="1.29579">
        <ele>211.04</ele>
        <time>2014-04-01T09:37:00Z</time>
      </trkpt>
      <trkpt lat="44.45792" lon="1.29578">
        <ele>212.669</ele>
        <time>2014-04-01T09:37:10Z</time>
      </trkpt>
      <trkpt lat="44.45771" lon="1.29575">
        <ele>213.999</ele>
        <time>2014-04-01T09:37:21Z</time>
      </trkpt>
      <trkpt lat="44.45752" lon="1.2957">
        <ele>215.179</ele>
        <time>2014-04-01T09:37:31Z</time>
      </trkpt>
      <trkpt lat="44.45739" lon="1.29571">
        <ele>216.949</ele>
        <time>2014-04-01T09:37:38Z</time>
      </trkpt>
      <trkpt lat="44.45722" lon="1.29572">
        <ele>218.839</ele>
        <time>2014-04-01T09:37:47Z</time>
      </trkpt>
      <trkpt lat="44.45706" lon="1.29567">
        <ele>220.77</ele>
        <time>2014-04-01T09:37:57Z</time>
      </trkpt>
      <trkpt lat="44.45697" lon="1.29559">
        <ele>222.28</ele>
        <time>2014-04-01T09:38:04Z</time>
      </trkpt>
      <trkpt lat="44.45687" lon="1.29548">
        <ele>224.219</ele>
        <time>2014-04-01T09:38:13Z</time>
      </trkpt>
      <trkpt lat="44.45677" lon="1.29534">
        <ele>226.559</ele>
        <time>2014-04-01T09:38:24Z</time>
      </trkpt>
      <trkpt lat="44.4567" lon="1.29524">
        <ele>227.777</ele>
        <time>2014-04-01T09:38:32Z</time>
      </trkpt>
      <trkpt lat="44.45662" lon="1.29514">
        <ele>229.369</ele>
        <time>2014-04-01T09:38:41Z</time>
      </trkpt>
      <trkpt lat="44.45656" lon="1.29506">
        <ele>230.589</ele>
        <time>2014-04-01T09:38:49Z</time>
      </trkpt>
      <trkpt lat="44.45653" lon="1.29501">
        <ele>231.359</ele>
        <time>2014-04-01T09:38:53Z</time>
      </trkpt>
      <trkpt lat="44.4565" lon="1.29499">
        <ele>232.109</ele>
        <time>2014-04-01T09:38:56Z</time>
      </trkpt>
      <trkpt lat="44.45645" lon="1.29493">
        <ele>233.455</ele>
        <time>2014-04-01T09:39:02Z</time>
      </trkpt>
      <trkpt lat="44.45637" lon="1.29485">
        <ele>235.278</ele>
        <time>2014-04-01T09:39:11Z</time>
      </trkpt>
      <trkpt lat="44.4563" lon="1.2948">
        <ele>236.789</ele>
        <time>2014-04-01T09:39:18Z</time>
      </trkpt>
      <trkpt lat="44.45622" lon="1.29473">
        <ele>238.689</ele>
        <time>2014-04-01T09:39:26Z</time>
      </trkpt>
      <trkpt lat="44.45613" lon="1.29468">
        <ele>239.478</ele>
        <time>2014-04-01T09:39:34Z</time>
      </trkpt>
      <trkpt lat="44.45609" lon="1.29466">
        <ele>240.179</ele>
        <time>2014-04-01T09:39:38Z</time>
      </trkpt>
      <trkpt lat="44.45602" lon="1.29466">
        <ele>241.699</ele>
        <time>2014-04-01T09:39:44Z</time>
      </trkpt>
      <trkpt lat="44.456" lon="1.29467">
        <ele>242.208</ele>
        <time>2014-04-01T09:39:46Z</time>
      </trkpt>
      <trkpt lat="44.45598" lon="1.29467">
        <ele>242.879</ele>
        <time>2014-04-01T09:39:50Z</time>
      </trkpt>
    </trkseg>
  </trk>
  <trk>
    <name><![CDATA[2014-04-01-08-18-57]]></name>
    <trkseg>
      <trkpt lat="44.45601" lon="1.29453">
        <ele>245.259</ele>
        <time>2014-04-01T09:40:20Z</time>
      </trkpt>
      <trkpt lat="44.45605" lon="1.29438">
        <ele>247.629</ele>
        <time>2014-04-01T09:40:28Z</time>
      </trkpt>
      <trkpt lat="44.45607" lon="1.29431">
        <ele>248.929</ele>
        <time>2014-04-01T09:40:33Z</time>
      </trkpt>
      <trkpt lat="44.45603" lon="1.29426">
        <ele>249.638</ele>
        <time>2014-04-01T09:40:37Z</time>
      </trkpt>
      <trkpt lat="44.45589" lon="1.29419">
        <ele>250.848</ele>
        <time>2014-04-01T09:40:45Z</time>
      </trkpt>
      <trkpt lat="44.45574" lon="1.29415">
        <ele>252.398</ele>
        <time>2014-04-01T09:40:53Z</time>
      </trkpt>
      <trkpt lat="44.45557" lon="1.29412">
        <ele>254.588</ele>
        <time>2014-04-01T09:41:02Z</time>
      </trkpt>
      <trkpt lat="44.45536" lon="1.2941">
        <ele>257.316</ele>
        <time>2014-04-01T09:41:13Z</time>
      </trkpt>
      <trkpt lat="44.4552" lon="1.29412">
        <ele>259.078</ele>
        <time>2014-04-01T09:41:22Z</time>
      </trkpt>
      <trkpt lat="44.45505" lon="1.29416">
        <ele>260.798</ele>
        <time>2014-04-01T09:41:30Z</time>
      </trkpt>
      <trkpt lat="44.45489" lon="1.2942">
        <ele>262.148</ele>
        <time>2014-04-01T09:41:39Z</time>
      </trkpt>
      <trkpt lat="44.45471" lon="1.29427">
        <ele>264.288</ele>
        <time>2014-04-01T09:41:49Z</time>
      </trkpt>
      <trkpt lat="44.45454" lon="1.29432">
        <ele>266.488</ele>
        <time>2014-04-01T09:41:59Z</time>
      </trkpt>
      <trkpt lat="44.45436" lon="1.29437">
        <ele>268.658</ele>
        <time>2014-04-01T09:42:09Z</time>
      </trkpt>
      <trkpt lat="44.45422" lon="1.29442">
        <ele>269.917</ele>
        <time>2014-04-01T09:42:17Z</time>
      </trkpt>
      <trkpt lat="44.45406" lon="1.29447">
        <ele>271.498</ele>
        <time>2014-04-01T09:42:26Z</time>
      </trkpt>
      <trkpt lat="44.45388" lon="1.29452">
        <ele>273.068</ele>
        <time>2014-04-01T09:42:36Z</time>
      </trkpt>
      <trkpt lat="44.45369" lon="1.29452">
        <ele>274.677</ele>
        <time>2014-04-01T09:42:46Z</time>
      </trkpt>
      <trkpt lat="44.45356" lon="1.29447">
        <ele>275.587</ele>
        <time>2014-04-01T09:42:54Z</time>
      </trkpt>
      <trkpt lat="44.45343" lon="1.29436">
        <ele>277.108</ele>
        <time>2014-04-01T09:43:02Z</time>
      </trkpt>
      <trkpt lat="44.45331" lon="1.2942">
        <ele>278.637</ele>
        <time>2014-04-01T09:43:11Z</time>
      </trkpt>
      <trkpt lat="44.45322" lon="1.29404">
        <ele>278.757</ele>
        <time>2014-04-01T09:43:18Z</time>
      </trkpt>
      <trkpt lat="44.45312" lon="1.29386">
        <ele>279.766</ele>
        <time>2014-04-01T09:43:26Z</time>
      </trkpt>
      <trkpt lat="44.453" lon="1.29372">
        <ele>280.016</ele>
        <time>2014-04-01T09:43:33Z</time>
      </trkpt>
      <trkpt lat="44.45282" lon="1.2936">
        <ele>279.105</ele>
        <time>2014-04-01T09:43:40Z</time>
      </trkpt>
      <trkpt lat="44.45255" lon="1.29345">
        <ele>277.205</ele>
        <time>2014-04-01T09:43:48Z</time>
      </trkpt>
      <trkpt lat="44.45224" lon="1.29329">
        <ele>276.626</ele>
        <time>2014-04-01T09:43:56Z</time>
      </trkpt>
      <trkpt lat="44.45198" lon="1.29316">
        <ele>276.807</ele>
        <time>2014-04-01T09:44:03Z</time>
      </trkpt>
      <trkpt lat="44.45165" lon="1.29298">
        <ele>277.787</ele>
        <time>2014-04-01T09:44:13Z</time>
      </trkpt>
      <trkpt lat="44.45147" lon="1.29292">
        <ele>279.766</ele>
        <time>2014-04-01T09:44:20Z</time>
      </trkpt>
      <trkpt lat="44.45135" lon="1.29304">
        <ele>280.186</ele>
        <time>2014-04-01T09:44:26Z</time>
      </trkpt>
      <trkpt lat="44.45113" lon="1.29317">
        <ele>282.367</ele>
        <time>2014-04-01T09:44:35Z</time>
      </trkpt>
      <trkpt lat="44.45096" lon="1.29326">
        <ele>284.336</ele>
        <time>2014-04-01T09:44:43Z</time>
      </trkpt>
      <trkpt lat="44.45085" lon="1.2934">
        <ele>285.626</ele>
        <time>2014-04-01T09:44:50Z</time>
      </trkpt>
      <trkpt lat="44.45076" lon="1.29359">
        <ele>286.616</ele>
        <time>2014-04-01T09:44:57Z</time>
      </trkpt>
      <trkpt lat="44.45059" lon="1.2937">
        <ele>287.396</ele>
        <time>2014-04-01T09:45:05Z</time>
      </trkpt>
      <trkpt lat="44.45052" lon="1.29372">
        <ele>287.365</ele>
        <time>2014-04-01T09:45:09Z</time>
      </trkpt>
      <trkpt lat="44.4505" lon="1.29393">
        <ele>286.765</ele>
        <time>2014-04-01T09:45:16Z</time>
      </trkpt>
      <trkpt lat="44.4505" lon="1.29407">
        <ele>286.465</ele>
        <time>2014-04-01T09:45:21Z</time>
      </trkpt>
      <trkpt lat="44.45046" lon="1.29424">
        <ele>286.465</ele>
        <time>2014-04-01T09:45:29Z</time>
      </trkpt>
      <trkpt lat="44.45046" lon="1.29424">
        <ele>286.56</ele>
        <time>2014-04-01T09:45:30Z</time>
      </trkpt>
    </trkseg>
  </trk>
  <trk>
    <name><![CDATA[2014-04-01-08-18-57]]></name>
    <trkseg>
      <trkpt lat="44.45049" lon="1.29429">
        <ele>285.504</ele>
        <time>2014-04-01T09:45:55Z</time>
      </trkpt>
      <trkpt lat="44.45052" lon="1.29446">
        <ele>284.524</ele>
        <time>2014-04-01T09:46:00Z</time>
      </trkpt>
      <trkpt lat="44.45055" lon="1.29469">
        <ele>283.254</ele>
        <time>2014-04-01T09:46:05Z</time>
      </trkpt>
      <trkpt lat="44.45059" lon="1.29499">
        <ele>282.435</ele>
        <time>2014-04-01T09:46:10Z</time>
      </trkpt>
      <trkpt lat="44.45063" lon="1.2952">
        <ele>282.675</ele>
        <time>2014-04-01T09:46:14Z</time>
      </trkpt>
      <trkpt lat="44.45065" lon="1.29542">
        <ele>281.184</ele>
        <time>2014-04-01T09:46:18Z</time>
      </trkpt>
      <trkpt lat="44.45068" lon="1.29568">
        <ele>279.313</ele>
        <time>2014-04-01T09:46:22Z</time>
      </trkpt>
      <trkpt lat="44.45058" lon="1.29582">
        <ele>276.262</ele>
        <time>2014-04-01T09:46:26Z</time>
      </trkpt>
      <trkpt lat="44.45044" lon="1.29591">
        <ele>271.531</ele>
        <time>2014-04-01T09:46:30Z</time>
      </trkpt>
      <trkpt lat="44.45047" lon="1.29606">
        <ele>266.469</ele>
        <time>2014-04-01T09:46:33Z</time>
      </trkpt>
      <trkpt lat="44.45049" lon="1.29612">
        <ele>264.669</ele>
        <time>2014-04-01T09:46:34Z</time>
      </trkpt>
      <trkpt lat="44.45059" lon="1.29631">
        <ele>259.698</ele>
        <time>2014-04-01T09:46:37Z</time>
      </trkpt>
      <trkpt lat="44.4507" lon="1.29652">
        <ele>254.69</ele>
        <time>2014-04-01T09:46:41Z</time>
      </trkpt>
      <trkpt lat="44.4506" lon="1.29661">
        <ele>251.091</ele>
        <time>2014-04-01T09:46:44Z</time>
      </trkpt>
      <trkpt lat="44.4504" lon="1.29671">
        <ele>243.778</ele>
        <time>2014-04-01T09:46:49Z</time>
      </trkpt>
      <trkpt lat="44.45037" lon="1.29673">
        <ele>242.087</ele>
        <time>2014-04-01T09:46:50Z</time>
      </trkpt>
      <trkpt lat="44.45027" lon="1.29685">
        <ele>235.739</ele>
        <time>2014-04-01T09:46:54Z</time>
      </trkpt>
      <trkpt lat="44.45031" lon="1.297">
        <ele>231.922</ele>
        <time>2014-04-01T09:46:58Z</time>
      </trkpt>
      <trkpt lat="44.45041" lon="1.29721">
        <ele>227</ele>
        <time>2014-04-01T09:47:03Z</time>
      </trkpt>
      <trkpt lat="44.45038" lon="1.29731">
        <ele>223</ele>
        <time>2014-04-01T09:47:06Z</time>
      </trkpt>
      <trkpt lat="44.45044" lon="1.29753">
        <ele>216.159</ele>
        <time>2014-04-01T09:47:11Z</time>
      </trkpt>
      <trkpt lat="44.45045" lon="1.29758">
        <ele>215.15</ele>
        <time>2014-04-01T09:47:12Z</time>
      </trkpt>
      <trkpt lat="44.45041" lon="1.29768">
        <ele>211.472</ele>
        <time>2014-04-01T09:47:16Z</time>
      </trkpt>
      <trkpt lat="44.45042" lon="1.29773">
        <ele>209.132</ele>
        <time>2014-04-01T09:47:19Z</time>
      </trkpt>
      <trkpt lat="44.45053" lon="1.29786">
        <ele>206.383</ele>
        <time>2014-04-01T09:47:24Z</time>
      </trkpt>
      <trkpt lat="44.45058" lon="1.29793">
        <ele>204.712</ele>
        <time>2014-04-01T09:47:26Z</time>
      </trkpt>
      <trkpt lat="44.45056" lon="1.29801">
        <ele>203.144</ele>
        <time>2014-04-01T09:47:30Z</time>
      </trkpt>
      <trkpt lat="44.45047" lon="1.29808">
        <ele>200.611</ele>
        <time>2014-04-01T09:47:33Z</time>
      </trkpt>
      <trkpt lat="44.45033" lon="1.29816">
        <ele>195.562</ele>
        <time>2014-04-01T09:47:38Z</time>
      </trkpt>
      <trkpt lat="44.45037" lon="1.2983">
        <ele>191.962</ele>
        <time>2014-04-01T09:47:42Z</time>
      </trkpt>
      <trkpt lat="44.45044" lon="1.29837">
        <ele>190.402</ele>
        <time>2014-04-01T09:47:44Z</time>
      </trkpt>
      <trkpt lat="44.45051" lon="1.29846">
        <ele>188.032</ele>
        <time>2014-04-01T09:47:47Z</time>
      </trkpt>
      <trkpt lat="44.45044" lon="1.29855">
        <ele>184.972</ele>
        <time>2014-04-01T09:47:51Z</time>
      </trkpt>
      <trkpt lat="44.45034" lon="1.29858">
        <ele>182.242</ele>
        <time>2014-04-01T09:47:54Z</time>
      </trkpt>
      <trkpt lat="44.45036" lon="1.29871">
        <ele>178.872</ele>
        <time>2014-04-01T09:47:58Z</time>
      </trkpt>
      <trkpt lat="44.45053" lon="1.29885">
        <ele>174.5</ele>
        <time>2014-04-01T09:48:02Z</time>
      </trkpt>
      <trkpt lat="44.45059" lon="1.29895">
        <ele>171.081</ele>
        <time>2014-04-01T09:48:06Z</time>
      </trkpt>
      <trkpt lat="44.45053" lon="1.29901">
        <ele>168.663</ele>
        <time>2014-04-01T09:48:09Z</time>
      </trkpt>
      <trkpt lat="44.45044" lon="1.29907">
        <ele>166.761</ele>
        <time>2014-04-01T09:48:11Z</time>
      </trkpt>
      <trkpt lat="44.45019" lon="1.29914">
        <ele>162.542</ele>
        <time>2014-04-01T09:48:16Z</time>
      </trkpt>
      <trkpt lat="44.45016" lon="1.29914">
        <ele>161.361</ele>
        <time>2014-04-01T09:48:17Z</time>
      </trkpt>
      <trkpt lat="44.45014" lon="1.2992">
        <ele>158.663</ele>
        <time>2014-04-01T09:48:21Z</time>
      </trkpt>
      <trkpt lat="44.45022" lon="1.29932">
        <ele>156.472</ele>
        <time>2014-04-01T09:48:24Z</time>
      </trkpt>
      <trkpt lat="44.45026" lon="1.29936">
        <ele>155.733</ele>
        <time>2014-04-01T09:48:25Z</time>
      </trkpt>
      <trkpt lat="44.45034" lon="1.29945">
        <ele>154.002</ele>
        <time>2014-04-01T09:48:27Z</time>
      </trkpt>
      <trkpt lat="44.45043" lon="1.29955">
        <ele>151.03</ele>
        <time>2014-04-01T09:48:31Z</time>
      </trkpt>
      <trkpt lat="44.45042" lon="1.29956">
        <ele>150.373</ele>
        <time>2014-04-01T09:48:32Z</time>
      </trkpt>
      <trkpt lat="44.45016" lon="1.29972">
        <ele>144.182</ele>
        <time>2014-04-01T09:48:39Z</time>
      </trkpt>
      <trkpt lat="44.45021" lon="1.29985">
        <ele>140.432</ele>
        <time>2014-04-01T09:48:43Z</time>
      </trkpt>
      <trkpt lat="44.45022" lon="1.29994">
        <ele>138.022</ele>
        <time>2014-04-01T09:48:46Z</time>
      </trkpt>
      <trkpt lat="44.45019" lon="1.29995">
        <ele>136.921</ele>
        <time>2014-04-01T09:48:47Z</time>
      </trkpt>
      <trkpt lat="44.45012" lon="1.29996">
        <ele>134.94</ele>
        <time>2014-04-01T09:48:49Z</time>
      </trkpt>
      <trkpt lat="44.4501" lon="1.30006">
        <ele>131.733</ele>
        <time>2014-04-01T09:48:53Z</time>
      </trkpt>
      <trkpt lat="44.45004" lon="1.30008">
        <ele>129.622</ele>
        <time>2014-04-01T09:48:56Z</time>
      </trkpt>
      <trkpt lat="44.45004" lon="1.30013">
        <ele>127.983</ele>
        <time>2014-04-01T09:48:58Z</time>
      </trkpt>
      <trkpt lat="44.45005" lon="1.30016">
        <ele>126.994</ele>
        <time>2014-04-01T09:49:02Z</time>
      </trkpt>
    </trkseg>
  </trk>
  <trk>
    <name><![CDATA[2014-04-01-08-18-57]]></name>
    <trkseg>
      <trkpt lat="44.45003" lon="1.30015">
        <ele>126.866</ele>
        <time>2014-04-01T09:49:09Z</time>
      </trkpt>
      <trkpt lat="44.45003" lon="1.30015">
        <ele>126.858</ele>
        <time>2014-04-01T09:49:10Z</time>
      </trkpt>
    </trkseg>
  </trk>
  <trk>
    <name><![CDATA[2014-04-01-08-18-57]]></name>
    <trkseg>
      <trkpt lat="44.44993" lon="1.30008">
        <ele>125.775</ele>
        <time>2014-04-01T09:49:52Z</time>
      </trkpt>
      <trkpt lat="44.44978" lon="1.29999">
        <ele>122.193</ele>
        <time>2014-04-01T09:49:57Z</time>
      </trkpt>
      <trkpt lat="44.44969" lon="1.29987">
        <ele>121.104</ele>
        <time>2014-04-01T09:50:00Z</time>
      </trkpt>
      <trkpt lat="44.44967" lon="1.29983">
        <ele>120.944</ele>
        <time>2014-04-01T09:50:01Z</time>
      </trkpt>
      <trkpt lat="44.44954" lon="1.29954">
        <ele>121.457</ele>
        <time>2014-04-01T09:50:09Z</time>
      </trkpt>
      <trkpt lat="44.44948" lon="1.2994">
        <ele>122.547</ele>
        <time>2014-04-01T09:50:14Z</time>
      </trkpt>
      <trkpt lat="44.4494" lon="1.29923">
        <ele>124.367</ele>
        <time>2014-04-01T09:50:19Z</time>
      </trkpt>
      <trkpt lat="44.44932" lon="1.29903">
        <ele>128.028</ele>
        <time>2014-04-01T09:50:24Z</time>
      </trkpt>
      <trkpt lat="44.44927" lon="1.29889">
        <ele>129.757</ele>
        <time>2014-04-01T09:50:28Z</time>
      </trkpt>
      <trkpt lat="44.44915" lon="1.29869">
        <ele>131.326</ele>
        <time>2014-04-01T09:50:34Z</time>
      </trkpt>
      <trkpt lat="44.44897" lon="1.29846">
        <ele>131.406</ele>
        <time>2014-04-01T09:50:40Z</time>
      </trkpt>
      <trkpt lat="44.44886" lon="1.29837">
        <ele>130.345</ele>
        <time>2014-04-01T09:50:43Z</time>
      </trkpt>
      <trkpt lat="44.44878" lon="1.29831">
        <ele>129.465</ele>
        <time>2014-04-01T09:50:45Z</time>
      </trkpt>
      <trkpt lat="44.44863" lon="1.29817">
        <ele>129.065</ele>
        <time>2014-04-01T09:50:49Z</time>
      </trkpt>
      <trkpt lat="44.44853" lon="1.29809">
        <ele>129.365</ele>
        <time>2014-04-01T09:50:52Z</time>
      </trkpt>
      <trkpt lat="44.44835" lon="1.29806">
        <ele>128.855</ele>
        <time>2014-04-01T09:50:57Z</time>
      </trkpt>
      <trkpt lat="44.4482" lon="1.29806">
        <ele>128.404</ele>
        <time>2014-04-01T09:51:01Z</time>
      </trkpt>
      <trkpt lat="44.44807" lon="1.29809">
        <ele>127.354</ele>
        <time>2014-04-01T09:51:04Z</time>
      </trkpt>
      <trkpt lat="44.44781" lon="1.29822">
        <ele>126.185</ele>
        <time>2014-04-01T09:51:11Z</time>
      </trkpt>
      <trkpt lat="44.4478" lon="1.29823">
        <ele>126.646</ele>
        <time>2014-04-01T09:51:12Z</time>
      </trkpt>
      <trkpt lat="44.44772" lon="1.2982">
        <ele>126.446</ele>
        <time>2014-04-01T09:51:16Z</time>
      </trkpt>
      <trkpt lat="44.44752" lon="1.29802">
        <ele>126.485</ele>
        <time>2014-04-01T09:51:25Z</time>
      </trkpt>
      <trkpt lat="44.44732" lon="1.29786">
        <ele>127.025</ele>
        <time>2014-04-01T09:51:32Z</time>
      </trkpt>
      <trkpt lat="44.4471" lon="1.29767">
        <ele>127.785</ele>
        <time>2014-04-01T09:51:39Z</time>
      </trkpt>
      <trkpt lat="44.44686" lon="1.29745">
        <ele>128.585</ele>
        <time>2014-04-01T09:51:47Z</time>
      </trkpt>
      <trkpt lat="44.44661" lon="1.29723">
        <ele>129.095</ele>
        <time>2014-04-01T09:51:55Z</time>
      </trkpt>
      <trkpt lat="44.44632" lon="1.29699">
        <ele>130.027</ele>
        <time>2014-04-01T09:52:04Z</time>
      </trkpt>
      <trkpt lat="44.44593" lon="1.29662">
        <ele>131.595</ele>
        <time>2014-04-01T09:52:17Z</time>
      </trkpt>
      <trkpt lat="44.44566" lon="1.29627">
        <ele>131.203</ele>
        <time>2014-04-01T09:52:27Z</time>
      </trkpt>
      <trkpt lat="44.44552" lon="1.29605">
        <ele>131.513</ele>
        <time>2014-04-01T09:52:32Z</time>
      </trkpt>
      <trkpt lat="44.4453" lon="1.29567">
        <ele>129.812</ele>
        <time>2014-04-01T09:52:40Z</time>
      </trkpt>
      <trkpt lat="44.44519" lon="1.29533">
        <ele>129.192</ele>
        <time>2014-04-01T09:52:46Z</time>
      </trkpt>
      <trkpt lat="44.44516" lon="1.29515">
        <ele>129.142</ele>
        <time>2014-04-01T09:52:49Z</time>
      </trkpt>
      <trkpt lat="44.44519" lon="1.29473">
        <ele>128.593</ele>
        <time>2014-04-01T09:52:56Z</time>
      </trkpt>
      <trkpt lat="44.44523" lon="1.29437">
        <ele>129.323</ele>
        <time>2014-04-01T09:53:02Z</time>
      </trkpt>
      <trkpt lat="44.44518" lon="1.29402">
        <ele>128.852</ele>
        <time>2014-04-01T09:53:08Z</time>
      </trkpt>
      <trkpt lat="44.44498" lon="1.29343">
        <ele>129.963</ele>
        <time>2014-04-01T09:53:19Z</time>
      </trkpt>
      <trkpt lat="44.44478" lon="1.2929">
        <ele>133.013</ele>
        <time>2014-04-01T09:53:29Z</time>
      </trkpt>
      <trkpt lat="44.4446" lon="1.29252">
        <ele>135.183</ele>
        <time>2014-04-01T09:53:37Z</time>
      </trkpt>
      <trkpt lat="44.44445" lon="1.29226">
        <ele>137.353</ele>
        <time>2014-04-01T09:53:43Z</time>
      </trkpt>
      <trkpt lat="44.44428" lon="1.29191">
        <ele>138.523</ele>
        <time>2014-04-01T09:53:51Z</time>
      </trkpt>
      <trkpt lat="44.44417" lon="1.29163">
        <ele>139.673</ele>
        <time>2014-04-01T09:53:57Z</time>
      </trkpt>
      <trkpt lat="44.44409" lon="1.29138">
        <ele>139.872</ele>
        <time>2014-04-01T09:54:02Z</time>
      </trkpt>
      <trkpt lat="44.44399" lon="1.29099">
        <ele>139.651</ele>
        <time>2014-04-01T09:54:10Z</time>
      </trkpt>
      <trkpt lat="44.44392" lon="1.29073">
        <ele>139.572</ele>
        <time>2014-04-01T09:54:16Z</time>
      </trkpt>
      <trkpt lat="44.44384" lon="1.29045">
        <ele>142.122</ele>
        <time>2014-04-01T09:54:23Z</time>
      </trkpt>
      <trkpt lat="44.44378" lon="1.29047">
        <ele>142.962</ele>
        <time>2014-04-01T09:54:27Z</time>
      </trkpt>
      <trkpt lat="44.44371" lon="1.29047">
        <ele>143.071</ele>
        <time>2014-04-01T09:54:30Z</time>
      </trkpt>
      <trkpt lat="44.44365" lon="1.29045">
        <ele>143.482</ele>
        <time>2014-04-01T09:54:32Z</time>
      </trkpt>
      <trkpt lat="44.44341" lon="1.29048">
        <ele>142.281</ele>
        <time>2014-04-01T09:54:39Z</time>
      </trkpt>
      <trkpt lat="44.44337" lon="1.29049">
        <ele>141.86</ele>
        <time>2014-04-01T09:54:40Z</time>
      </trkpt>
      <trkpt lat="44.44324" lon="1.29047">
        <ele>141.471</ele>
        <time>2014-04-01T09:54:43Z</time>
      </trkpt>
      <trkpt lat="44.44314" lon="1.29045">
        <ele>140.871</ele>
        <time>2014-04-01T09:54:45Z</time>
      </trkpt>
      <trkpt lat="44.44299" lon="1.29041">
        <ele>139.43</ele>
        <time>2014-04-01T09:54:48Z</time>
      </trkpt>
      <trkpt lat="44.44269" lon="1.29027">
        <ele>136.17</ele>
        <time>2014-04-01T09:54:55Z</time>
      </trkpt>
      <trkpt lat="44.44254" lon="1.29028">
        <ele>135.79</ele>
        <time>2014-04-01T09:54:59Z</time>
      </trkpt>
      <trkpt lat="44.44235" lon="1.29037">
        <ele>136.291</ele>
        <time>2014-04-01T09:55:04Z</time>
      </trkpt>
      <trkpt lat="44.44224" lon="1.29046">
        <ele>136.092</ele>
        <time>2014-04-01T09:55:08Z</time>
      </trkpt>
      <trkpt lat="44.44206" lon="1.29055">
        <ele>136.012</ele>
        <time>2014-04-01T09:55:14Z</time>
      </trkpt>
      <trkpt lat="44.44197" lon="1.29062">
        <ele>134.821</ele>
        <time>2014-04-01T09:55:18Z</time>
      </trkpt>
      <trkpt lat="44.44188" lon="1.29071">
        <ele>136.043</ele>
        <time>2014-04-01T09:55:22Z</time>
      </trkpt>
      <trkpt lat="44.44178" lon="1.2908">
        <ele>136.932</ele>
        <time>2014-04-01T09:55:26Z</time>
      </trkpt>
      <trkpt lat="44.44162" lon="1.29085">
        <ele>136.932</ele>
        <time>2014-04-01T09:55:31Z</time>
      </trkpt>
      <trkpt lat="44.44148" lon="1.29085">
        <ele>138.242</ele>
        <time>2014-04-01T09:55:36Z</time>
      </trkpt>
      <trkpt lat="44.44135" lon="1.29096">
        <ele>139.092</ele>
        <time>2014-04-01T09:55:42Z</time>
      </trkpt>
      <trkpt lat="44.44121" lon="1.29107">
        <ele>139.061</ele>
        <time>2014-04-01T09:55:49Z</time>
      </trkpt>
      <trkpt lat="44.44108" lon="1.29108">
        <ele>137.871</ele>
        <time>2014-04-01T09:55:54Z</time>
      </trkpt>
      <trkpt lat="44.44089" lon="1.29102">
        <ele>136.991</ele>
        <time>2014-04-01T09:56:02Z</time>
      </trkpt>
      <trkpt lat="44.44075" lon="1.29098">
        <ele>137.611</ele>
        <time>2014-04-01T09:56:08Z</time>
      </trkpt>
      <trkpt lat="44.44056" lon="1.291">
        <ele>137.761</ele>
        <time>2014-04-01T09:56:15Z</time>
      </trkpt>
      <trkpt lat="44.44043" lon="1.291">
        <ele>138.802</ele>
        <time>2014-04-01T09:56:21Z</time>
      </trkpt>
      <trkpt lat="44.44028" lon="1.29101">
        <ele>138.93</ele>
        <time>2014-04-01T09:56:27Z</time>
      </trkpt>
      <trkpt lat="44.44005" lon="1.29101">
        <ele>140.141</ele>
        <time>2014-04-01T09:56:36Z</time>
      </trkpt>
      <trkpt lat="44.43991" lon="1.29103">
        <ele>141.801</ele>
        <time>2014-04-01T09:56:42Z</time>
      </trkpt>
      <trkpt lat="44.43979" lon="1.29108">
        <ele>142.491</ele>
        <time>2014-04-01T09:56:47Z</time>
      </trkpt>
      <trkpt lat="44.43965" lon="1.29113">
        <ele>144.621</ele>
        <time>2014-04-01T09:56:53Z</time>
      </trkpt>
      <trkpt lat="44.43951" lon="1.2912">
        <ele>146.942</ele>
        <time>2014-04-01T09:57:00Z</time>
      </trkpt>
      <trkpt lat="44.43936" lon="1.29127">
        <ele>145.689</ele>
        <time>2014-04-01T09:57:06Z</time>
      </trkpt>
      <trkpt lat="44.43929" lon="1.2913">
        <ele>145.199</ele>
        <time>2014-04-01T09:57:08Z</time>
      </trkpt>
      <trkpt lat="44.43905" lon="1.29156">
        <ele>145.59</ele>
        <time>2014-04-01T09:57:15Z</time>
      </trkpt>
      <trkpt lat="44.43899" lon="1.29165">
        <ele>145.5</ele>
        <time>2014-04-01T09:57:17Z</time>
      </trkpt>
      <trkpt lat="44.4389" lon="1.29193">
        <ele>147.731</ele>
        <time>2014-04-01T09:57:22Z</time>
      </trkpt>
      <trkpt lat="44.43882" lon="1.29209">
        <ele>148.12</ele>
        <time>2014-04-01T09:57:27Z</time>
      </trkpt>
      <trkpt lat="44.43881" lon="1.2921">
        <ele>148.432</ele>
        <time>2014-04-01T09:57:29Z</time>
      </trkpt>
    </trkseg>
  </trk>
  <trk>
    <name><![CDATA[2014-04-01-08-18-57]]></name>
    <trkseg>
      <trkpt lat="44.43881" lon="1.29207">
        <ele>148.359</ele>
        <time>2014-04-01T09:57:41Z</time>
      </trkpt>
      <trkpt lat="44.43885" lon="1.29201">
        <ele>146.989</ele>
        <time>2014-04-01T09:57:45Z</time>
      </trkpt>
      <trkpt lat="44.43887" lon="1.29197">
        <ele>146.158</ele>
        <time>2014-04-01T09:57:49Z</time>
      </trkpt>
      <trkpt lat="44.43886" lon="1.292">
        <ele>146.129</ele>
        <time>2014-04-01T09:57:52Z</time>
      </trkpt>
      <trkpt lat="44.43878" lon="1.29208">
        <ele>146.13</ele>
        <time>2014-04-01T09:57:57Z</time>
      </trkpt>
      <trkpt lat="44.43873" lon="1.29218">
        <ele>143.688</ele>
        <time>2014-04-01T09:58:03Z</time>
      </trkpt>
      <trkpt lat="44.43872" lon="1.29219">
        <ele>142.718</ele>
        <time>2014-04-01T09:58:05Z</time>
      </trkpt>
      <trkpt lat="44.43858" lon="1.29221">
        <ele>143.37</ele>
        <time>2014-04-01T09:58:11Z</time>
      </trkpt>
      <trkpt lat="44.43847" lon="1.2922">
        <ele>142.57</ele>
        <time>2014-04-01T09:58:15Z</time>
      </trkpt>
      <trkpt lat="44.43833" lon="1.29233">
        <ele>143.22</ele>
        <time>2014-04-01T09:58:20Z</time>
      </trkpt>
      <trkpt lat="44.43826" lon="1.2924">
        <ele>144.03</ele>
        <time>2014-04-01T09:58:24Z</time>
      </trkpt>
      <trkpt lat="44.43824" lon="1.2924">
        <ele>143.94</ele>
        <time>2014-04-01T09:58:25Z</time>
      </trkpt>
      <trkpt lat="44.43809" lon="1.29237">
        <ele>143.061</ele>
        <time>2014-04-01T09:58:31Z</time>
      </trkpt>
      <trkpt lat="44.438" lon="1.29234">
        <ele>144.201</ele>
        <time>2014-04-01T09:58:35Z</time>
      </trkpt>
      <trkpt lat="44.43789" lon="1.29227">
        <ele>145.55</ele>
        <time>2014-04-01T09:58:41Z</time>
      </trkpt>
      <trkpt lat="44.4377" lon="1.29217">
        <ele>144.48</ele>
        <time>2014-04-01T09:58:48Z</time>
      </trkpt>
      <trkpt lat="44.43756" lon="1.29211">
        <ele>144.529</ele>
        <time>2014-04-01T09:58:54Z</time>
      </trkpt>
      <trkpt lat="44.43735" lon="1.29205">
        <ele>145.77</ele>
        <time>2014-04-01T09:59:01Z</time>
      </trkpt>
      <trkpt lat="44.43715" lon="1.29203">
        <ele>145.529</ele>
        <time>2014-04-01T09:59:08Z</time>
      </trkpt>
      <trkpt lat="44.43701" lon="1.29202">
        <ele>144.969</ele>
        <time>2014-04-01T09:59:13Z</time>
      </trkpt>
      <trkpt lat="44.43686" lon="1.29205">
        <ele>145.859</ele>
        <time>2014-04-01T09:59:18Z</time>
      </trkpt>
      <trkpt lat="44.43677" lon="1.29209">
        <ele>146.65</ele>
        <time>2014-04-01T09:59:23Z</time>
      </trkpt>
      <trkpt lat="44.43669" lon="1.29212">
        <ele>149.579</ele>
        <time>2014-04-01T09:59:30Z</time>
      </trkpt>
      <trkpt lat="44.43667" lon="1.29214">
        <ele>149.519</ele>
        <time>2014-04-01T09:59:36Z</time>
      </trkpt>
      <trkpt lat="44.43667" lon="1.29213">
        <ele>149.308</ele>
        <time>2014-04-01T09:59:37Z</time>
      </trkpt>
      <trkpt lat="44.43669" lon="1.29213">
        <ele>148.508</ele>
        <time>2014-04-01T09:59:40Z</time>
      </trkpt>
      <trkpt lat="44.43667" lon="1.29222">
        <ele>148.282</ele>
        <time>2014-04-01T09:59:46Z</time>
      </trkpt>
    </trkseg>
  </trk>
  <trk>
    <name><![CDATA[2014-04-01-08-18-57]]></name>
    <trkseg>
      <trkpt lat="44.43669" lon="1.29226">
        <ele>148.646</ele>
        <time>2014-04-01T09:59:55Z</time>
      </trkpt>
      <trkpt lat="44.4367" lon="1.29227">
        <ele>147.68</ele>
        <time>2014-04-01T09:59:57Z</time>
      </trkpt>
    </trkseg>
  </trk>
  <trk>
    <name><![CDATA[2014-04-01-08-18-57]]></name>
    <trkseg>
      <trkpt lat="44.43672" lon="1.29226">
        <ele>146.475</ele>
        <time>2014-04-01T10:00:01Z</time>
      </trkpt>
    </trkseg>
  </trk>
  <trk>
    <name><![CDATA[2014-04-01-08-18-57]]></name>
    <trkseg>
      <trkpt lat="44.43676" lon="1.29227">
        <ele>145.714</ele>
        <time>2014-04-01T10:00:06Z</time>
      </trkpt>
      <trkpt lat="44.43678" lon="1.29225">
        <ele>148.312</ele>
        <time>2014-04-01T10:00:09Z</time>
      </trkpt>
    </trkseg>
  </trk>
  <trk>
    <name><![CDATA[2014-04-01-08-18-57]]></name>
    <trkseg>
      <trkpt lat="44.43682" lon="1.2922">
        <ele>151.389</ele>
        <time>2014-04-01T10:00:15Z</time>
      </trkpt>
      <trkpt lat="44.43683" lon="1.29218">
        <ele>151.065</ele>
        <time>2014-04-01T10:00:16Z</time>
      </trkpt>
      <trkpt lat="44.43687" lon="1.29217">
        <ele>151.147</ele>
        <time>2014-04-01T10:00:20Z</time>
      </trkpt>
    </trkseg>
  </trk>
  <trk>
    <name><![CDATA[2014-04-01-08-18-57]]></name>
    <trkseg>
      <trkpt lat="44.43687" lon="1.29221">
        <ele>148.208</ele>
        <time>2014-04-01T10:00:29Z</time>
      </trkpt>
      <trkpt lat="44.43687" lon="1.29221">
        <ele>148.509</ele>
        <time>2014-04-01T10:00:31Z</time>
      </trkpt>
    </trkseg>
  </trk>
  <trk>
    <name><![CDATA[2014-04-01-08-18-57]]></name>
    <trkseg>
      <trkpt lat="44.43688" lon="1.29219">
        <ele>151.913</ele>
        <time>2014-04-01T10:00:42Z</time>
      </trkpt>
    </trkseg>
  </trk>
  <trk>
    <name><![CDATA[2014-04-01-08-18-57]]></name>
    <trkseg>
      <trkpt lat="44.43691" lon="1.2922">
        <ele>151.113</ele>
        <time>2014-04-01T10:00:48Z</time>
      </trkpt>
      <trkpt lat="44.43693" lon="1.29221">
        <ele>150.812</ele>
        <time>2014-04-01T10:00:52Z</time>
      </trkpt>
    </trkseg>
  </trk>
  <trk>
    <name><![CDATA[2014-04-01-08-18-57]]></name>
    <trkseg>
      <trkpt lat="44.43697" lon="1.29222">
        <ele>147.003</ele>
        <time>2014-04-01T10:01:01Z</time>
      </trkpt>
      <trkpt lat="44.43703" lon="1.2922">
        <ele>145.146</ele>
        <time>2014-04-01T10:01:06Z</time>
      </trkpt>
    </trkseg>
  </trk>
  <trk>
    <name><![CDATA[2014-04-01-08-18-57]]></name>
    <trkseg>
      <trkpt lat="44.43707" lon="1.29222">
        <ele>142.085</ele>
        <time>2014-04-01T10:01:10Z</time>
      </trkpt>
      <trkpt lat="44.43712" lon="1.29233">
        <ele>143.688</ele>
        <time>2014-04-01T10:01:16Z</time>
      </trkpt>
      <trkpt lat="44.43717" lon="1.29243">
        <ele>143.207</ele>
        <time>2014-04-01T10:01:22Z</time>
      </trkpt>
      <trkpt lat="44.4372" lon="1.29245">
        <ele>142.506</ele>
        <time>2014-04-01T10:01:24Z</time>
      </trkpt>
      <trkpt lat="44.43728" lon="1.29261">
        <ele>142.637</ele>
        <time>2014-04-01T10:01:31Z</time>
      </trkpt>
      <trkpt lat="44.4373" lon="1.29277">
        <ele>144.817</ele>
        <time>2014-04-01T10:01:38Z</time>
      </trkpt>
      <trkpt lat="44.43729" lon="1.29283">
        <ele>148.238</ele>
        <time>2014-04-01T10:01:43Z</time>
      </trkpt>
      <trkpt lat="44.4373" lon="1.29284">
        <ele>149.699</ele>
        <time>2014-04-01T10:01:46Z</time>
      </trkpt>
    </trkseg>
  </trk>
  <trk>
    <name><![CDATA[2014-04-01-08-18-57]]></name>
    <trkseg>
      <trkpt lat="44.43731" lon="1.29288">
        <ele>152.767</ele>
        <time>2014-04-01T10:01:55Z</time>
      </trkpt>
    </trkseg>
  </trk>
  <trk>
    <name><![CDATA[2014-04-01-08-18-57]]></name>
    <trkseg>
      <trkpt lat="44.43729" lon="1.29289">
        <ele>153.801</ele>
        <time>2014-04-01T10:01:59Z</time>
      </trkpt>
      <trkpt lat="44.43729" lon="1.2929">
        <ele>153.774</ele>
        <time>2014-04-01T10:02:01Z</time>
      </trkpt>
    </trkseg>
  </trk>
  <trk>
    <name><![CDATA[2014-04-01-08-18-57]]></name>
    <trkseg>
      <trkpt lat="44.43731" lon="1.29292">
        <ele>154.11</ele>
        <time>2014-04-01T10:02:06Z</time>
      </trkpt>
      <trkpt lat="44.43732" lon="1.29293">
        <ele>155.986</ele>
        <time>2014-04-01T10:02:11Z</time>
      </trkpt>
    </trkseg>
  </trk>
  <trk>
    <name><![CDATA[2014-04-01-08-18-57]]></name>
    <trkseg>
      <trkpt lat="44.4373" lon="1.29297">
        <ele>158.961</ele>
        <time>2014-04-01T10:02:56Z</time>
      </trkpt>
      <trkpt lat="44.4373" lon="1.29298">
        <ele>160.578</ele>
        <time>2014-04-01T10:02:58Z</time>
      </trkpt>
    </trkseg>
  </trk>
  <trk>
    <name><![CDATA[2014-04-01-08-18-57]]></name>
    <trkseg>
      <trkpt lat="44.43729" lon="1.293">
        <ele>164.062</ele>
        <time>2014-04-01T10:03:02Z</time>
      </trkpt>
    </trkseg>
  </trk>
  <trk>
    <name><![CDATA[2014-04-01-08-18-57]]></name>
    <trkseg>
      <trkpt lat="44.43728" lon="1.29305">
        <ele>161.218</ele>
        <time>2014-04-01T10:03:21Z</time>
      </trkpt>
    </trkseg>
  </trk>
  <trk>
    <name><![CDATA[2014-04-01-08-18-57]]></name>
    <trkseg>
      <trkpt lat="44.43723" lon="1.29314">
        <ele>156.629</ele>
        <time>2014-04-01T10:03:48Z</time>
      </trkpt>
      <trkpt lat="44.4372" lon="1.2932">
        <ele>157.36</ele>
        <time>2014-04-01T10:03:58Z</time>
      </trkpt>
      <trkpt lat="44.4372" lon="1.29321">
        <ele>157.629</ele>
        <time>2014-04-01T10:03:59Z</time>
      </trkpt>
    </trkseg>
  </trk>
  <trk>
    <name><![CDATA[2014-04-01-08-18-57]]></name>
    <trkseg>
      <trkpt lat="44.43715" lon="1.29323">
        <ele>152.211</ele>
        <time>2014-04-01T10:04:14Z</time>
      </trkpt>
      <trkpt lat="44.43715" lon="1.29323">
        <ele>151.979</ele>
        <time>2014-04-01T10:04:15Z</time>
      </trkpt>
    </trkseg>
  </trk>
  <trk>
    <name><![CDATA[2014-04-01-08-18-57]]></name>
    <trkseg>
      <trkpt lat="44.43712" lon="1.29334">
        <ele>155.4</ele>
        <time>2014-04-01T10:04:29Z</time>
      </trkpt>
      <trkpt lat="44.43709" lon="1.29342">
        <ele>157.231</ele>
        <time>2014-04-01T10:04:34Z</time>
      </trkpt>
      <trkpt lat="44.43708" lon="1.29343">
        <ele>157.971</ele>
        <time>2014-04-01T10:04:35Z</time>
      </trkpt>
      <trkpt lat="44.43702" lon="1.29352">
        <ele>162.203</ele>
        <time>2014-04-01T10:04:42Z</time>
      </trkpt>
      <trkpt lat="44.43699" lon="1.29359">
        <ele>164.181</ele>
        <time>2014-04-01T10:04:47Z</time>
      </trkpt>
      <trkpt lat="44.43691" lon="1.29374">
        <ele>166.611</ele>
        <time>2014-04-01T10:04:55Z</time>
      </trkpt>
      <trkpt lat="44.43685" lon="1.29387">
        <ele>168.151</ele>
        <time>2014-04-01T10:05:02Z</time>
      </trkpt>
      <trkpt lat="44.43683" lon="1.29402">
        <ele>166.669</ele>
        <time>2014-04-01T10:05:09Z</time>
      </trkpt>
      <trkpt lat="44.4368" lon="1.29415">
        <ele>167.309</ele>
        <time>2014-04-01T10:05:15Z</time>
      </trkpt>
      <trkpt lat="44.43678" lon="1.29425">
        <ele>168.16</ele>
        <time>2014-04-01T10:05:21Z</time>
      </trkpt>
      <trkpt lat="44.43678" lon="1.29439">
        <ele>168.119</ele>
        <time>2014-04-01T10:05:27Z</time>
      </trkpt>
      <trkpt lat="44.43677" lon="1.29449">
        <ele>170.53</ele>
        <time>2014-04-01T10:05:32Z</time>
      </trkpt>
      <trkpt lat="44.43675" lon="1.29461">
        <ele>174.271</ele>
        <time>2014-04-01T10:05:39Z</time>
      </trkpt>
      <trkpt lat="44.43673" lon="1.29475">
        <ele>177.021</ele>
        <time>2014-04-01T10:05:46Z</time>
      </trkpt>
      <trkpt lat="44.43671" lon="1.29487">
        <ele>180.641</ele>
        <time>2014-04-01T10:05:53Z</time>
      </trkpt>
      <trkpt lat="44.43672" lon="1.29498">
        <ele>182.13</ele>
        <time>2014-04-01T10:05:59Z</time>
      </trkpt>
      <trkpt lat="44.43673" lon="1.29511">
        <ele>184.3</ele>
        <time>2014-04-01T10:06:05Z</time>
      </trkpt>
      <trkpt lat="44.43671" lon="1.29526">
        <ele>180.889</ele>
        <time>2014-04-01T10:06:12Z</time>
      </trkpt>
      <trkpt lat="44.43665" lon="1.29539">
        <ele>183.431</ele>
        <time>2014-04-01T10:06:20Z</time>
      </trkpt>
      <trkpt lat="44.43658" lon="1.29552">
        <ele>185.751</ele>
        <time>2014-04-01T10:06:28Z</time>
      </trkpt>
      <trkpt lat="44.43654" lon="1.29563">
        <ele>187.931</ele>
        <time>2014-04-01T10:06:35Z</time>
      </trkpt>
      <trkpt lat="44.4365" lon="1.2957">
        <ele>189.431</ele>
        <time>2014-04-01T10:06:39Z</time>
      </trkpt>
      <trkpt lat="44.43646" lon="1.29577">
        <ele>192.431</ele>
        <time>2014-04-01T10:06:44Z</time>
      </trkpt>
      <trkpt lat="44.43644" lon="1.29581">
        <ele>194.872</ele>
        <time>2014-04-01T10:06:47Z</time>
      </trkpt>
      <trkpt lat="44.43636" lon="1.29591">
        <ele>197.571</ele>
        <time>2014-04-01T10:06:57Z</time>
      </trkpt>
      <trkpt lat="44.43629" lon="1.29595">
        <ele>196.72</ele>
        <time>2014-04-01T10:07:04Z</time>
      </trkpt>
      <trkpt lat="44.43627" lon="1.29596">
        <ele>196.63</ele>
        <time>2014-04-01T10:07:06Z</time>
      </trkpt>
      <trkpt lat="44.43619" lon="1.296">
        <ele>196.75</ele>
        <time>2014-04-01T10:07:13Z</time>
      </trkpt>
      <trkpt lat="44.43611" lon="1.29604">
        <ele>197.75</ele>
        <time>2014-04-01T10:07:21Z</time>
      </trkpt>
      <trkpt lat="44.43604" lon="1.29607">
        <ele>197.9</ele>
        <time>2014-04-01T10:07:28Z</time>
      </trkpt>
      <trkpt lat="44.43595" lon="1.29611">
        <ele>198.631</ele>
        <time>2014-04-01T10:07:36Z</time>
      </trkpt>
      <trkpt lat="44.43587" lon="1.29613">
        <ele>198.87</ele>
        <time>2014-04-01T10:07:42Z</time>
      </trkpt>
      <trkpt lat="44.43578" lon="1.29614">
        <ele>199.99</ele>
        <time>2014-04-01T10:07:49Z</time>
      </trkpt>
      <trkpt lat="44.4357" lon="1.29615">
        <ele>201.19</ele>
        <time>2014-04-01T10:07:55Z</time>
      </trkpt>
      <trkpt lat="44.43561" lon="1.29618">
        <ele>202.26</ele>
        <time>2014-04-01T10:08:02Z</time>
      </trkpt>
      <trkpt lat="44.43551" lon="1.2962">
        <ele>204.361</ele>
        <time>2014-04-01T10:08:09Z</time>
      </trkpt>
      <trkpt lat="44.43541" lon="1.29623">
        <ele>205.5</ele>
        <time>2014-04-01T10:08:15Z</time>
      </trkpt>
      <trkpt lat="44.4353" lon="1.29632">
        <ele>204.45</ele>
        <time>2014-04-01T10:08:22Z</time>
      </trkpt>
      <trkpt lat="44.43528" lon="1.2964">
        <ele>204.46</ele>
        <time>2014-04-01T10:08:26Z</time>
      </trkpt>
      <trkpt lat="44.43527" lon="1.29642">
        <ele>205.727</ele>
        <time>2014-04-01T10:08:29Z</time>
      </trkpt>
    </trkseg>
  </trk>
  <trk>
    <name><![CDATA[2014-04-01-08-18-57]]></name>
    <trkseg>
      <trkpt lat="44.43523" lon="1.29645">
        <ele>213.829</ele>
        <time>2014-04-01T10:09:11Z</time>
      </trkpt>
      <trkpt lat="44.43524" lon="1.29658">
        <ele>208.339</ele>
        <time>2014-04-01T10:09:16Z</time>
      </trkpt>
      <trkpt lat="44.43514" lon="1.29672">
        <ele>208.06</ele>
        <time>2014-04-01T10:09:25Z</time>
      </trkpt>
      <trkpt lat="44.43501" lon="1.29683">
        <ele>207.95</ele>
        <time>2014-04-01T10:09:33Z</time>
      </trkpt>
      <trkpt lat="44.43489" lon="1.29694">
        <ele>210.071</ele>
        <time>2014-04-01T10:09:42Z</time>
      </trkpt>
      <trkpt lat="44.43481" lon="1.29701">
        <ele>211.75</ele>
        <time>2014-04-01T10:09:49Z</time>
      </trkpt>
      <trkpt lat="44.43467" lon="1.29714">
        <ele>210.5</ele>
        <time>2014-04-01T10:09:58Z</time>
      </trkpt>
      <trkpt lat="44.43453" lon="1.29729">
        <ele>211.93</ele>
        <time>2014-04-01T10:10:07Z</time>
      </trkpt>
      <trkpt lat="44.43445" lon="1.29746">
        <ele>212.75</ele>
        <time>2014-04-01T10:10:15Z</time>
      </trkpt>
      <trkpt lat="44.43441" lon="1.29756">
        <ele>213.61</ele>
        <time>2014-04-01T10:10:20Z</time>
      </trkpt>
      <trkpt lat="44.43445" lon="1.29762">
        <ele>214.96</ele>
        <time>2014-04-01T10:10:25Z</time>
      </trkpt>
      <trkpt lat="44.43448" lon="1.29761">
        <ele>214.87</ele>
        <time>2014-04-01T10:10:27Z</time>
      </trkpt>
      <trkpt lat="44.43466" lon="1.2975">
        <ele>219.4</ele>
        <time>2014-04-01T10:10:40Z</time>
      </trkpt>
      <trkpt lat="44.43481" lon="1.29744">
        <ele>222.349</ele>
        <time>2014-04-01T10:10:49Z</time>
      </trkpt>
      <trkpt lat="44.43486" lon="1.29743">
        <ele>222.809</ele>
        <time>2014-04-01T10:10:53Z</time>
      </trkpt>
      <trkpt lat="44.43497" lon="1.29738">
        <ele>224.969</ele>
        <time>2014-04-01T10:11:01Z</time>
      </trkpt>
      <trkpt lat="44.43508" lon="1.29733">
        <ele>226.739</ele>
        <time>2014-04-01T10:11:09Z</time>
      </trkpt>
      <trkpt lat="44.4351" lon="1.29733">
        <ele>227.099</ele>
        <time>2014-04-01T10:11:11Z</time>
      </trkpt>
      <trkpt lat="44.43511" lon="1.29739">
        <ele>228.009</ele>
        <time>2014-04-01T10:11:16Z</time>
      </trkpt>
      <trkpt lat="44.43499" lon="1.29749">
        <ele>229.189</ele>
        <time>2014-04-01T10:11:24Z</time>
      </trkpt>
      <trkpt lat="44.43489" lon="1.29759">
        <ele>229.32</ele>
        <time>2014-04-01T10:11:31Z</time>
      </trkpt>
      <trkpt lat="44.43475" lon="1.29775">
        <ele>230.049</ele>
        <time>2014-04-01T10:11:40Z</time>
      </trkpt>
      <trkpt lat="44.43467" lon="1.29788">
        <ele>231.06</ele>
        <time>2014-04-01T10:11:46Z</time>
      </trkpt>
      <trkpt lat="44.43457" lon="1.29805">
        <ele>232.78</ele>
        <time>2014-04-01T10:11:54Z</time>
      </trkpt>
      <trkpt lat="44.43444" lon="1.29833">
        <ele>231.43</ele>
        <time>2014-04-01T10:12:06Z</time>
      </trkpt>
      <trkpt lat="44.43436" lon="1.29853">
        <ele>231.17</ele>
        <time>2014-04-01T10:12:14Z</time>
      </trkpt>
      <trkpt lat="44.4343" lon="1.29869">
        <ele>231.479</ele>
        <time>2014-04-01T10:12:21Z</time>
      </trkpt>
      <trkpt lat="44.43426" lon="1.29885">
        <ele>231.079</ele>
        <time>2014-04-01T10:12:27Z</time>
      </trkpt>
      <trkpt lat="44.43421" lon="1.29904">
        <ele>231.279</ele>
        <time>2014-04-01T10:12:34Z</time>
      </trkpt>
      <trkpt lat="44.43417" lon="1.29922">
        <ele>231.399</ele>
        <time>2014-04-01T10:12:41Z</time>
      </trkpt>
      <trkpt lat="44.43413" lon="1.29947">
        <ele>231.664</ele>
        <time>2014-04-01T10:12:50Z</time>
      </trkpt>
      <trkpt lat="44.4341" lon="1.29966">
        <ele>232.219</ele>
        <time>2014-04-01T10:12:57Z</time>
      </trkpt>
      <trkpt lat="44.43406" lon="1.29983">
        <ele>232.577</ele>
        <time>2014-04-01T10:13:03Z</time>
      </trkpt>
      <trkpt lat="44.43399" lon="1.30004">
        <ele>233.536</ele>
        <time>2014-04-01T10:13:11Z</time>
      </trkpt>
      <trkpt lat="44.43394" lon="1.30027">
        <ele>234.405</ele>
        <time>2014-04-01T10:13:19Z</time>
      </trkpt>
      <trkpt lat="44.43394" lon="1.3005">
        <ele>235.181</ele>
        <time>2014-04-01T10:13:27Z</time>
      </trkpt>
      <trkpt lat="44.43399" lon="1.30072">
        <ele>236.703</ele>
        <time>2014-04-01T10:13:35Z</time>
      </trkpt>
      <trkpt lat="44.43409" lon="1.30094">
        <ele>238.734</ele>
        <time>2014-04-01T10:13:44Z</time>
      </trkpt>
      <trkpt lat="44.43422" lon="1.30107">
        <ele>243.099</ele>
        <time>2014-04-01T10:13:52Z</time>
      </trkpt>
      <trkpt lat="44.43443" lon="1.30121">
        <ele>248.054</ele>
        <time>2014-04-01T10:14:03Z</time>
      </trkpt>
      <trkpt lat="44.43455" lon="1.3013">
        <ele>250.436</ele>
        <time>2014-04-01T10:14:09Z</time>
      </trkpt>
      <trkpt lat="44.43472" lon="1.3014">
        <ele>251.744</ele>
        <time>2014-04-01T10:14:17Z</time>
      </trkpt>
      <trkpt lat="44.43489" lon="1.30154">
        <ele>251.598</ele>
        <time>2014-04-01T10:14:26Z</time>
      </trkpt>
      <trkpt lat="44.43495" lon="1.30171">
        <ele>251.543</ele>
        <time>2014-04-01T10:14:33Z</time>
      </trkpt>
      <trkpt lat="44.43491" lon="1.30187">
        <ele>251.12</ele>
        <time>2014-04-01T10:14:39Z</time>
      </trkpt>
      <trkpt lat="44.43481" lon="1.30199">
        <ele>251.675</ele>
        <time>2014-04-01T10:14:46Z</time>
      </trkpt>
      <trkpt lat="44.43466" lon="1.30204">
        <ele>253.195</ele>
        <time>2014-04-01T10:14:54Z</time>
      </trkpt>
      <trkpt lat="44.43444" lon="1.30209">
        <ele>254.907</ele>
        <time>2014-04-01T10:15:06Z</time>
      </trkpt>
      <trkpt lat="44.43429" lon="1.30223">
        <ele>256.281</ele>
        <time>2014-04-01T10:15:15Z</time>
      </trkpt>
      <trkpt lat="44.4342" lon="1.3024">
        <ele>258.158</ele>
        <time>2014-04-01T10:15:23Z</time>
      </trkpt>
      <trkpt lat="44.43412" lon="1.30257">
        <ele>260.024</ele>
        <time>2014-04-01T10:15:31Z</time>
      </trkpt>
      <trkpt lat="44.43402" lon="1.30277">
        <ele>261.12</ele>
        <time>2014-04-01T10:15:40Z</time>
      </trkpt>
      <trkpt lat="44.4339" lon="1.303">
        <ele>261.848</ele>
        <time>2014-04-01T10:15:50Z</time>
      </trkpt>
      <trkpt lat="44.43381" lon="1.30321">
        <ele>262.368</ele>
        <time>2014-04-01T10:15:59Z</time>
      </trkpt>
      <trkpt lat="44.4337" lon="1.30345">
        <ele>262.921</ele>
        <time>2014-04-01T10:16:09Z</time>
      </trkpt>
      <trkpt lat="44.43362" lon="1.3037">
        <ele>263.57</ele>
        <time>2014-04-01T10:16:19Z</time>
      </trkpt>
      <trkpt lat="44.43355" lon="1.30396">
        <ele>264.137</ele>
        <time>2014-04-01T10:16:29Z</time>
      </trkpt>
      <trkpt lat="44.43351" lon="1.30419">
        <ele>265</ele>
        <time>2014-04-01T10:16:38Z</time>
      </trkpt>
      <trkpt lat="44.43343" lon="1.30449">
        <ele>265.52</ele>
        <time>2014-04-01T10:16:49Z</time>
      </trkpt>
      <trkpt lat="44.43337" lon="1.30473">
        <ele>266.863</ele>
        <time>2014-04-01T10:16:58Z</time>
      </trkpt>
      <trkpt lat="44.43331" lon="1.30496">
        <ele>268.093</ele>
        <time>2014-04-01T10:17:07Z</time>
      </trkpt>
      <trkpt lat="44.43327" lon="1.30509">
        <ele>269.271</ele>
        <time>2014-04-01T10:17:13Z</time>
      </trkpt>
      <trkpt lat="44.43328" lon="1.30521">
        <ele>271.126</ele>
        <time>2014-04-01T10:17:18Z</time>
      </trkpt>
      <trkpt lat="44.43328" lon="1.30537">
        <ele>272.756</ele>
        <time>2014-04-01T10:17:25Z</time>
      </trkpt>
      <trkpt lat="44.43329" lon="1.30549">
        <ele>274.816</ele>
        <time>2014-04-01T10:17:31Z</time>
      </trkpt>
      <trkpt lat="44.43327" lon="1.30566">
        <ele>277.019</ele>
        <time>2014-04-01T10:17:39Z</time>
      </trkpt>
      <trkpt lat="44.43321" lon="1.30582">
        <ele>279.561</ele>
        <time>2014-04-01T10:17:48Z</time>
      </trkpt>
      <trkpt lat="44.43314" lon="1.30595">
        <ele>281.797</ele>
        <time>2014-04-01T10:17:56Z</time>
      </trkpt>
      <trkpt lat="44.43307" lon="1.3061">
        <ele>283.141</ele>
        <time>2014-04-01T10:18:05Z</time>
      </trkpt>
      <trkpt lat="44.43301" lon="1.30622">
        <ele>285.878</ele>
        <time>2014-04-01T10:18:13Z</time>
      </trkpt>
      <trkpt lat="44.43307" lon="1.3063">
        <ele>286.537</ele>
        <time>2014-04-01T10:18:19Z</time>
      </trkpt>
      <trkpt lat="44.43322" lon="1.30635">
        <ele>287.354</ele>
        <time>2014-04-01T10:18:28Z</time>
      </trkpt>
      <trkpt lat="44.43335" lon="1.30639">
        <ele>288.212</ele>
        <time>2014-04-01T10:18:36Z</time>
      </trkpt>
      <trkpt lat="44.43355" lon="1.30646">
        <ele>289.279</ele>
        <time>2014-04-01T10:18:49Z</time>
      </trkpt>
      <trkpt lat="44.43367" lon="1.30651">
        <ele>289.757</ele>
        <time>2014-04-01T10:18:57Z</time>
      </trkpt>
      <trkpt lat="44.43378" lon="1.30654">
        <ele>290.177</ele>
        <time>2014-04-01T10:19:04Z</time>
      </trkpt>
      <trkpt lat="44.43391" lon="1.30652">
        <ele>291.139</ele>
        <time>2014-04-01T10:19:12Z</time>
      </trkpt>
      <trkpt lat="44.43401" lon="1.30641">
        <ele>291.448</ele>
        <time>2014-04-01T10:19:18Z</time>
      </trkpt>
      <trkpt lat="44.43415" lon="1.30623">
        <ele>291.594</ele>
        <time>2014-04-01T10:19:26Z</time>
      </trkpt>
      <trkpt lat="44.43418" lon="1.30619">
        <ele>291.344</ele>
        <time>2014-04-01T10:19:28Z</time>
      </trkpt>
      <trkpt lat="44.4342" lon="1.30618">
        <ele>291.157</ele>
        <time>2014-04-01T10:19:31Z</time>
      </trkpt>
    </trkseg>
  </trk>
  <trk>
    <name><![CDATA[2014-04-01-08-18-57]]></name>
    <trkseg>
      <trkpt lat="44.43426" lon="1.30605">
        <ele>290.27</ele>
        <time>2014-04-01T10:24:01Z</time>
      </trkpt>
      <trkpt lat="44.43435" lon="1.30593">
        <ele>290.38</ele>
        <time>2014-04-01T10:24:07Z</time>
      </trkpt>
      <trkpt lat="44.43438" lon="1.30588">
        <ele>290.48</ele>
        <time>2014-04-01T10:24:09Z</time>
      </trkpt>
      <trkpt lat="44.43458" lon="1.30561">
        <ele>291.23</ele>
        <time>2014-04-01T10:24:20Z</time>
      </trkpt>
      <trkpt lat="44.43484" lon="1.30532">
        <ele>290.56</ele>
        <time>2014-04-01T10:24:30Z</time>
      </trkpt>
      <trkpt lat="44.43506" lon="1.30506">
        <ele>290.06</ele>
        <time>2014-04-01T10:24:37Z</time>
      </trkpt>
      <trkpt lat="44.43532" lon="1.30481">
        <ele>289.129</ele>
        <time>2014-04-01T10:24:44Z</time>
      </trkpt>
      <trkpt lat="44.43535" lon="1.30476">
        <ele>289.05</ele>
        <time>2014-04-01T10:24:45Z</time>
      </trkpt>
      <trkpt lat="44.43553" lon="1.30441">
        <ele>287.759</ele>
        <time>2014-04-01T10:24:52Z</time>
      </trkpt>
      <trkpt lat="44.43571" lon="1.30403">
        <ele>285.739</ele>
        <time>2014-04-01T10:24:58Z</time>
      </trkpt>
      <trkpt lat="44.43592" lon="1.30356">
        <ele>285.4</ele>
        <time>2014-04-01T10:25:05Z</time>
      </trkpt>
      <trkpt lat="44.43612" lon="1.30309">
        <ele>285.82</ele>
        <time>2014-04-01T10:25:13Z</time>
      </trkpt>
      <trkpt lat="44.43627" lon="1.30264">
        <ele>287.211</ele>
        <time>2014-04-01T10:25:21Z</time>
      </trkpt>
      <trkpt lat="44.43641" lon="1.30222">
        <ele>288.681</ele>
        <time>2014-04-01T10:25:30Z</time>
      </trkpt>
      <trkpt lat="44.43653" lon="1.30187">
        <ele>289.991</ele>
        <time>2014-04-01T10:25:38Z</time>
      </trkpt>
      <trkpt lat="44.43666" lon="1.30154">
        <ele>290.721</ele>
        <time>2014-04-01T10:25:46Z</time>
      </trkpt>
      <trkpt lat="44.43682" lon="1.30121">
        <ele>291.59</ele>
        <time>2014-04-01T10:25:55Z</time>
      </trkpt>
      <trkpt lat="44.43697" lon="1.30086">
        <ele>291.96</ele>
        <time>2014-04-01T10:26:04Z</time>
      </trkpt>
      <trkpt lat="44.43706" lon="1.30062">
        <ele>291.81</ele>
        <time>2014-04-01T10:26:11Z</time>
      </trkpt>
      <trkpt lat="44.43711" lon="1.30045">
        <ele>291.74</ele>
        <time>2014-04-01T10:26:15Z</time>
      </trkpt>
      <trkpt lat="44.43727" lon="1.30024">
        <ele>291.77</ele>
        <time>2014-04-01T10:26:21Z</time>
      </trkpt>
      <trkpt lat="44.43755" lon="1.29991">
        <ele>291.43</ele>
        <time>2014-04-01T10:26:30Z</time>
      </trkpt>
      <trkpt lat="44.43792" lon="1.29957">
        <ele>291.45</ele>
        <time>2014-04-01T10:26:40Z</time>
      </trkpt>
      <trkpt lat="44.43826" lon="1.29925">
        <ele>293.082</ele>
        <time>2014-04-01T10:26:50Z</time>
      </trkpt>
      <trkpt lat="44.43849" lon="1.29905">
        <ele>294.252</ele>
        <time>2014-04-01T10:26:58Z</time>
      </trkpt>
      <trkpt lat="44.43872" lon="1.29883">
        <ele>295.751</ele>
        <time>2014-04-01T10:27:07Z</time>
      </trkpt>
      <trkpt lat="44.43891" lon="1.29858">
        <ele>296.531</ele>
        <time>2014-04-01T10:27:15Z</time>
      </trkpt>
      <trkpt lat="44.43911" lon="1.29826">
        <ele>296.981</ele>
        <time>2014-04-01T10:27:24Z</time>
      </trkpt>
      <trkpt lat="44.43929" lon="1.29799">
        <ele>296.619</ele>
        <time>2014-04-01T10:27:31Z</time>
      </trkpt>
      <trkpt lat="44.43943" lon="1.29784">
        <ele>295.82</ele>
        <time>2014-04-01T10:27:36Z</time>
      </trkpt>
      <trkpt lat="44.43953" lon="1.2979">
        <ele>294.279</ele>
        <time>2014-04-01T10:27:39Z</time>
      </trkpt>
      <trkpt lat="44.43982" lon="1.29814">
        <ele>293.62</ele>
        <time>2014-04-01T10:27:45Z</time>
      </trkpt>
      <trkpt lat="44.44017" lon="1.29842">
        <ele>292.251</ele>
        <time>2014-04-01T10:27:51Z</time>
      </trkpt>
      <trkpt lat="44.44045" lon="1.29864">
        <ele>291.381</ele>
        <time>2014-04-01T10:27:57Z</time>
      </trkpt>
      <trkpt lat="44.44057" lon="1.29873">
        <ele>290.641</ele>
        <time>2014-04-01T10:28:00Z</time>
      </trkpt>
      <trkpt lat="44.4408" lon="1.29901">
        <ele>288.059</ele>
        <time>2014-04-01T10:28:05Z</time>
      </trkpt>
      <trkpt lat="44.4409" lon="1.29897">
        <ele>287.01</ele>
        <time>2014-04-01T10:28:08Z</time>
      </trkpt>
      <trkpt lat="44.44095" lon="1.29884">
        <ele>286.771</ele>
        <time>2014-04-01T10:28:10Z</time>
      </trkpt>
      <trkpt lat="44.4412" lon="1.29852">
        <ele>283.728</ele>
        <time>2014-04-01T10:28:15Z</time>
      </trkpt>
      <trkpt lat="44.4413" lon="1.29838">
        <ele>282.378</ele>
        <time>2014-04-01T10:28:17Z</time>
      </trkpt>
      <trkpt lat="44.44138" lon="1.29824">
        <ele>280.788</ele>
        <time>2014-04-01T10:28:19Z</time>
      </trkpt>
      <trkpt lat="44.4415" lon="1.29791">
        <ele>278.459</ele>
        <time>2014-04-01T10:28:23Z</time>
      </trkpt>
      <trkpt lat="44.44168" lon="1.29763">
        <ele>274.778</ele>
        <time>2014-04-01T10:28:28Z</time>
      </trkpt>
      <trkpt lat="44.44186" lon="1.29746">
        <ele>271.905</ele>
        <time>2014-04-01T10:28:31Z</time>
      </trkpt>
      <trkpt lat="44.44208" lon="1.29732">
        <ele>267.368</ele>
        <time>2014-04-01T10:28:36Z</time>
      </trkpt>
      <trkpt lat="44.44222" lon="1.29728">
        <ele>263.488</ele>
        <time>2014-04-01T10:28:40Z</time>
      </trkpt>
      <trkpt lat="44.44229" lon="1.29716">
        <ele>261.698</ele>
        <time>2014-04-01T10:28:43Z</time>
      </trkpt>
      <trkpt lat="44.44241" lon="1.29707">
        <ele>257.337</ele>
        <time>2014-04-01T10:28:48Z</time>
      </trkpt>
      <trkpt lat="44.44251" lon="1.29706">
        <ele>253.688</ele>
        <time>2014-04-01T10:28:52Z</time>
      </trkpt>
      <trkpt lat="44.44257" lon="1.29689">
        <ele>249.937</ele>
        <time>2014-04-01T10:28:55Z</time>
      </trkpt>
      <trkpt lat="44.4425" lon="1.29673">
        <ele>246.059</ele>
        <time>2014-04-01T10:29:00Z</time>
      </trkpt>
      <trkpt lat="44.44247" lon="1.29672">
        <ele>246.902</ele>
        <time>2014-04-01T10:29:04Z</time>
      </trkpt>
      <trkpt lat="44.44243" lon="1.29661">
        <ele>246.341</ele>
        <time>2014-04-01T10:29:09Z</time>
      </trkpt>
      <trkpt lat="44.44243" lon="1.29656">
        <ele>245.92</ele>
        <time>2014-04-01T10:29:10Z</time>
      </trkpt>
      <trkpt lat="44.44246" lon="1.29644">
        <ele>245.07</ele>
        <time>2014-04-01T10:29:12Z</time>
      </trkpt>
      <trkpt lat="44.44257" lon="1.29624">
        <ele>238.178</ele>
        <time>2014-04-01T10:29:17Z</time>
      </trkpt>
      <trkpt lat="44.4427" lon="1.29615">
        <ele>233.237</ele>
        <time>2014-04-01T10:29:21Z</time>
      </trkpt>
      <trkpt lat="44.4428" lon="1.29609">
        <ele>228.537</ele>
        <time>2014-04-01T10:29:24Z</time>
      </trkpt>
      <trkpt lat="44.4429" lon="1.29595">
        <ele>222.057</ele>
        <time>2014-04-01T10:29:28Z</time>
      </trkpt>
      <trkpt lat="44.443" lon="1.29592">
        <ele>218.081</ele>
        <time>2014-04-01T10:29:31Z</time>
      </trkpt>
      <trkpt lat="44.44301" lon="1.29587">
        <ele>216.767</ele>
        <time>2014-04-01T10:29:33Z</time>
      </trkpt>
      <trkpt lat="44.44302" lon="1.29562">
        <ele>210.256</ele>
        <time>2014-04-01T10:29:38Z</time>
      </trkpt>
      <trkpt lat="44.4431" lon="1.29554">
        <ele>206.088</ele>
        <time>2014-04-01T10:29:41Z</time>
      </trkpt>
      <trkpt lat="44.44321" lon="1.2955">
        <ele>201.377</ele>
        <time>2014-04-01T10:29:45Z</time>
      </trkpt>
      <trkpt lat="44.44327" lon="1.29534">
        <ele>195.996</ele>
        <time>2014-04-01T10:29:49Z</time>
      </trkpt>
      <trkpt lat="44.44339" lon="1.29528">
        <ele>191.488</ele>
        <time>2014-04-01T10:29:53Z</time>
      </trkpt>
      <trkpt lat="44.44344" lon="1.29521">
        <ele>188.008</ele>
        <time>2014-04-01T10:29:56Z</time>
      </trkpt>
      <trkpt lat="44.44346" lon="1.29504">
        <ele>184.386</ele>
        <time>2014-04-01T10:29:59Z</time>
      </trkpt>
      <trkpt lat="44.44344" lon="1.29478">
        <ele>179.077</ele>
        <time>2014-04-01T10:30:04Z</time>
      </trkpt>
      <trkpt lat="44.44352" lon="1.29475">
        <ele>177.359</ele>
        <time>2014-04-01T10:30:07Z</time>
      </trkpt>
      <trkpt lat="44.44357" lon="1.29467">
        <ele>174.998</ele>
        <time>2014-04-01T10:30:10Z</time>
      </trkpt>
      <trkpt lat="44.4436" lon="1.29457">
        <ele>172.088</ele>
        <time>2014-04-01T10:30:13Z</time>
      </trkpt>
      <trkpt lat="44.44373" lon="1.29447">
        <ele>167.137</ele>
        <time>2014-04-01T10:30:18Z</time>
      </trkpt>
      <trkpt lat="44.44379" lon="1.29436">
        <ele>162.967</ele>
        <time>2014-04-01T10:30:22Z</time>
      </trkpt>
      <trkpt lat="44.44384" lon="1.29433">
        <ele>159.649</ele>
        <time>2014-04-01T10:30:26Z</time>
      </trkpt>
      <trkpt lat="44.44387" lon="1.29428">
        <ele>157.198</ele>
        <time>2014-04-01T10:30:29Z</time>
      </trkpt>
      <trkpt lat="44.44398" lon="1.29411">
        <ele>151.197</ele>
        <time>2014-04-01T10:30:34Z</time>
      </trkpt>
      <trkpt lat="44.44401" lon="1.29401">
        <ele>147.657</ele>
        <time>2014-04-01T10:30:37Z</time>
      </trkpt>
      <trkpt lat="44.4441" lon="1.29391">
        <ele>142.617</ele>
        <time>2014-04-01T10:30:41Z</time>
      </trkpt>
      <trkpt lat="44.44412" lon="1.29382">
        <ele>139.767</ele>
        <time>2014-04-01T10:30:43Z</time>
      </trkpt>
      <trkpt lat="44.44415" lon="1.29373">
        <ele>137.476</ele>
        <time>2014-04-01T10:30:45Z</time>
      </trkpt>
      <trkpt lat="44.44419" lon="1.2935">
        <ele>132.587</ele>
        <time>2014-04-01T10:30:50Z</time>
      </trkpt>
      <trkpt lat="44.44428" lon="1.2935">
        <ele>131.478</ele>
        <time>2014-04-01T10:30:52Z</time>
      </trkpt>
      <trkpt lat="44.4444" lon="1.29349">
        <ele>130.5</ele>
        <time>2014-04-01T10:30:55Z</time>
      </trkpt>
      <trkpt lat="44.44444" lon="1.29347">
        <ele>130.611</ele>
        <time>2014-04-01T10:30:57Z</time>
      </trkpt>
      <trkpt lat="44.44456" lon="1.29346">
        <ele>129.801</ele>
        <time>2014-04-01T10:31:01Z</time>
      </trkpt>
      <trkpt lat="44.44473" lon="1.29339">
        <ele>129.691</ele>
        <time>2014-04-01T10:31:05Z</time>
      </trkpt>
      <trkpt lat="44.44491" lon="1.29339">
        <ele>129.482</ele>
        <time>2014-04-01T10:31:09Z</time>
      </trkpt>
      <trkpt lat="44.44498" lon="1.29353">
        <ele>129.542</ele>
        <time>2014-04-01T10:31:12Z</time>
      </trkpt>
      <trkpt lat="44.445" lon="1.29359">
        <ele>129.462</ele>
        <time>2014-04-01T10:31:13Z</time>
      </trkpt>
      <trkpt lat="44.44515" lon="1.29407">
        <ele>128.752</ele>
        <time>2014-04-01T10:31:21Z</time>
      </trkpt>
      <trkpt lat="44.44517" lon="1.29413">
        <ele>128.692</ele>
        <time>2014-04-01T10:31:22Z</time>
      </trkpt>
      <trkpt lat="44.44519" lon="1.29427">
        <ele>128.752</ele>
        <time>2014-04-01T10:31:24Z</time>
      </trkpt>
      <trkpt lat="44.4452" lon="1.29454">
        <ele>128.192</ele>
        <time>2014-04-01T10:31:28Z</time>
      </trkpt>
      <trkpt lat="44.44516" lon="1.29487">
        <ele>128.332</ele>
        <time>2014-04-01T10:31:33Z</time>
      </trkpt>
      <trkpt lat="44.44516" lon="1.29514">
        <ele>127.942</ele>
        <time>2014-04-01T10:31:37Z</time>
      </trkpt>
      <trkpt lat="44.44528" lon="1.29564">
        <ele>128.072</ele>
        <time>2014-04-01T10:31:45Z</time>
      </trkpt>
      <trkpt lat="44.44547" lon="1.29601">
        <ele>128.233</ele>
        <time>2014-04-01T10:31:52Z</time>
      </trkpt>
      <trkpt lat="44.44578" lon="1.29649">
        <ele>129.294</ele>
        <time>2014-04-01T10:32:02Z</time>
      </trkpt>
      <trkpt lat="44.44605" lon="1.29681">
        <ele>129.223</ele>
        <time>2014-04-01T10:32:10Z</time>
      </trkpt>
      <trkpt lat="44.44634" lon="1.29707">
        <ele>128.292</ele>
        <time>2014-04-01T10:32:17Z</time>
      </trkpt>
      <trkpt lat="44.44671" lon="1.29739">
        <ele>127.212</ele>
        <time>2014-04-01T10:32:26Z</time>
      </trkpt>
      <trkpt lat="44.44703" lon="1.29768">
        <ele>126.873</ele>
        <time>2014-04-01T10:32:34Z</time>
      </trkpt>
      <trkpt lat="44.4473" lon="1.29792">
        <ele>126.473</ele>
        <time>2014-04-01T10:32:41Z</time>
      </trkpt>
      <trkpt lat="44.4474" lon="1.29799">
        <ele>127.093</ele>
        <time>2014-04-01T10:32:44Z</time>
      </trkpt>
      <trkpt lat="44.44741" lon="1.29813">
        <ele>126.623</ele>
        <time>2014-04-01T10:32:48Z</time>
      </trkpt>
      <trkpt lat="44.44738" lon="1.29817">
        <ele>126.573</ele>
        <time>2014-04-01T10:32:49Z</time>
      </trkpt>
      <trkpt lat="44.44732" lon="1.29825">
        <ele>126.513</ele>
        <time>2014-04-01T10:32:51Z</time>
      </trkpt>
      <trkpt lat="44.44721" lon="1.29851">
        <ele>125.665</ele>
        <time>2014-04-01T10:32:56Z</time>
      </trkpt>
      <trkpt lat="44.44713" lon="1.29868">
        <ele>125.264</ele>
        <time>2014-04-01T10:33:02Z</time>
      </trkpt>
      <trkpt lat="44.44708" lon="1.29874">
        <ele>124.914</ele>
        <time>2014-04-01T10:33:07Z</time>
      </trkpt>
    </trkseg>
  </trk>
  <trk>
    <name><![CDATA[2014-04-01-08-18-57]]></name>
    <trkseg>
      <trkpt lat="44.44705" lon="1.29878">
        <ele>124.275</ele>
        <time>2014-04-01T10:33:14Z</time>
      </trkpt>
      <trkpt lat="44.44702" lon="1.2988">
        <ele>124.275</ele>
        <time>2014-04-01T10:33:19Z</time>
      </trkpt>
      <trkpt lat="44.44702" lon="1.2988">
        <ele>124.694</ele>
        <time>2014-04-01T10:33:21Z</time>
      </trkpt>
    </trkseg>
  </trk>
  <trk>
    <name><![CDATA[2014-04-01-08-18-57]]></name>
    <trkseg>
      <trkpt lat="44.44697" lon="1.29884">
        <ele>125.234</ele>
        <time>2014-04-01T10:33:36Z</time>
      </trkpt>
      <trkpt lat="44.44691" lon="1.29894">
        <ele>125.465</ele>
        <time>2014-04-01T10:33:41Z</time>
      </trkpt>
      <trkpt lat="44.44681" lon="1.29905">
        <ele>126.255</ele>
        <time>2014-04-01T10:33:46Z</time>
      </trkpt>
      <trkpt lat="44.4467" lon="1.29914">
        <ele>129.716</ele>
        <time>2014-04-01T10:33:52Z</time>
      </trkpt>
      <trkpt lat="44.44655" lon="1.29926">
        <ele>131.327</ele>
        <time>2014-04-01T10:33:59Z</time>
      </trkpt>
      <trkpt lat="44.44643" lon="1.29936">
        <ele>134.218</ele>
        <time>2014-04-01T10:34:06Z</time>
      </trkpt>
      <trkpt lat="44.44629" lon="1.29945">
        <ele>135.158</ele>
        <time>2014-04-01T10:34:13Z</time>
      </trkpt>
      <trkpt lat="44.44616" lon="1.29956">
        <ele>136.297</ele>
        <time>2014-04-01T10:34:21Z</time>
      </trkpt>
      <trkpt lat="44.44603" lon="1.29963">
        <ele>133.685</ele>
        <time>2014-04-01T10:34:28Z</time>
      </trkpt>
      <trkpt lat="44.44587" lon="1.29966">
        <ele>130.345</ele>
        <time>2014-04-01T10:34:36Z</time>
      </trkpt>
      <trkpt lat="44.44578" lon="1.29967">
        <ele>129.225</ele>
        <time>2014-04-01T10:34:41Z</time>
      </trkpt>
      <trkpt lat="44.44564" lon="1.29971">
        <ele>126.644</ele>
        <time>2014-04-01T10:34:48Z</time>
      </trkpt>
      <trkpt lat="44.44556" lon="1.29978">
        <ele>125.555</ele>
        <time>2014-04-01T10:34:54Z</time>
      </trkpt>
      <trkpt lat="44.44556" lon="1.29979">
        <ele>124.202</ele>
        <time>2014-04-01T10:34:56Z</time>
      </trkpt>
    </trkseg>
  </trk>
  <trk>
    <name><![CDATA[2014-04-01-08-18-57]]></name>
    <trkseg>
      <trkpt lat="44.44548" lon="1.29981">
        <ele>137.604</ele>
        <time>2014-04-01T10:35:46Z</time>
      </trkpt>
      <trkpt lat="44.44539" lon="1.2999">
        <ele>138.935</ele>
        <time>2014-04-01T10:35:51Z</time>
      </trkpt>
      <trkpt lat="44.44528" lon="1.29999">
        <ele>140.326</ele>
        <time>2014-04-01T10:35:57Z</time>
      </trkpt>
      <trkpt lat="44.44521" lon="1.30006">
        <ele>141.976</ele>
        <time>2014-04-01T10:36:04Z</time>
      </trkpt>
      <trkpt lat="44.44516" lon="1.30009">
        <ele>142.445</ele>
        <time>2014-04-01T10:36:10Z</time>
      </trkpt>
      <trkpt lat="44.44514" lon="1.3001">
        <ele>141.591</ele>
        <time>2014-04-01T10:36:13Z</time>
      </trkpt>
    </trkseg>
  </trk>
  <trk>
    <name><![CDATA[2014-04-01-08-18-57]]></name>
    <trkseg>
      <trkpt lat="44.44509" lon="1.30012">
        <ele>141.134</ele>
        <time>2014-04-01T10:36:17Z</time>
      </trkpt>
      <trkpt lat="44.44508" lon="1.30014">
        <ele>141.046</ele>
        <time>2014-04-01T10:36:18Z</time>
      </trkpt>
      <trkpt lat="44.44506" lon="1.30017">
        <ele>140.027</ele>
        <time>2014-04-01T10:36:21Z</time>
      </trkpt>
    </trkseg>
  </trk>
  <trk>
    <name><![CDATA[2014-04-01-08-18-57]]></name>
    <trkseg>
      <trkpt lat="44.4451" lon="1.30023">
        <ele>140.094</ele>
        <time>2014-04-01T10:36:29Z</time>
      </trkpt>
      <trkpt lat="44.4451" lon="1.30023">
        <ele>139.65</ele>
        <time>2014-04-01T10:36:31Z</time>
      </trkpt>
    </trkseg>
  </trk>
  <trk>
    <name><![CDATA[2014-04-01-08-18-57]]></name>
    <trkseg>
      <trkpt lat="44.44516" lon="1.30024">
        <ele>142.174</ele>
        <time>2014-04-01T10:36:54Z</time>
      </trkpt>
      <trkpt lat="44.44526" lon="1.30025">
        <ele>143.985</ele>
        <time>2014-04-01T10:36:59Z</time>
      </trkpt>
      <trkpt lat="44.44525" lon="1.30033">
        <ele>144.834</ele>
        <time>2014-04-01T10:37:04Z</time>
      </trkpt>
      <trkpt lat="44.44512" lon="1.30036">
        <ele>146.315</ele>
        <time>2014-04-01T10:37:13Z</time>
      </trkpt>
      <trkpt lat="44.445" lon="1.30037">
        <ele>146.484</ele>
        <time>2014-04-01T10:37:20Z</time>
      </trkpt>
      <trkpt lat="44.44487" lon="1.30034">
        <ele>147.274</ele>
        <time>2014-04-01T10:37:28Z</time>
      </trkpt>
      <trkpt lat="44.44475" lon="1.30036">
        <ele>151.885</ele>
        <time>2014-04-01T10:37:36Z</time>
      </trkpt>
      <trkpt lat="44.44461" lon="1.30042">
        <ele>151.234</ele>
        <time>2014-04-01T10:37:43Z</time>
      </trkpt>
      <trkpt lat="44.44452" lon="1.30051">
        <ele>151.004</ele>
        <time>2014-04-01T10:37:48Z</time>
      </trkpt>
      <trkpt lat="44.44452" lon="1.30052">
        <ele>150.552</ele>
        <time>2014-04-01T10:37:50Z</time>
      </trkpt>
    </trkseg>
  </trk>
  <trk>
    <name><![CDATA[2014-04-01-08-18-57]]></name>
    <trkseg>
      <trkpt lat="44.44447" lon="1.30056">
        <ele>149.944</ele>
        <time>2014-04-01T10:39:20Z</time>
      </trkpt>
      <trkpt lat="44.44435" lon="1.30066">
        <ele>150.564</ele>
        <time>2014-04-01T10:39:26Z</time>
      </trkpt>
      <trkpt lat="44.44423" lon="1.30081">
        <ele>154.136</ele>
        <time>2014-04-01T10:39:34Z</time>
      </trkpt>
      <trkpt lat="44.44413" lon="1.30095">
        <ele>158.406</ele>
        <time>2014-04-01T10:39:42Z</time>
      </trkpt>
      <trkpt lat="44.44401" lon="1.30109">
        <ele>160.845</ele>
        <time>2014-04-01T10:39:51Z</time>
      </trkpt>
      <trkpt lat="44.44393" lon="1.30116">
        <ele>161.855</ele>
        <time>2014-04-01T10:39:57Z</time>
      </trkpt>
      <trkpt lat="44.44384" lon="1.30125">
        <ele>163.786</ele>
        <time>2014-04-01T10:40:03Z</time>
      </trkpt>
      <trkpt lat="44.44374" lon="1.30135">
        <ele>166.415</ele>
        <time>2014-04-01T10:40:10Z</time>
      </trkpt>
      <trkpt lat="44.44366" lon="1.3014">
        <ele>167.525</ele>
        <time>2014-04-01T10:40:15Z</time>
      </trkpt>
      <trkpt lat="44.44356" lon="1.30147">
        <ele>169.476</ele>
        <time>2014-04-01T10:40:22Z</time>
      </trkpt>
      <trkpt lat="44.44346" lon="1.30154">
        <ele>171.206</ele>
        <time>2014-04-01T10:40:28Z</time>
      </trkpt>
      <trkpt lat="44.44336" lon="1.30163">
        <ele>172.796</ele>
        <time>2014-04-01T10:40:35Z</time>
      </trkpt>
      <trkpt lat="44.44325" lon="1.30172">
        <ele>173.175</ele>
        <time>2014-04-01T10:40:42Z</time>
      </trkpt>
      <trkpt lat="44.44315" lon="1.3018">
        <ele>173.535</ele>
        <time>2014-04-01T10:40:49Z</time>
      </trkpt>
      <trkpt lat="44.44305" lon="1.30188">
        <ele>175.326</ele>
        <time>2014-04-01T10:40:56Z</time>
      </trkpt>
      <trkpt lat="44.44293" lon="1.30192">
        <ele>174.924</ele>
        <time>2014-04-01T10:41:03Z</time>
      </trkpt>
      <trkpt lat="44.44277" lon="1.30199">
        <ele>174.944</ele>
        <time>2014-04-01T10:41:12Z</time>
      </trkpt>
      <trkpt lat="44.44266" lon="1.30206">
        <ele>176.265</ele>
        <time>2014-04-01T10:41:19Z</time>
      </trkpt>
      <trkpt lat="44.44254" lon="1.30215">
        <ele>177.084</ele>
        <time>2014-04-01T10:41:26Z</time>
      </trkpt>
      <trkpt lat="44.4424" lon="1.30225">
        <ele>179.505</ele>
        <time>2014-04-01T10:41:34Z</time>
      </trkpt>
      <trkpt lat="44.4423" lon="1.30232">
        <ele>181.205</ele>
        <time>2014-04-01T10:41:40Z</time>
      </trkpt>
      <trkpt lat="44.4422" lon="1.30237">
        <ele>182.515</ele>
        <time>2014-04-01T10:41:46Z</time>
      </trkpt>
      <trkpt lat="44.44207" lon="1.3024">
        <ele>182.085</ele>
        <time>2014-04-01T10:41:54Z</time>
      </trkpt>
      <trkpt lat="44.44192" lon="1.3024">
        <ele>183.084</ele>
        <time>2014-04-01T10:42:01Z</time>
      </trkpt>
      <trkpt lat="44.44174" lon="1.30239">
        <ele>183.534</ele>
        <time>2014-04-01T10:42:08Z</time>
      </trkpt>
      <trkpt lat="44.44159" lon="1.30237">
        <ele>186.065</ele>
        <time>2014-04-01T10:42:16Z</time>
      </trkpt>
      <trkpt lat="44.44144" lon="1.30234">
        <ele>188.084</ele>
        <time>2014-04-01T10:42:24Z</time>
      </trkpt>
      <trkpt lat="44.4413" lon="1.30228">
        <ele>192.134</ele>
        <time>2014-04-01T10:42:32Z</time>
      </trkpt>
      <trkpt lat="44.4412" lon="1.30225">
        <ele>191.003</ele>
        <time>2014-04-01T10:42:40Z</time>
      </trkpt>
    </trkseg>
  </trk>
  <trk>
    <name><![CDATA[2014-04-01-08-18-57]]></name>
    <trkseg>
      <trkpt lat="44.44116" lon="1.30224">
        <ele>188.929</ele>
        <time>2014-04-01T10:42:49Z</time>
      </trkpt>
    </trkseg>
  </trk>
  <trk>
    <name><![CDATA[2014-04-01-08-18-57]]></name>
    <trkseg>
      <trkpt lat="44.44115" lon="1.30223">
        <ele>189.953</ele>
        <time>2014-04-01T10:42:53Z</time>
      </trkpt>
    </trkseg>
  </trk>
  <trk>
    <name><![CDATA[2014-04-01-08-18-57]]></name>
    <trkseg>
      <trkpt lat="44.44107" lon="1.30221">
        <ele>189.382</ele>
        <time>2014-04-01T10:43:00Z</time>
      </trkpt>
      <trkpt lat="44.44093" lon="1.3022">
        <ele>188.993</ele>
        <time>2014-04-01T10:43:07Z</time>
      </trkpt>
      <trkpt lat="44.44077" lon="1.30219">
        <ele>188.533</ele>
        <time>2014-04-01T10:43:15Z</time>
      </trkpt>
      <trkpt lat="44.44074" lon="1.30219">
        <ele>188.946</ele>
        <time>2014-04-01T10:43:19Z</time>
      </trkpt>
    </trkseg>
  </trk>
  <trk>
    <name><![CDATA[2014-04-01-08-18-57]]></name>
    <trkseg>
      <trkpt lat="44.4407" lon="1.30211">
        <ele>185.971</ele>
        <time>2014-04-01T10:43:33Z</time>
      </trkpt>
      <trkpt lat="44.4407" lon="1.3021">
        <ele>185.599</ele>
        <time>2014-04-01T10:43:34Z</time>
      </trkpt>
    </trkseg>
  </trk>
  <trk>
    <name><![CDATA[2014-04-01-08-18-57]]></name>
    <trkseg>
      <trkpt lat="44.44066" lon="1.3021">
        <ele>182.986</ele>
        <time>2014-04-01T10:43:42Z</time>
      </trkpt>
    </trkseg>
  </trk>
  <trk>
    <name><![CDATA[2014-04-01-08-18-57]]></name>
    <trkseg>
      <trkpt lat="44.44059" lon="1.30207">
        <ele>185.663</ele>
        <time>2014-04-01T10:43:51Z</time>
      </trkpt>
    </trkseg>
  </trk>
  <trk>
    <name><![CDATA[2014-04-01-08-18-57]]></name>
    <trkseg>
      <trkpt lat="44.44055" lon="1.30207">
        <ele>185.352</ele>
        <time>2014-04-01T10:44:03Z</time>
      </trkpt>
      <trkpt lat="44.4405" lon="1.30206">
        <ele>185.612</ele>
        <time>2014-04-01T10:44:08Z</time>
      </trkpt>
      <trkpt lat="44.44049" lon="1.30203">
        <ele>187.432</ele>
        <time>2014-04-01T10:44:13Z</time>
      </trkpt>
      <trkpt lat="44.44049" lon="1.30203">
        <ele>187.112</ele>
        <time>2014-04-01T10:44:14Z</time>
      </trkpt>
    </trkseg>
  </trk>
  <trk>
    <name><![CDATA[2014-04-01-08-18-57]]></name>
    <trkseg>
      <trkpt lat="44.4404" lon="1.30205">
        <ele>191.973</ele>
        <time>2014-04-01T10:44:25Z</time>
      </trkpt>
      <trkpt lat="44.44034" lon="1.30203">
        <ele>195.184</ele>
        <time>2014-04-01T10:44:30Z</time>
      </trkpt>
      <trkpt lat="44.44031" lon="1.30202">
        <ele>196.004</ele>
        <time>2014-04-01T10:44:34Z</time>
      </trkpt>
      <trkpt lat="44.44031" lon="1.30203">
        <ele>195.933</ele>
        <time>2014-04-01T10:44:35Z</time>
      </trkpt>
      <trkpt lat="44.44028" lon="1.30209">
        <ele>195.983</ele>
        <time>2014-04-01T10:44:39Z</time>
      </trkpt>
      <trkpt lat="44.44027" lon="1.30214">
        <ele>196.013</ele>
        <time>2014-04-01T10:44:44Z</time>
      </trkpt>
      <trkpt lat="44.44027" lon="1.30214">
        <ele>195.79</ele>
        <time>2014-04-01T10:44:45Z</time>
      </trkpt>
    </trkseg>
  </trk>
  <trk>
    <name><![CDATA[2014-04-01-08-18-57]]></name>
    <trkseg>
      <trkpt lat="44.44027" lon="1.3022">
        <ele>200.053</ele>
        <time>2014-04-01T10:44:53Z</time>
      </trkpt>
      <trkpt lat="44.44027" lon="1.30222">
        <ele>201.306</ele>
        <time>2014-04-01T10:44:55Z</time>
      </trkpt>
    </trkseg>
  </trk>
  <trk>
    <name><![CDATA[2014-04-01-08-18-57]]></name>
    <trkseg>
      <trkpt lat="44.44011" lon="1.30224">
        <ele>202.302</ele>
        <time>2014-04-01T10:45:12Z</time>
      </trkpt>
      <trkpt lat="44.43998" lon="1.30229">
        <ele>204.764</ele>
        <time>2014-04-01T10:45:20Z</time>
      </trkpt>
      <trkpt lat="44.43984" lon="1.30231">
        <ele>204.653</ele>
        <time>2014-04-01T10:45:27Z</time>
      </trkpt>
      <trkpt lat="44.4397" lon="1.30237">
        <ele>202.963</ele>
        <time>2014-04-01T10:45:35Z</time>
      </trkpt>
      <trkpt lat="44.43961" lon="1.30243">
        <ele>203.563</ele>
        <time>2014-04-01T10:45:42Z</time>
      </trkpt>
      <trkpt lat="44.43961" lon="1.30244">
        <ele>204.336</ele>
        <time>2014-04-01T10:45:44Z</time>
      </trkpt>
    </trkseg>
  </trk>
  <trk>
    <name><![CDATA[2014-04-01-08-18-57]]></name>
    <trkseg>
      <trkpt lat="44.43955" lon="1.30251">
        <ele>202.323</ele>
        <time>2014-04-01T10:46:40Z</time>
      </trkpt>
      <trkpt lat="44.43949" lon="1.30258">
        <ele>206.244</ele>
        <time>2014-04-01T10:46:48Z</time>
      </trkpt>
      <trkpt lat="44.43941" lon="1.30268">
        <ele>209.193</ele>
        <time>2014-04-01T10:46:56Z</time>
      </trkpt>
      <trkpt lat="44.43933" lon="1.3028">
        <ele>211.573</ele>
        <time>2014-04-01T10:47:04Z</time>
      </trkpt>
      <trkpt lat="44.43925" lon="1.30291">
        <ele>213.264</ele>
        <time>2014-04-01T10:47:11Z</time>
      </trkpt>
      <trkpt lat="44.4392" lon="1.303">
        <ele>213.844</ele>
        <time>2014-04-01T10:47:18Z</time>
      </trkpt>
      <trkpt lat="44.4392" lon="1.303">
        <ele>213.767</ele>
        <time>2014-04-01T10:47:19Z</time>
      </trkpt>
    </trkseg>
  </trk>
  <trk>
    <name><![CDATA[2014-04-01-08-18-57]]></name>
    <trkseg>
      <trkpt lat="44.43922" lon="1.30305">
        <ele>207.102</ele>
        <time>2014-04-01T10:48:06Z</time>
      </trkpt>
      <trkpt lat="44.43932" lon="1.30303">
        <ele>207.052</ele>
        <time>2014-04-01T10:48:13Z</time>
      </trkpt>
      <trkpt lat="44.43935" lon="1.30301">
        <ele>207.172</ele>
        <time>2014-04-01T10:48:15Z</time>
      </trkpt>
      <trkpt lat="44.43938" lon="1.30305">
        <ele>208.693</ele>
        <time>2014-04-01T10:48:20Z</time>
      </trkpt>
      <trkpt lat="44.43937" lon="1.30306">
        <ele>209.689</ele>
        <time>2014-04-01T10:48:24Z</time>
      </trkpt>
    </trkseg>
  </trk>
  <trk>
    <name><![CDATA[2014-04-01-08-18-57]]></name>
    <trkseg>
      <trkpt lat="44.4393" lon="1.30314">
        <ele>211.383</ele>
        <time>2014-04-01T10:48:34Z</time>
      </trkpt>
      <trkpt lat="44.43928" lon="1.30317">
        <ele>211.853</ele>
        <time>2014-04-01T10:48:36Z</time>
      </trkpt>
      <trkpt lat="44.43922" lon="1.30322">
        <ele>215.413</ele>
        <time>2014-04-01T10:48:42Z</time>
      </trkpt>
      <trkpt lat="44.43914" lon="1.30332">
        <ele>217.553</ele>
        <time>2014-04-01T10:48:50Z</time>
      </trkpt>
      <trkpt lat="44.43906" lon="1.30342">
        <ele>219.303</ele>
        <time>2014-04-01T10:48:58Z</time>
      </trkpt>
      <trkpt lat="44.43902" lon="1.30347">
        <ele>219.963</ele>
        <time>2014-04-01T10:49:02Z</time>
      </trkpt>
      <trkpt lat="44.43897" lon="1.30353">
        <ele>220.763</ele>
        <time>2014-04-01T10:49:08Z</time>
      </trkpt>
      <trkpt lat="44.4389" lon="1.30364">
        <ele>223.373</ele>
        <time>2014-04-01T10:49:18Z</time>
      </trkpt>
      <trkpt lat="44.43884" lon="1.30375">
        <ele>225.403</ele>
        <time>2014-04-01T10:49:27Z</time>
      </trkpt>
      <trkpt lat="44.43879" lon="1.30385">
        <ele>227.273</ele>
        <time>2014-04-01T10:49:36Z</time>
      </trkpt>
      <trkpt lat="44.43875" lon="1.3039">
        <ele>229.804</ele>
        <time>2014-04-01T10:49:41Z</time>
      </trkpt>
      <trkpt lat="44.43868" lon="1.30404">
        <ele>234.084</ele>
        <time>2014-04-01T10:49:52Z</time>
      </trkpt>
      <trkpt lat="44.43864" lon="1.30412">
        <ele>235.433</ele>
        <time>2014-04-01T10:49:59Z</time>
      </trkpt>
      <trkpt lat="44.4386" lon="1.3042">
        <ele>236.254</ele>
        <time>2014-04-01T10:50:05Z</time>
      </trkpt>
      <trkpt lat="44.43857" lon="1.30425">
        <ele>236.903</ele>
        <time>2014-04-01T10:50:11Z</time>
      </trkpt>
      <trkpt lat="44.43851" lon="1.30435">
        <ele>238.443</ele>
        <time>2014-04-01T10:50:19Z</time>
      </trkpt>
      <trkpt lat="44.43847" lon="1.30442">
        <ele>239.463</ele>
        <time>2014-04-01T10:50:25Z</time>
      </trkpt>
      <trkpt lat="44.43845" lon="1.30446">
        <ele>240.053</ele>
        <time>2014-04-01T10:50:28Z</time>
      </trkpt>
      <trkpt lat="44.43837" lon="1.30457">
        <ele>242.494</ele>
        <time>2014-04-01T10:50:38Z</time>
      </trkpt>
      <trkpt lat="44.43833" lon="1.30464">
        <ele>243.603</ele>
        <time>2014-04-01T10:50:44Z</time>
      </trkpt>
      <trkpt lat="44.43826" lon="1.30471">
        <ele>245.333</ele>
        <time>2014-04-01T10:50:53Z</time>
      </trkpt>
      <trkpt lat="44.4382" lon="1.30477">
        <ele>247.413</ele>
        <time>2014-04-01T10:51:01Z</time>
      </trkpt>
      <trkpt lat="44.43817" lon="1.3048">
        <ele>248.163</ele>
        <time>2014-04-01T10:51:04Z</time>
      </trkpt>
      <trkpt lat="44.43812" lon="1.30485">
        <ele>249.883</ele>
        <time>2014-04-01T10:51:11Z</time>
      </trkpt>
      <trkpt lat="44.43805" lon="1.3049">
        <ele>252.173</ele>
        <time>2014-04-01T10:51:18Z</time>
      </trkpt>
      <trkpt lat="44.43809" lon="1.30494">
        <ele>252.502</ele>
        <time>2014-04-01T10:51:23Z</time>
      </trkpt>
      <trkpt lat="44.43812" lon="1.30494">
        <ele>252.382</ele>
        <time>2014-04-01T10:51:26Z</time>
      </trkpt>
      <trkpt lat="44.43826" lon="1.30496">
        <ele>251.251</ele>
        <time>2014-04-01T10:51:38Z</time>
      </trkpt>
      <trkpt lat="44.43836" lon="1.30498">
        <ele>251.222</ele>
        <time>2014-04-01T10:51:47Z</time>
      </trkpt>
      <trkpt lat="44.43848" lon="1.30498">
        <ele>252.252</ele>
        <time>2014-04-01T10:51:57Z</time>
      </trkpt>
      <trkpt lat="44.43861" lon="1.30495">
        <ele>260.813</ele>
        <time>2014-04-01T10:52:07Z</time>
      </trkpt>
      <trkpt lat="44.43873" lon="1.30493">
        <ele>264.723</ele>
        <time>2014-04-01T10:52:16Z</time>
      </trkpt>
      <trkpt lat="44.43884" lon="1.30491">
        <ele>269.063</ele>
        <time>2014-04-01T10:52:25Z</time>
      </trkpt>
      <trkpt lat="44.43898" lon="1.30488">
        <ele>273.052</ele>
        <time>2014-04-01T10:52:36Z</time>
      </trkpt>
      <trkpt lat="44.43911" lon="1.30488">
        <ele>273.272</ele>
        <time>2014-04-01T10:52:46Z</time>
      </trkpt>
      <trkpt lat="44.43919" lon="1.30487">
        <ele>273.202</ele>
        <time>2014-04-01T10:52:54Z</time>
      </trkpt>
      <trkpt lat="44.43919" lon="1.30487">
        <ele>273.286</ele>
        <time>2014-04-01T10:52:56Z</time>
      </trkpt>
    </trkseg>
  </trk>
  <trk>
    <name><![CDATA[2014-04-01-08-18-57]]></name>
    <trkseg>
      <trkpt lat="44.43927" lon="1.30484">
        <ele>272.062</ele>
        <time>2014-04-01T10:53:08Z</time>
      </trkpt>
      <trkpt lat="44.43938" lon="1.30482">
        <ele>272.072</ele>
        <time>2014-04-01T10:53:14Z</time>
      </trkpt>
      <trkpt lat="44.43938" lon="1.30482">
        <ele>272.072</ele>
        <time>2014-04-01T10:53:15Z</time>
      </trkpt>
    </trkseg>
  </trk>
  <trk>
    <name><![CDATA[2014-04-01-08-18-57]]></name>
    <trkseg>
      <trkpt lat="44.43947" lon="1.30486">
        <ele>273.833</ele>
        <time>2014-04-01T10:54:00Z</time>
      </trkpt>
      <trkpt lat="44.43957" lon="1.30484">
        <ele>272.692</ele>
        <time>2014-04-01T10:54:05Z</time>
      </trkpt>
      <trkpt lat="44.43973" lon="1.30474">
        <ele>270.301</ele>
        <time>2014-04-01T10:54:12Z</time>
      </trkpt>
      <trkpt lat="44.43983" lon="1.3047">
        <ele>268.741</ele>
        <time>2014-04-01T10:54:17Z</time>
      </trkpt>
      <trkpt lat="44.43986" lon="1.30469">
        <ele>268.411</ele>
        <time>2014-04-01T10:54:18Z</time>
      </trkpt>
      <trkpt lat="44.43995" lon="1.30478">
        <ele>268.112</ele>
        <time>2014-04-01T10:54:22Z</time>
      </trkpt>
      <trkpt lat="44.44006" lon="1.30515">
        <ele>268.082</ele>
        <time>2014-04-01T10:54:31Z</time>
      </trkpt>
      <trkpt lat="44.44019" lon="1.30556">
        <ele>267.892</ele>
        <time>2014-04-01T10:54:40Z</time>
      </trkpt>
      <trkpt lat="44.44035" lon="1.30567">
        <ele>267.132</ele>
        <time>2014-04-01T10:54:45Z</time>
      </trkpt>
      <trkpt lat="44.44043" lon="1.3057">
        <ele>266.611</ele>
        <time>2014-04-01T10:54:47Z</time>
      </trkpt>
      <trkpt lat="44.44051" lon="1.30572">
        <ele>265.621</ele>
        <time>2014-04-01T10:54:49Z</time>
      </trkpt>
      <trkpt lat="44.4406" lon="1.30573">
        <ele>264.131</ele>
        <time>2014-04-01T10:54:51Z</time>
      </trkpt>
      <trkpt lat="44.4407" lon="1.30575">
        <ele>262.58</ele>
        <time>2014-04-01T10:54:53Z</time>
      </trkpt>
      <trkpt lat="44.44087" lon="1.30574">
        <ele>261.05</ele>
        <time>2014-04-01T10:54:56Z</time>
      </trkpt>
      <trkpt lat="44.44115" lon="1.30563">
        <ele>260.112</ele>
        <time>2014-04-01T10:55:02Z</time>
      </trkpt>
      <trkpt lat="44.44138" lon="1.30553">
        <ele>259.893</ele>
        <time>2014-04-01T10:55:09Z</time>
      </trkpt>
      <trkpt lat="44.44159" lon="1.30548">
        <ele>260.793</ele>
        <time>2014-04-01T10:55:16Z</time>
      </trkpt>
      <trkpt lat="44.44176" lon="1.30547">
        <ele>261.344</ele>
        <time>2014-04-01T10:55:22Z</time>
      </trkpt>
      <trkpt lat="44.44196" lon="1.30543">
        <ele>260.843</ele>
        <time>2014-04-01T10:55:28Z</time>
      </trkpt>
      <trkpt lat="44.44227" lon="1.30534">
        <ele>260.283</ele>
        <time>2014-04-01T10:55:36Z</time>
      </trkpt>
      <trkpt lat="44.44239" lon="1.30527">
        <ele>259.432</ele>
        <time>2014-04-01T10:55:40Z</time>
      </trkpt>
      <trkpt lat="44.44244" lon="1.30519">
        <ele>259.202</ele>
        <time>2014-04-01T10:55:42Z</time>
      </trkpt>
      <trkpt lat="44.44249" lon="1.30503">
        <ele>258.291</ele>
        <time>2014-04-01T10:55:45Z</time>
      </trkpt>
      <trkpt lat="44.44261" lon="1.30486">
        <ele>257.061</ele>
        <time>2014-04-01T10:55:49Z</time>
      </trkpt>
      <trkpt lat="44.44282" lon="1.30486">
        <ele>257.673</ele>
        <time>2014-04-01T10:55:54Z</time>
      </trkpt>
      <trkpt lat="44.44301" lon="1.30468">
        <ele>256.662</ele>
        <time>2014-04-01T10:55:59Z</time>
      </trkpt>
      <trkpt lat="44.44317" lon="1.30453">
        <ele>255.622</ele>
        <time>2014-04-01T10:56:04Z</time>
      </trkpt>
      <trkpt lat="44.44319" lon="1.30453">
        <ele>255.362</ele>
        <time>2014-04-01T10:56:05Z</time>
      </trkpt>
      <trkpt lat="44.44331" lon="1.30449">
        <ele>255.194</ele>
        <time>2014-04-01T10:56:11Z</time>
      </trkpt>
      <trkpt lat="44.44351" lon="1.30441">
        <ele>255.373</ele>
        <time>2014-04-01T10:56:17Z</time>
      </trkpt>
      <trkpt lat="44.44368" lon="1.30426">
        <ele>255.083</ele>
        <time>2014-04-01T10:56:22Z</time>
      </trkpt>
      <trkpt lat="44.44372" lon="1.30422">
        <ele>254.983</ele>
        <time>2014-04-01T10:56:23Z</time>
      </trkpt>
      <trkpt lat="44.44391" lon="1.30405">
        <ele>254.403</ele>
        <time>2014-04-01T10:56:29Z</time>
      </trkpt>
      <trkpt lat="44.44399" lon="1.30398">
        <ele>254.094</ele>
        <time>2014-04-01T10:56:34Z</time>
      </trkpt>
      <trkpt lat="44.44406" lon="1.30388">
        <ele>253.244</ele>
        <time>2014-04-01T10:56:40Z</time>
      </trkpt>
    </trkseg>
  </trk>
  <trk>
    <name><![CDATA[2014-04-01-08-18-57]]></name>
    <trkseg>
      <trkpt lat="44.4441" lon="1.30379">
        <ele>250.803</ele>
        <time>2014-04-01T10:57:18Z</time>
      </trkpt>
      <trkpt lat="44.44415" lon="1.3037">
        <ele>249.789</ele>
        <time>2014-04-01T10:57:20Z</time>
      </trkpt>
      <trkpt lat="44.44437" lon="1.30352">
        <ele>248.156</ele>
        <time>2014-04-01T10:57:25Z</time>
      </trkpt>
      <trkpt lat="44.44448" lon="1.30346">
        <ele>247.818</ele>
        <time>2014-04-01T10:57:27Z</time>
      </trkpt>
      <trkpt lat="44.44465" lon="1.30344">
        <ele>247.772</ele>
        <time>2014-04-01T10:57:30Z</time>
      </trkpt>
      <trkpt lat="44.4448" lon="1.30335">
        <ele>246.637</ele>
        <time>2014-04-01T10:57:34Z</time>
      </trkpt>
      <trkpt lat="44.44498" lon="1.30305">
        <ele>242.98</ele>
        <time>2014-04-01T10:57:40Z</time>
      </trkpt>
      <trkpt lat="44.44514" lon="1.30298">
        <ele>241.363</ele>
        <time>2014-04-01T10:57:44Z</time>
      </trkpt>
      <trkpt lat="44.44517" lon="1.30294">
        <ele>240.638</ele>
        <time>2014-04-01T10:57:45Z</time>
      </trkpt>
      <trkpt lat="44.44529" lon="1.3028">
        <ele>238.216</ele>
        <time>2014-04-01T10:57:48Z</time>
      </trkpt>
      <trkpt lat="44.44547" lon="1.30264">
        <ele>234.984</ele>
        <time>2014-04-01T10:57:53Z</time>
      </trkpt>
      <trkpt lat="44.4456" lon="1.3025">
        <ele>231.94</ele>
        <time>2014-04-01T10:57:56Z</time>
      </trkpt>
      <trkpt lat="44.44571" lon="1.30242">
        <ele>229.642</ele>
        <time>2014-04-01T10:57:59Z</time>
      </trkpt>
      <trkpt lat="44.44592" lon="1.30218">
        <ele>224.022</ele>
        <time>2014-04-01T10:58:05Z</time>
      </trkpt>
      <trkpt lat="44.44601" lon="1.3021">
        <ele>221.18</ele>
        <time>2014-04-01T10:58:08Z</time>
      </trkpt>
      <trkpt lat="44.44612" lon="1.30204">
        <ele>218.329</ele>
        <time>2014-04-01T10:58:11Z</time>
      </trkpt>
      <trkpt lat="44.44617" lon="1.30198">
        <ele>216.328</ele>
        <time>2014-04-01T10:58:13Z</time>
      </trkpt>
      <trkpt lat="44.44628" lon="1.30172">
        <ele>209.932</ele>
        <time>2014-04-01T10:58:19Z</time>
      </trkpt>
      <trkpt lat="44.44637" lon="1.30165">
        <ele>207.556</ele>
        <time>2014-04-01T10:58:21Z</time>
      </trkpt>
      <trkpt lat="44.44656" lon="1.30145">
        <ele>201.711</ele>
        <time>2014-04-01T10:58:26Z</time>
      </trkpt>
      <trkpt lat="44.44668" lon="1.30132">
        <ele>197.385</ele>
        <time>2014-04-01T10:58:30Z</time>
      </trkpt>
      <trkpt lat="44.44675" lon="1.30127">
        <ele>195.193</ele>
        <time>2014-04-01T10:58:32Z</time>
      </trkpt>
      <trkpt lat="44.44687" lon="1.30114">
        <ele>191.36</ele>
        <time>2014-04-01T10:58:36Z</time>
      </trkpt>
      <trkpt lat="44.44694" lon="1.30091">
        <ele>186.457</ele>
        <time>2014-04-01T10:58:41Z</time>
      </trkpt>
      <trkpt lat="44.44702" lon="1.30075">
        <ele>181.57</ele>
        <time>2014-04-01T10:58:46Z</time>
      </trkpt>
      <trkpt lat="44.44712" lon="1.30072">
        <ele>179.645</ele>
        <time>2014-04-01T10:58:48Z</time>
      </trkpt>
      <trkpt lat="44.44726" lon="1.30065">
        <ele>176.399</ele>
        <time>2014-04-01T10:58:51Z</time>
      </trkpt>
      <trkpt lat="44.44746" lon="1.30049">
        <ele>171.068</ele>
        <time>2014-04-01T10:58:56Z</time>
      </trkpt>
      <trkpt lat="44.4477" lon="1.30039">
        <ele>165.281</ele>
        <time>2014-04-01T10:59:01Z</time>
      </trkpt>
      <trkpt lat="44.44772" lon="1.30029">
        <ele>162.999</ele>
        <time>2014-04-01T10:59:03Z</time>
      </trkpt>
      <trkpt lat="44.44775" lon="1.30025">
        <ele>161.692</ele>
        <time>2014-04-01T10:59:04Z</time>
      </trkpt>
      <trkpt lat="44.44795" lon="1.30002">
        <ele>154.045</ele>
        <time>2014-04-01T10:59:10Z</time>
      </trkpt>
      <trkpt lat="44.44801" lon="1.29996">
        <ele>152.381</ele>
        <time>2014-04-01T10:59:12Z</time>
      </trkpt>
      <trkpt lat="44.44813" lon="1.3">
        <ele>150.368</ele>
        <time>2014-04-01T10:59:16Z</time>
      </trkpt>
      <trkpt lat="44.44814" lon="1.30015">
        <ele>150.442</ele>
        <time>2014-04-01T10:59:19Z</time>
      </trkpt>
      <trkpt lat="44.44812" lon="1.30029">
        <ele>151.165</ele>
        <time>2014-04-01T10:59:23Z</time>
      </trkpt>
      <trkpt lat="44.44816" lon="1.30039">
        <ele>152.415</ele>
        <time>2014-04-01T10:59:29Z</time>
      </trkpt>
    </trkseg>
  </trk>
  <trk>
    <name><![CDATA[2014-04-01-08-18-57]]></name>
    <trkseg>
      <trkpt lat="44.44827" lon="1.3004">
        <ele>151.943</ele>
        <time>2014-04-01T11:00:33Z</time>
      </trkpt>
      <trkpt lat="44.44851" lon="1.30035">
        <ele>145.99</ele>
        <time>2014-04-01T11:00:38Z</time>
      </trkpt>
      <trkpt lat="44.44855" lon="1.30034">
        <ele>144.741</ele>
        <time>2014-04-01T11:00:39Z</time>
      </trkpt>
      <trkpt lat="44.44863" lon="1.30034">
        <ele>142.221</ele>
        <time>2014-04-01T11:00:43Z</time>
      </trkpt>
      <trkpt lat="44.44863" lon="1.30034">
        <ele>141.755</ele>
        <time>2014-04-01T11:00:44Z</time>
      </trkpt>
    </trkseg>
  </trk>
  <trk>
    <name><![CDATA[2014-04-01-08-18-57]]></name>
    <trkseg>
      <trkpt lat="44.44875" lon="1.30041">
        <ele>141.003</ele>
        <time>2014-04-01T11:01:06Z</time>
      </trkpt>
      <trkpt lat="44.44894" lon="1.30045">
        <ele>136.541</ele>
        <time>2014-04-01T11:01:10Z</time>
      </trkpt>
      <trkpt lat="44.44907" lon="1.30049">
        <ele>132.451</ele>
        <time>2014-04-01T11:01:14Z</time>
      </trkpt>
      <trkpt lat="44.44916" lon="1.30049">
        <ele>128.691</ele>
        <time>2014-04-01T11:01:18Z</time>
      </trkpt>
      <trkpt lat="44.44921" lon="1.30054">
        <ele>126.962</ele>
        <time>2014-04-01T11:01:20Z</time>
      </trkpt>
      <trkpt lat="44.44923" lon="1.30061">
        <ele>124.813</ele>
        <time>2014-04-01T11:01:25Z</time>
      </trkpt>
      <trkpt lat="44.44923" lon="1.30061">
        <ele>124.799</ele>
        <time>2014-04-01T11:01:26Z</time>
      </trkpt>
    </trkseg>
  </trk>
  <trk>
    <name><![CDATA[2014-04-01-08-18-57]]></name>
    <trkseg>
      <trkpt lat="44.44924" lon="1.3006">
        <ele>129.172</ele>
        <time>2014-04-01T11:02:27Z</time>
      </trkpt>
    </trkseg>
  </trk>
  <trk>
    <name><![CDATA[2014-04-01-08-18-57]]></name>
    <trkseg>
      <trkpt lat="44.44927" lon="1.30066">
        <ele>128.705</ele>
        <time>2014-04-01T11:02:32Z</time>
      </trkpt>
      <trkpt lat="44.44929" lon="1.30072">
        <ele>126.873</ele>
        <time>2014-04-01T11:02:35Z</time>
      </trkpt>
      <trkpt lat="44.44926" lon="1.30078">
        <ele>125.525</ele>
        <time>2014-04-01T11:02:40Z</time>
      </trkpt>
      <trkpt lat="44.44909" lon="1.30091">
        <ele>126.106</ele>
        <time>2014-04-01T11:02:49Z</time>
      </trkpt>
      <trkpt lat="44.44894" lon="1.30105">
        <ele>127.877</ele>
        <time>2014-04-01T11:02:56Z</time>
      </trkpt>
      <trkpt lat="44.44881" lon="1.3012">
        <ele>128.887</ele>
        <time>2014-04-01T11:03:03Z</time>
      </trkpt>
      <trkpt lat="44.44863" lon="1.30141">
        <ele>130.146</ele>
        <time>2014-04-01T11:03:12Z</time>
      </trkpt>
      <trkpt lat="44.44849" lon="1.30157">
        <ele>130.456</ele>
        <time>2014-04-01T11:03:18Z</time>
      </trkpt>
      <trkpt lat="44.44835" lon="1.30175">
        <ele>132.276</ele>
        <time>2014-04-01T11:03:25Z</time>
      </trkpt>
      <trkpt lat="44.44822" lon="1.30195">
        <ele>132.726</ele>
        <time>2014-04-01T11:03:32Z</time>
      </trkpt>
      <trkpt lat="44.44807" lon="1.30221">
        <ele>133.816</ele>
        <time>2014-04-01T11:03:41Z</time>
      </trkpt>
      <trkpt lat="44.44796" lon="1.30241">
        <ele>134.116</ele>
        <time>2014-04-01T11:03:48Z</time>
      </trkpt>
      <trkpt lat="44.44778" lon="1.30275">
        <ele>134.506</ele>
        <time>2014-04-01T11:03:59Z</time>
      </trkpt>
      <trkpt lat="44.44767" lon="1.30297">
        <ele>134.776</ele>
        <time>2014-04-01T11:04:06Z</time>
      </trkpt>
      <trkpt lat="44.44757" lon="1.30321">
        <ele>134.295</ele>
        <time>2014-04-01T11:04:13Z</time>
      </trkpt>
      <trkpt lat="44.44744" lon="1.3035">
        <ele>135.666</ele>
        <time>2014-04-01T11:04:21Z</time>
      </trkpt>
      <trkpt lat="44.44732" lon="1.30379">
        <ele>137.086</ele>
        <time>2014-04-01T11:04:29Z</time>
      </trkpt>
      <trkpt lat="44.44723" lon="1.30405">
        <ele>137.846</ele>
        <time>2014-04-01T11:04:36Z</time>
      </trkpt>
      <trkpt lat="44.44714" lon="1.30428">
        <ele>138.856</ele>
        <time>2014-04-01T11:04:42Z</time>
      </trkpt>
      <trkpt lat="44.44707" lon="1.30451">
        <ele>139.687</ele>
        <time>2014-04-01T11:04:48Z</time>
      </trkpt>
      <trkpt lat="44.44698" lon="1.30479">
        <ele>140.737</ele>
        <time>2014-04-01T11:04:55Z</time>
      </trkpt>
      <trkpt lat="44.44691" lon="1.30497">
        <ele>142.498</ele>
        <time>2014-04-01T11:05:00Z</time>
      </trkpt>
      <trkpt lat="44.44681" lon="1.30526">
        <ele>145.398</ele>
        <time>2014-04-01T11:05:08Z</time>
      </trkpt>
      <trkpt lat="44.44674" lon="1.30551">
        <ele>145.357</ele>
        <time>2014-04-01T11:05:15Z</time>
      </trkpt>
      <trkpt lat="44.44673" lon="1.30554">
        <ele>144.736</ele>
        <time>2014-04-01T11:05:18Z</time>
      </trkpt>
    </trkseg>
  </trk>
  <trk>
    <name><![CDATA[2014-04-01-08-18-57]]></name>
    <trkseg>
      <trkpt lat="44.44667" lon="1.30564">
        <ele>140.906</ele>
        <time>2014-04-01T11:05:29Z</time>
      </trkpt>
      <trkpt lat="44.44656" lon="1.30586">
        <ele>140.386</ele>
        <time>2014-04-01T11:05:36Z</time>
      </trkpt>
      <trkpt lat="44.44643" lon="1.30597">
        <ele>142.007</ele>
        <time>2014-04-01T11:05:42Z</time>
      </trkpt>
      <trkpt lat="44.4462" lon="1.30611">
        <ele>144.666</ele>
        <time>2014-04-01T11:05:51Z</time>
      </trkpt>
      <trkpt lat="44.44601" lon="1.30623">
        <ele>144.306</ele>
        <time>2014-04-01T11:05:58Z</time>
      </trkpt>
      <trkpt lat="44.44588" lon="1.30633">
        <ele>144.786</ele>
        <time>2014-04-01T11:06:03Z</time>
      </trkpt>
      <trkpt lat="44.4457" lon="1.30646">
        <ele>146.157</ele>
        <time>2014-04-01T11:06:10Z</time>
      </trkpt>
      <trkpt lat="44.44548" lon="1.30665">
        <ele>143.726</ele>
        <time>2014-04-01T11:06:19Z</time>
      </trkpt>
      <trkpt lat="44.44529" lon="1.30683">
        <ele>141.676</ele>
        <time>2014-04-01T11:06:26Z</time>
      </trkpt>
      <trkpt lat="44.4451" lon="1.30707">
        <ele>140.775</ele>
        <time>2014-04-01T11:06:34Z</time>
      </trkpt>
      <trkpt lat="44.4451" lon="1.30726">
        <ele>140.385</ele>
        <time>2014-04-01T11:06:38Z</time>
      </trkpt>
      <trkpt lat="44.44517" lon="1.30744">
        <ele>139.755</ele>
        <time>2014-04-01T11:06:42Z</time>
      </trkpt>
      <trkpt lat="44.44512" lon="1.30759">
        <ele>140.006</ele>
        <time>2014-04-01T11:06:47Z</time>
      </trkpt>
      <trkpt lat="44.44503" lon="1.30766">
        <ele>139.806</ele>
        <time>2014-04-01T11:06:51Z</time>
      </trkpt>
      <trkpt lat="44.44484" lon="1.30785">
        <ele>140.965</ele>
        <time>2014-04-01T11:07:00Z</time>
      </trkpt>
      <trkpt lat="44.44469" lon="1.30806">
        <ele>142.836</ele>
        <time>2014-04-01T11:07:08Z</time>
      </trkpt>
      <trkpt lat="44.44458" lon="1.30831">
        <ele>143.375</ele>
        <time>2014-04-01T11:07:16Z</time>
      </trkpt>
      <trkpt lat="44.44447" lon="1.30852">
        <ele>144.206</ele>
        <time>2014-04-01T11:07:24Z</time>
      </trkpt>
      <trkpt lat="44.4443" lon="1.30866">
        <ele>143.425</ele>
        <time>2014-04-01T11:07:31Z</time>
      </trkpt>
      <trkpt lat="44.44427" lon="1.30868">
        <ele>143.285</ele>
        <time>2014-04-01T11:07:32Z</time>
      </trkpt>
      <trkpt lat="44.44409" lon="1.30871">
        <ele>140.634</ele>
        <time>2014-04-01T11:07:36Z</time>
      </trkpt>
      <trkpt lat="44.4437" lon="1.30875">
        <ele>140.286</ele>
        <time>2014-04-01T11:07:45Z</time>
      </trkpt>
      <trkpt lat="44.44346" lon="1.3088">
        <ele>141.056</ele>
        <time>2014-04-01T11:07:52Z</time>
      </trkpt>
      <trkpt lat="44.44321" lon="1.30882">
        <ele>142.866</ele>
        <time>2014-04-01T11:08:00Z</time>
      </trkpt>
      <trkpt lat="44.44293" lon="1.30878">
        <ele>143.126</ele>
        <time>2014-04-01T11:08:10Z</time>
      </trkpt>
      <trkpt lat="44.44276" lon="1.30871">
        <ele>143.846</ele>
        <time>2014-04-01T11:08:18Z</time>
      </trkpt>
      <trkpt lat="44.44256" lon="1.30867">
        <ele>145.775</ele>
        <time>2014-04-01T11:08:28Z</time>
      </trkpt>
      <trkpt lat="44.44242" lon="1.30866">
        <ele>146.685</ele>
        <time>2014-04-01T11:08:35Z</time>
      </trkpt>
      <trkpt lat="44.44224" lon="1.30865">
        <ele>147.255</ele>
        <time>2014-04-01T11:08:44Z</time>
      </trkpt>
      <trkpt lat="44.44209" lon="1.30865">
        <ele>148.856</ele>
        <time>2014-04-01T11:08:52Z</time>
      </trkpt>
      <trkpt lat="44.44192" lon="1.30864">
        <ele>151.706</ele>
        <time>2014-04-01T11:09:01Z</time>
      </trkpt>
      <trkpt lat="44.44174" lon="1.30865">
        <ele>154.206</ele>
        <time>2014-04-01T11:09:11Z</time>
      </trkpt>
      <trkpt lat="44.44155" lon="1.30871">
        <ele>156.295</ele>
        <time>2014-04-01T11:09:21Z</time>
      </trkpt>
      <trkpt lat="44.4414" lon="1.30876">
        <ele>156.436</ele>
        <time>2014-04-01T11:09:28Z</time>
      </trkpt>
      <trkpt lat="44.4412" lon="1.3088">
        <ele>156.614</ele>
        <time>2014-04-01T11:09:35Z</time>
      </trkpt>
      <trkpt lat="44.44097" lon="1.30888">
        <ele>157.594</ele>
        <time>2014-04-01T11:09:43Z</time>
      </trkpt>
      <trkpt lat="44.44073" lon="1.30902">
        <ele>156.734</ele>
        <time>2014-04-01T11:09:51Z</time>
      </trkpt>
      <trkpt lat="44.44049" lon="1.30912">
        <ele>155.553</ele>
        <time>2014-04-01T11:09:57Z</time>
      </trkpt>
      <trkpt lat="44.44013" lon="1.30923">
        <ele>155.094</ele>
        <time>2014-04-01T11:10:05Z</time>
      </trkpt>
      <trkpt lat="44.43979" lon="1.30931">
        <ele>155.244</ele>
        <time>2014-04-01T11:10:14Z</time>
      </trkpt>
      <trkpt lat="44.43955" lon="1.30945">
        <ele>155.544</ele>
        <time>2014-04-01T11:10:22Z</time>
      </trkpt>
      <trkpt lat="44.43935" lon="1.30963">
        <ele>156.684</ele>
        <time>2014-04-01T11:10:31Z</time>
      </trkpt>
      <trkpt lat="44.43919" lon="1.30975">
        <ele>156.974</ele>
        <time>2014-04-01T11:10:38Z</time>
      </trkpt>
      <trkpt lat="44.43902" lon="1.30991">
        <ele>158.954</ele>
        <time>2014-04-01T11:10:47Z</time>
      </trkpt>
      <trkpt lat="44.43885" lon="1.31016">
        <ele>161.394</ele>
        <time>2014-04-01T11:10:57Z</time>
      </trkpt>
      <trkpt lat="44.43873" lon="1.31038">
        <ele>163.484</ele>
        <time>2014-04-01T11:11:06Z</time>
      </trkpt>
      <trkpt lat="44.43864" lon="1.31054">
        <ele>165.394</ele>
        <time>2014-04-01T11:11:14Z</time>
      </trkpt>
      <trkpt lat="44.43863" lon="1.31069">
        <ele>166.844</ele>
        <time>2014-04-01T11:11:21Z</time>
      </trkpt>
      <trkpt lat="44.43864" lon="1.31087">
        <ele>168.383</ele>
        <time>2014-04-01T11:11:27Z</time>
      </trkpt>
      <trkpt lat="44.43868" lon="1.31111">
        <ele>169.894</ele>
        <time>2014-04-01T11:11:33Z</time>
      </trkpt>
      <trkpt lat="44.43867" lon="1.31133">
        <ele>170.944</ele>
        <time>2014-04-01T11:11:38Z</time>
      </trkpt>
      <trkpt lat="44.43865" lon="1.31157">
        <ele>170.664</ele>
        <time>2014-04-01T11:11:44Z</time>
      </trkpt>
      <trkpt lat="44.43858" lon="1.31177">
        <ele>171.504</ele>
        <time>2014-04-01T11:11:50Z</time>
      </trkpt>
      <trkpt lat="44.43849" lon="1.31205">
        <ele>173.855</ele>
        <time>2014-04-01T11:11:58Z</time>
      </trkpt>
      <trkpt lat="44.43845" lon="1.31221">
        <ele>173.914</ele>
        <time>2014-04-01T11:12:03Z</time>
      </trkpt>
      <trkpt lat="44.43837" lon="1.31241">
        <ele>174.373</ele>
        <time>2014-04-01T11:12:10Z</time>
      </trkpt>
      <trkpt lat="44.43825" lon="1.31254">
        <ele>173.333</ele>
        <time>2014-04-01T11:12:17Z</time>
      </trkpt>
      <trkpt lat="44.43815" lon="1.31268">
        <ele>173.093</ele>
        <time>2014-04-01T11:12:24Z</time>
      </trkpt>
      <trkpt lat="44.43806" lon="1.31282">
        <ele>173.533</ele>
        <time>2014-04-01T11:12:31Z</time>
      </trkpt>
      <trkpt lat="44.438" lon="1.31296">
        <ele>174.364</ele>
        <time>2014-04-01T11:12:37Z</time>
      </trkpt>
      <trkpt lat="44.43791" lon="1.31314">
        <ele>177.015</ele>
        <time>2014-04-01T11:12:44Z</time>
      </trkpt>
      <trkpt lat="44.43779" lon="1.31336">
        <ele>180.545</ele>
        <time>2014-04-01T11:12:53Z</time>
      </trkpt>
      <trkpt lat="44.43771" lon="1.31351">
        <ele>182.035</ele>
        <time>2014-04-01T11:12:59Z</time>
      </trkpt>
      <trkpt lat="44.43762" lon="1.31373">
        <ele>183.154</ele>
        <time>2014-04-01T11:13:07Z</time>
      </trkpt>
      <trkpt lat="44.43754" lon="1.31391">
        <ele>181.573</ele>
        <time>2014-04-01T11:13:13Z</time>
      </trkpt>
      <trkpt lat="44.43743" lon="1.31409">
        <ele>181.613</ele>
        <time>2014-04-01T11:13:20Z</time>
      </trkpt>
      <trkpt lat="44.43734" lon="1.31424">
        <ele>181.743</ele>
        <time>2014-04-01T11:13:26Z</time>
      </trkpt>
      <trkpt lat="44.43725" lon="1.31437">
        <ele>182.374</ele>
        <time>2014-04-01T11:13:32Z</time>
      </trkpt>
      <trkpt lat="44.43716" lon="1.31458">
        <ele>183.804</ele>
        <time>2014-04-01T11:13:41Z</time>
      </trkpt>
      <trkpt lat="44.43707" lon="1.31471">
        <ele>185.284</ele>
        <time>2014-04-01T11:13:47Z</time>
      </trkpt>
      <trkpt lat="44.43695" lon="1.31491">
        <ele>185.304</ele>
        <time>2014-04-01T11:13:55Z</time>
      </trkpt>
      <trkpt lat="44.4368" lon="1.31505">
        <ele>186.054</ele>
        <time>2014-04-01T11:14:04Z</time>
      </trkpt>
      <trkpt lat="44.4367" lon="1.31515">
        <ele>186.504</ele>
        <time>2014-04-01T11:14:10Z</time>
      </trkpt>
      <trkpt lat="44.43658" lon="1.31527">
        <ele>187.234</ele>
        <time>2014-04-01T11:14:17Z</time>
      </trkpt>
      <trkpt lat="44.43646" lon="1.31541">
        <ele>188.984</ele>
        <time>2014-04-01T11:14:25Z</time>
      </trkpt>
      <trkpt lat="44.43636" lon="1.31551">
        <ele>189.754</ele>
        <time>2014-04-01T11:14:32Z</time>
      </trkpt>
      <trkpt lat="44.43628" lon="1.31559">
        <ele>188.933</ele>
        <time>2014-04-01T11:14:39Z</time>
      </trkpt>
      <trkpt lat="44.43621" lon="1.31568">
        <ele>188.933</ele>
        <time>2014-04-01T11:14:45Z</time>
      </trkpt>
      <trkpt lat="44.43615" lon="1.31576">
        <ele>190.634</ele>
        <time>2014-04-01T11:14:51Z</time>
      </trkpt>
      <trkpt lat="44.43608" lon="1.31587">
        <ele>193.764</ele>
        <time>2014-04-01T11:14:58Z</time>
      </trkpt>
      <trkpt lat="44.43605" lon="1.31592">
        <ele>194.074</ele>
        <time>2014-04-01T11:15:01Z</time>
      </trkpt>
      <trkpt lat="44.43597" lon="1.31604">
        <ele>194.924</ele>
        <time>2014-04-01T11:15:08Z</time>
      </trkpt>
      <trkpt lat="44.43589" lon="1.3162">
        <ele>194.963</ele>
        <time>2014-04-01T11:15:16Z</time>
      </trkpt>
      <trkpt lat="44.43582" lon="1.31631">
        <ele>196.404</ele>
        <time>2014-04-01T11:15:23Z</time>
      </trkpt>
      <trkpt lat="44.43574" lon="1.31643">
        <ele>196.993</ele>
        <time>2014-04-01T11:15:30Z</time>
      </trkpt>
      <trkpt lat="44.43567" lon="1.31654">
        <ele>197.303</ele>
        <time>2014-04-01T11:15:36Z</time>
      </trkpt>
      <trkpt lat="44.43558" lon="1.31669">
        <ele>197.143</ele>
        <time>2014-04-01T11:15:43Z</time>
      </trkpt>
      <trkpt lat="44.43551" lon="1.3168">
        <ele>196.083</ele>
        <time>2014-04-01T11:15:49Z</time>
      </trkpt>
      <trkpt lat="44.4354" lon="1.31696">
        <ele>197.174</ele>
        <time>2014-04-01T11:15:58Z</time>
      </trkpt>
      <trkpt lat="44.43533" lon="1.31708">
        <ele>199.264</ele>
        <time>2014-04-01T11:16:05Z</time>
      </trkpt>
      <trkpt lat="44.43525" lon="1.31719">
        <ele>201.184</ele>
        <time>2014-04-01T11:16:12Z</time>
      </trkpt>
      <trkpt lat="44.43519" lon="1.31734">
        <ele>203.444</ele>
        <time>2014-04-01T11:16:20Z</time>
      </trkpt>
      <trkpt lat="44.43512" lon="1.31745">
        <ele>203.163</ele>
        <time>2014-04-01T11:16:26Z</time>
      </trkpt>
      <trkpt lat="44.43503" lon="1.31754">
        <ele>201.183</ele>
        <time>2014-04-01T11:16:33Z</time>
      </trkpt>
      <trkpt lat="44.43489" lon="1.31765">
        <ele>198.883</ele>
        <time>2014-04-01T11:16:42Z</time>
      </trkpt>
      <trkpt lat="44.4348" lon="1.31776">
        <ele>201.504</ele>
        <time>2014-04-01T11:16:49Z</time>
      </trkpt>
      <trkpt lat="44.43472" lon="1.31786">
        <ele>203.554</ele>
        <time>2014-04-01T11:16:56Z</time>
      </trkpt>
      <trkpt lat="44.43462" lon="1.31799">
        <ele>204.423</ele>
        <time>2014-04-01T11:17:04Z</time>
      </trkpt>
      <trkpt lat="44.4345" lon="1.31813">
        <ele>202.433</ele>
        <time>2014-04-01T11:17:13Z</time>
      </trkpt>
      <trkpt lat="44.43441" lon="1.31822">
        <ele>203.293</ele>
        <time>2014-04-01T11:17:20Z</time>
      </trkpt>
      <trkpt lat="44.43432" lon="1.3183">
        <ele>204.273</ele>
        <time>2014-04-01T11:17:27Z</time>
      </trkpt>
      <trkpt lat="44.43421" lon="1.3184">
        <ele>205.063</ele>
        <time>2014-04-01T11:17:35Z</time>
      </trkpt>
      <trkpt lat="44.43412" lon="1.31847">
        <ele>207.915</ele>
        <time>2014-04-01T11:17:42Z</time>
      </trkpt>
      <trkpt lat="44.43404" lon="1.31854">
        <ele>210.764</ele>
        <time>2014-04-01T11:17:48Z</time>
      </trkpt>
      <trkpt lat="44.43392" lon="1.31867">
        <ele>211.633</ele>
        <time>2014-04-01T11:17:57Z</time>
      </trkpt>
      <trkpt lat="44.43388" lon="1.31872">
        <ele>212.174</ele>
        <time>2014-04-01T11:18:00Z</time>
      </trkpt>
      <trkpt lat="44.43378" lon="1.31889">
        <ele>210.724</ele>
        <time>2014-04-01T11:18:08Z</time>
      </trkpt>
      <trkpt lat="44.4337" lon="1.31901">
        <ele>211.163</ele>
        <time>2014-04-01T11:18:14Z</time>
      </trkpt>
      <trkpt lat="44.4336" lon="1.31917">
        <ele>210.413</ele>
        <time>2014-04-01T11:18:22Z</time>
      </trkpt>
      <trkpt lat="44.43348" lon="1.31928">
        <ele>212.194</ele>
        <time>2014-04-01T11:18:29Z</time>
      </trkpt>
      <trkpt lat="44.43333" lon="1.31936">
        <ele>213.904</ele>
        <time>2014-04-01T11:18:37Z</time>
      </trkpt>
      <trkpt lat="44.43319" lon="1.31942">
        <ele>215.344</ele>
        <time>2014-04-01T11:18:44Z</time>
      </trkpt>
      <trkpt lat="44.43306" lon="1.31949">
        <ele>215.534</ele>
        <time>2014-04-01T11:18:49Z</time>
      </trkpt>
      <trkpt lat="44.43289" lon="1.31963">
        <ele>213.883</ele>
        <time>2014-04-01T11:18:55Z</time>
      </trkpt>
      <trkpt lat="44.43275" lon="1.31976">
        <ele>213.604</ele>
        <time>2014-04-01T11:19:01Z</time>
      </trkpt>
      <trkpt lat="44.4326" lon="1.31993">
        <ele>213.993</ele>
        <time>2014-04-01T11:19:09Z</time>
      </trkpt>
      <trkpt lat="44.43251" lon="1.32006">
        <ele>215.114</ele>
        <time>2014-04-01T11:19:15Z</time>
      </trkpt>
      <trkpt lat="44.43252" lon="1.32019">
        <ele>216.474</ele>
        <time>2014-04-01T11:19:19Z</time>
      </trkpt>
      <trkpt lat="44.43253" lon="1.32034">
        <ele>218.194</ele>
        <time>2014-04-01T11:19:24Z</time>
      </trkpt>
      <trkpt lat="44.43243" lon="1.32056">
        <ele>219.603</ele>
        <time>2014-04-01T11:19:33Z</time>
      </trkpt>
      <trkpt lat="44.43235" lon="1.32076">
        <ele>219.493</ele>
        <time>2014-04-01T11:19:41Z</time>
      </trkpt>
      <trkpt lat="44.43227" lon="1.32097">
        <ele>219.724</ele>
        <time>2014-04-01T11:19:49Z</time>
      </trkpt>
      <trkpt lat="44.43223" lon="1.32117">
        <ele>221.063</ele>
        <time>2014-04-01T11:19:56Z</time>
      </trkpt>
      <trkpt lat="44.43218" lon="1.32131">
        <ele>222.013</ele>
        <time>2014-04-01T11:20:02Z</time>
      </trkpt>
      <trkpt lat="44.43216" lon="1.32132">
        <ele>222.024</ele>
        <time>2014-04-01T11:20:03Z</time>
      </trkpt>
      <trkpt lat="44.43203" lon="1.32132">
        <ele>222.913</ele>
        <time>2014-04-01T11:20:09Z</time>
      </trkpt>
      <trkpt lat="44.43193" lon="1.32125">
        <ele>222.133</ele>
        <time>2014-04-01T11:20:13Z</time>
      </trkpt>
      <trkpt lat="44.43172" lon="1.32104">
        <ele>223.103</ele>
        <time>2014-04-01T11:20:21Z</time>
      </trkpt>
      <trkpt lat="44.43162" lon="1.32098">
        <ele>224.824</ele>
        <time>2014-04-01T11:20:26Z</time>
      </trkpt>
      <trkpt lat="44.43152" lon="1.32092">
        <ele>226.754</ele>
        <time>2014-04-01T11:20:32Z</time>
      </trkpt>
      <trkpt lat="44.43141" lon="1.32088">
        <ele>229.654</ele>
        <time>2014-04-01T11:20:40Z</time>
      </trkpt>
      <trkpt lat="44.43129" lon="1.3209">
        <ele>233.995</ele>
        <time>2014-04-01T11:20:48Z</time>
      </trkpt>
      <trkpt lat="44.43119" lon="1.32094">
        <ele>236.524</ele>
        <time>2014-04-01T11:20:56Z</time>
      </trkpt>
      <trkpt lat="44.43106" lon="1.32104">
        <ele>235.734</ele>
        <time>2014-04-01T11:21:04Z</time>
      </trkpt>
      <trkpt lat="44.43096" lon="1.3211">
        <ele>235.523</ele>
        <time>2014-04-01T11:21:11Z</time>
      </trkpt>
      <trkpt lat="44.43085" lon="1.32115">
        <ele>236.783</ele>
        <time>2014-04-01T11:21:19Z</time>
      </trkpt>
      <trkpt lat="44.43075" lon="1.32119">
        <ele>237.723</ele>
        <time>2014-04-01T11:21:26Z</time>
      </trkpt>
      <trkpt lat="44.43064" lon="1.32122">
        <ele>238.043</ele>
        <time>2014-04-01T11:21:33Z</time>
      </trkpt>
      <trkpt lat="44.43053" lon="1.32126">
        <ele>239.843</ele>
        <time>2014-04-01T11:21:41Z</time>
      </trkpt>
      <trkpt lat="44.43042" lon="1.32131">
        <ele>241.963</ele>
        <time>2014-04-01T11:21:49Z</time>
      </trkpt>
      <trkpt lat="44.4303" lon="1.32133">
        <ele>242.793</ele>
        <time>2014-04-01T11:21:57Z</time>
      </trkpt>
      <trkpt lat="44.43019" lon="1.32134">
        <ele>244.614</ele>
        <time>2014-04-01T11:22:05Z</time>
      </trkpt>
      <trkpt lat="44.43008" lon="1.32134">
        <ele>246.104</ele>
        <time>2014-04-01T11:22:12Z</time>
      </trkpt>
      <trkpt lat="44.43001" lon="1.32134">
        <ele>249.175</ele>
        <time>2014-04-01T11:22:18Z</time>
      </trkpt>
      <trkpt lat="44.4299" lon="1.32134">
        <ele>251.904</ele>
        <time>2014-04-01T11:22:25Z</time>
      </trkpt>
      <trkpt lat="44.4298" lon="1.32136">
        <ele>253.423</ele>
        <time>2014-04-01T11:22:32Z</time>
      </trkpt>
      <trkpt lat="44.42966" lon="1.32144">
        <ele>251.642</ele>
        <time>2014-04-01T11:22:40Z</time>
      </trkpt>
      <trkpt lat="44.42953" lon="1.3215">
        <ele>252.062</ele>
        <time>2014-04-01T11:22:48Z</time>
      </trkpt>
      <trkpt lat="44.4294" lon="1.32155">
        <ele>253.192</ele>
        <time>2014-04-01T11:22:56Z</time>
      </trkpt>
      <trkpt lat="44.42927" lon="1.32163">
        <ele>253.892</ele>
        <time>2014-04-01T11:23:04Z</time>
      </trkpt>
      <trkpt lat="44.42917" lon="1.32169">
        <ele>255.433</ele>
        <time>2014-04-01T11:23:12Z</time>
      </trkpt>
      <trkpt lat="44.42905" lon="1.32176">
        <ele>255.962</ele>
        <time>2014-04-01T11:23:20Z</time>
      </trkpt>
      <trkpt lat="44.42896" lon="1.32179">
        <ele>257.203</ele>
        <time>2014-04-01T11:23:27Z</time>
      </trkpt>
      <trkpt lat="44.42886" lon="1.32175">
        <ele>257.073</ele>
        <time>2014-04-01T11:23:34Z</time>
      </trkpt>
      <trkpt lat="44.42878" lon="1.32177">
        <ele>259.413</ele>
        <time>2014-04-01T11:23:39Z</time>
      </trkpt>
      <trkpt lat="44.42877" lon="1.32178">
        <ele>259.743</ele>
        <time>2014-04-01T11:23:40Z</time>
      </trkpt>
      <trkpt lat="44.42867" lon="1.32185">
        <ele>261.313</ele>
        <time>2014-04-01T11:23:48Z</time>
      </trkpt>
      <trkpt lat="44.42858" lon="1.32189">
        <ele>262.142</ele>
        <time>2014-04-01T11:23:55Z</time>
      </trkpt>
      <trkpt lat="44.42847" lon="1.32194">
        <ele>261.611</ele>
        <time>2014-04-01T11:24:03Z</time>
      </trkpt>
      <trkpt lat="44.42837" lon="1.32199">
        <ele>261.682</ele>
        <time>2014-04-01T11:24:11Z</time>
      </trkpt>
      <trkpt lat="44.42825" lon="1.32202">
        <ele>262.792</ele>
        <time>2014-04-01T11:24:20Z</time>
      </trkpt>
      <trkpt lat="44.42819" lon="1.32197">
        <ele>262.292</ele>
        <time>2014-04-01T11:24:26Z</time>
      </trkpt>
      <trkpt lat="44.42814" lon="1.32192">
        <ele>264.602</ele>
        <time>2014-04-01T11:24:32Z</time>
      </trkpt>
      <trkpt lat="44.42813" lon="1.32192">
        <ele>266.056</ele>
        <time>2014-04-01T11:24:34Z</time>
      </trkpt>
    </trkseg>
  </trk>
  <trk>
    <name><![CDATA[2014-04-01-08-18-57]]></name>
    <trkseg>
      <trkpt lat="44.42811" lon="1.32189">
        <ele>266.241</ele>
        <time>2014-04-01T11:24:42Z</time>
      </trkpt>
    </trkseg>
  </trk>
  <trk>
    <name><![CDATA[2014-04-01-08-18-57]]></name>
    <trkseg>
      <trkpt lat="44.42809" lon="1.32183">
        <ele>268.701</ele>
        <time>2014-04-01T11:25:02Z</time>
      </trkpt>
      <trkpt lat="44.42805" lon="1.3218">
        <ele>270.173</ele>
        <time>2014-04-01T11:25:06Z</time>
      </trkpt>
      <trkpt lat="44.42799" lon="1.32183">
        <ele>271.812</ele>
        <time>2014-04-01T11:25:12Z</time>
      </trkpt>
      <trkpt lat="44.4279" lon="1.32191">
        <ele>271.251</ele>
        <time>2014-04-01T11:25:20Z</time>
      </trkpt>
      <trkpt lat="44.42782" lon="1.32197">
        <ele>273.142</ele>
        <time>2014-04-01T11:25:27Z</time>
      </trkpt>
      <trkpt lat="44.42774" lon="1.32195">
        <ele>275.881</ele>
        <time>2014-04-01T11:25:34Z</time>
      </trkpt>
      <trkpt lat="44.42772" lon="1.32191">
        <ele>276.321</ele>
        <time>2014-04-01T11:25:37Z</time>
      </trkpt>
      <trkpt lat="44.42773" lon="1.32182">
        <ele>276.561</ele>
        <time>2014-04-01T11:25:44Z</time>
      </trkpt>
      <trkpt lat="44.42778" lon="1.32171">
        <ele>274.729</ele>
        <time>2014-04-01T11:25:52Z</time>
      </trkpt>
      <trkpt lat="44.42782" lon="1.32166">
        <ele>273.299</ele>
        <time>2014-04-01T11:25:57Z</time>
      </trkpt>
      <trkpt lat="44.42786" lon="1.3216">
        <ele>272.179</ele>
        <time>2014-04-01T11:26:02Z</time>
      </trkpt>
      <trkpt lat="44.42795" lon="1.32152">
        <ele>274.951</ele>
        <time>2014-04-01T11:26:10Z</time>
      </trkpt>
      <trkpt lat="44.42804" lon="1.32145">
        <ele>276.951</ele>
        <time>2014-04-01T11:26:17Z</time>
      </trkpt>
      <trkpt lat="44.42816" lon="1.32135">
        <ele>277.74</ele>
        <time>2014-04-01T11:26:27Z</time>
      </trkpt>
      <trkpt lat="44.42823" lon="1.32127">
        <ele>278.101</ele>
        <time>2014-04-01T11:26:34Z</time>
      </trkpt>
      <trkpt lat="44.42817" lon="1.32127">
        <ele>279.091</ele>
        <time>2014-04-01T11:26:39Z</time>
      </trkpt>
      <trkpt lat="44.42807" lon="1.32132">
        <ele>280.141</ele>
        <time>2014-04-01T11:26:47Z</time>
      </trkpt>
      <trkpt lat="44.42798" lon="1.32134">
        <ele>281.571</ele>
        <time>2014-04-01T11:26:54Z</time>
      </trkpt>
      <trkpt lat="44.42787" lon="1.32137">
        <ele>283.251</ele>
        <time>2014-04-01T11:27:03Z</time>
      </trkpt>
      <trkpt lat="44.42779" lon="1.32138">
        <ele>285.061</ele>
        <time>2014-04-01T11:27:10Z</time>
      </trkpt>
      <trkpt lat="44.42769" lon="1.3214">
        <ele>287.842</ele>
        <time>2014-04-01T11:27:18Z</time>
      </trkpt>
      <trkpt lat="44.42757" lon="1.32143">
        <ele>290.902</ele>
        <time>2014-04-01T11:27:27Z</time>
      </trkpt>
      <trkpt lat="44.42752" lon="1.32146">
        <ele>292.431</ele>
        <time>2014-04-01T11:27:33Z</time>
      </trkpt>
    </trkseg>
  </trk>
  <trk>
    <name><![CDATA[2014-04-01-08-18-57]]></name>
    <trkseg>
      <trkpt lat="44.42745" lon="1.3215">
        <ele>287.721</ele>
        <time>2014-04-01T11:28:32Z</time>
      </trkpt>
      <trkpt lat="44.42736" lon="1.32159">
        <ele>289.402</ele>
        <time>2014-04-01T11:28:40Z</time>
      </trkpt>
      <trkpt lat="44.4273" lon="1.32171">
        <ele>290.871</ele>
        <time>2014-04-01T11:28:47Z</time>
      </trkpt>
      <trkpt lat="44.42726" lon="1.32186">
        <ele>291.961</ele>
        <time>2014-04-01T11:28:54Z</time>
      </trkpt>
      <trkpt lat="44.4272" lon="1.32201">
        <ele>293.981</ele>
        <time>2014-04-01T11:29:02Z</time>
      </trkpt>
      <trkpt lat="44.42713" lon="1.32215">
        <ele>295.49</ele>
        <time>2014-04-01T11:29:11Z</time>
      </trkpt>
      <trkpt lat="44.42711" lon="1.3222">
        <ele>295.71</ele>
        <time>2014-04-01T11:29:14Z</time>
      </trkpt>
      <trkpt lat="44.42708" lon="1.3222">
        <ele>296.531</ele>
        <time>2014-04-01T11:29:19Z</time>
      </trkpt>
      <trkpt lat="44.4271" lon="1.3221">
        <ele>297.181</ele>
        <time>2014-04-01T11:29:25Z</time>
      </trkpt>
      <trkpt lat="44.42712" lon="1.32184">
        <ele>299.291</ele>
        <time>2014-04-01T11:29:36Z</time>
      </trkpt>
      <trkpt lat="44.42712" lon="1.32161">
        <ele>300.651</ele>
        <time>2014-04-01T11:29:45Z</time>
      </trkpt>
      <trkpt lat="44.42717" lon="1.32147">
        <ele>300.95</ele>
        <time>2014-04-01T11:29:51Z</time>
      </trkpt>
      <trkpt lat="44.42727" lon="1.3213">
        <ele>301.85</ele>
        <time>2014-04-01T11:29:59Z</time>
      </trkpt>
      <trkpt lat="44.42737" lon="1.32112">
        <ele>303.741</ele>
        <time>2014-04-01T11:30:08Z</time>
      </trkpt>
      <trkpt lat="44.42744" lon="1.32099">
        <ele>305.18</ele>
        <time>2014-04-01T11:30:15Z</time>
      </trkpt>
      <trkpt lat="44.42753" lon="1.32092">
        <ele>306.05</ele>
        <time>2014-04-01T11:30:20Z</time>
      </trkpt>
      <trkpt lat="44.42754" lon="1.32072">
        <ele>307.111</ele>
        <time>2014-04-01T11:30:27Z</time>
      </trkpt>
      <trkpt lat="44.42755" lon="1.32055">
        <ele>307.95</ele>
        <time>2014-04-01T11:30:34Z</time>
      </trkpt>
      <trkpt lat="44.42754" lon="1.32053">
        <ele>308.191</ele>
        <time>2014-04-01T11:30:35Z</time>
      </trkpt>
      <trkpt lat="44.42741" lon="1.32048">
        <ele>309.01</ele>
        <time>2014-04-01T11:30:42Z</time>
      </trkpt>
      <trkpt lat="44.42729" lon="1.32035">
        <ele>310.371</ele>
        <time>2014-04-01T11:30:50Z</time>
      </trkpt>
      <trkpt lat="44.42726" lon="1.32033">
        <ele>311.053</ele>
        <time>2014-04-01T11:30:54Z</time>
      </trkpt>
    </trkseg>
  </trk>
  <trk>
    <name><![CDATA[2014-04-01-08-18-57]]></name>
    <trkseg>
      <trkpt lat="44.42718" lon="1.32039">
        <ele>311.41</ele>
        <time>2014-04-01T11:31:10Z</time>
      </trkpt>
      <trkpt lat="44.42712" lon="1.32055">
        <ele>311.29</ele>
        <time>2014-04-01T11:31:16Z</time>
      </trkpt>
      <trkpt lat="44.42698" lon="1.32084">
        <ele>310.76</ele>
        <time>2014-04-01T11:31:24Z</time>
      </trkpt>
      <trkpt lat="44.42683" lon="1.32115">
        <ele>309.499</ele>
        <time>2014-04-01T11:31:31Z</time>
      </trkpt>
      <trkpt lat="44.42678" lon="1.32131">
        <ele>308.779</ele>
        <time>2014-04-01T11:31:34Z</time>
      </trkpt>
      <trkpt lat="44.42669" lon="1.32177">
        <ele>307.589</ele>
        <time>2014-04-01T11:31:42Z</time>
      </trkpt>
      <trkpt lat="44.42664" lon="1.32221">
        <ele>306.759</ele>
        <time>2014-04-01T11:31:50Z</time>
      </trkpt>
      <trkpt lat="44.42666" lon="1.32257">
        <ele>306.139</ele>
        <time>2014-04-01T11:31:57Z</time>
      </trkpt>
      <trkpt lat="44.42676" lon="1.32291">
        <ele>306.02</ele>
        <time>2014-04-01T11:32:04Z</time>
      </trkpt>
      <trkpt lat="44.42691" lon="1.32335">
        <ele>306.6</ele>
        <time>2014-04-01T11:32:13Z</time>
      </trkpt>
      <trkpt lat="44.42704" lon="1.3238">
        <ele>307.21</ele>
        <time>2014-04-01T11:32:22Z</time>
      </trkpt>
      <trkpt lat="44.42722" lon="1.32428">
        <ele>307.77</ele>
        <time>2014-04-01T11:32:32Z</time>
      </trkpt>
      <trkpt lat="44.42743" lon="1.3247">
        <ele>309.001</ele>
        <time>2014-04-01T11:32:42Z</time>
      </trkpt>
      <trkpt lat="44.42767" lon="1.32503">
        <ele>309.861</ele>
        <time>2014-04-01T11:32:51Z</time>
      </trkpt>
      <trkpt lat="44.42796" lon="1.32538">
        <ele>311.321</ele>
        <time>2014-04-01T11:33:01Z</time>
      </trkpt>
      <trkpt lat="44.42831" lon="1.32577">
        <ele>312.991</ele>
        <time>2014-04-01T11:33:13Z</time>
      </trkpt>
      <trkpt lat="44.42864" lon="1.32614">
        <ele>314.03</ele>
        <time>2014-04-01T11:33:25Z</time>
      </trkpt>
      <trkpt lat="44.42877" lon="1.32629">
        <ele>312.969</ele>
        <time>2014-04-01T11:33:29Z</time>
      </trkpt>
      <trkpt lat="44.42886" lon="1.32635">
        <ele>312.318</ele>
        <time>2014-04-01T11:33:31Z</time>
      </trkpt>
      <trkpt lat="44.429" lon="1.32643">
        <ele>311.249</ele>
        <time>2014-04-01T11:33:34Z</time>
      </trkpt>
      <trkpt lat="44.42922" lon="1.32647">
        <ele>309.899</ele>
        <time>2014-04-01T11:33:39Z</time>
      </trkpt>
      <trkpt lat="44.42936" lon="1.32657">
        <ele>307.909</ele>
        <time>2014-04-01T11:33:43Z</time>
      </trkpt>
      <trkpt lat="44.42941" lon="1.32658">
        <ele>307.64</ele>
        <time>2014-04-01T11:33:44Z</time>
      </trkpt>
      <trkpt lat="44.42978" lon="1.32667">
        <ele>306.051</ele>
        <time>2014-04-01T11:33:51Z</time>
      </trkpt>
      <trkpt lat="44.4301" lon="1.32684">
        <ele>305.041</ele>
        <time>2014-04-01T11:33:57Z</time>
      </trkpt>
      <trkpt lat="44.43036" lon="1.32694">
        <ele>304.221</ele>
        <time>2014-04-01T11:34:02Z</time>
      </trkpt>
      <trkpt lat="44.43046" lon="1.32697">
        <ele>304.292</ele>
        <time>2014-04-01T11:34:04Z</time>
      </trkpt>
      <trkpt lat="44.43061" lon="1.32712">
        <ele>303.561</ele>
        <time>2014-04-01T11:34:08Z</time>
      </trkpt>
      <trkpt lat="44.43082" lon="1.32719">
        <ele>302.441</ele>
        <time>2014-04-01T11:34:13Z</time>
      </trkpt>
      <trkpt lat="44.43094" lon="1.3272">
        <ele>301.631</ele>
        <time>2014-04-01T11:34:16Z</time>
      </trkpt>
      <trkpt lat="44.43108" lon="1.32733">
        <ele>300.801</ele>
        <time>2014-04-01T11:34:20Z</time>
      </trkpt>
      <trkpt lat="44.43115" lon="1.32738">
        <ele>300.441</ele>
        <time>2014-04-01T11:34:22Z</time>
      </trkpt>
      <trkpt lat="44.43122" lon="1.32742">
        <ele>300.151</ele>
        <time>2014-04-01T11:34:24Z</time>
      </trkpt>
      <trkpt lat="44.43138" lon="1.32761">
        <ele>299.742</ele>
        <time>2014-04-01T11:34:29Z</time>
      </trkpt>
      <trkpt lat="44.43149" lon="1.32767">
        <ele>299.501</ele>
        <time>2014-04-01T11:34:32Z</time>
      </trkpt>
      <trkpt lat="44.43172" lon="1.32768">
        <ele>298.921</ele>
        <time>2014-04-01T11:34:37Z</time>
      </trkpt>
      <trkpt lat="44.43195" lon="1.32761">
        <ele>298.332</ele>
        <time>2014-04-01T11:34:42Z</time>
      </trkpt>
      <trkpt lat="44.43212" lon="1.3276">
        <ele>297.212</ele>
        <time>2014-04-01T11:34:45Z</time>
      </trkpt>
      <trkpt lat="44.43257" lon="1.32755">
        <ele>295.072</ele>
        <time>2014-04-01T11:34:52Z</time>
      </trkpt>
      <trkpt lat="44.43269" lon="1.32752">
        <ele>294.782</ele>
        <time>2014-04-01T11:34:54Z</time>
      </trkpt>
      <trkpt lat="44.4329" lon="1.32752">
        <ele>293.432</ele>
        <time>2014-04-01T11:34:58Z</time>
      </trkpt>
      <trkpt lat="44.43294" lon="1.32751">
        <ele>293.112</ele>
        <time>2014-04-01T11:34:59Z</time>
      </trkpt>
      <trkpt lat="44.43308" lon="1.32747">
        <ele>292.202</ele>
        <time>2014-04-01T11:35:02Z</time>
      </trkpt>
      <trkpt lat="44.43332" lon="1.32729">
        <ele>291.843</ele>
        <time>2014-04-01T11:35:07Z</time>
      </trkpt>
      <trkpt lat="44.43356" lon="1.32711">
        <ele>292.724</ele>
        <time>2014-04-01T11:35:13Z</time>
      </trkpt>
      <trkpt lat="44.43372" lon="1.327">
        <ele>293.444</ele>
        <time>2014-04-01T11:35:18Z</time>
      </trkpt>
      <trkpt lat="44.43378" lon="1.32679">
        <ele>294.323</ele>
        <time>2014-04-01T11:35:24Z</time>
      </trkpt>
      <trkpt lat="44.43385" lon="1.32666">
        <ele>294.834</ele>
        <time>2014-04-01T11:35:28Z</time>
      </trkpt>
      <trkpt lat="44.43404" lon="1.32656">
        <ele>296.194</ele>
        <time>2014-04-01T11:35:35Z</time>
      </trkpt>
      <trkpt lat="44.43415" lon="1.32654">
        <ele>297.164</ele>
        <time>2014-04-01T11:35:40Z</time>
      </trkpt>
      <trkpt lat="44.43433" lon="1.32647">
        <ele>299.045</ele>
        <time>2014-04-01T11:35:48Z</time>
      </trkpt>
      <trkpt lat="44.43447" lon="1.32639">
        <ele>300.815</ele>
        <time>2014-04-01T11:35:55Z</time>
      </trkpt>
      <trkpt lat="44.43459" lon="1.32626">
        <ele>302.575</ele>
        <time>2014-04-01T11:36:02Z</time>
      </trkpt>
      <trkpt lat="44.43473" lon="1.32607">
        <ele>304.465</ele>
        <time>2014-04-01T11:36:11Z</time>
      </trkpt>
      <trkpt lat="44.43485" lon="1.32586">
        <ele>306.865</ele>
        <time>2014-04-01T11:36:21Z</time>
      </trkpt>
      <trkpt lat="44.43491" lon="1.32566">
        <ele>308.505</ele>
        <time>2014-04-01T11:36:29Z</time>
      </trkpt>
      <trkpt lat="44.43498" lon="1.3254">
        <ele>309.899</ele>
        <time>2014-04-01T11:36:38Z</time>
      </trkpt>
      <trkpt lat="44.43501" lon="1.32524">
        <ele>310.706</ele>
        <time>2014-04-01T11:36:44Z</time>
      </trkpt>
      <trkpt lat="44.43502" lon="1.32522">
        <ele>311.056</ele>
        <time>2014-04-01T11:36:47Z</time>
      </trkpt>
    </trkseg>
  </trk>
  <trk>
    <name><![CDATA[2014-04-01-08-18-57]]></name>
    <trkseg>
      <trkpt lat="44.43504" lon="1.32493">
        <ele>312.434</ele>
        <time>2014-04-01T11:37:00Z</time>
      </trkpt>
      <trkpt lat="44.43511" lon="1.32469">
        <ele>312.904</ele>
        <time>2014-04-01T11:37:07Z</time>
      </trkpt>
      <trkpt lat="44.43517" lon="1.32457">
        <ele>313.074</ele>
        <time>2014-04-01T11:37:11Z</time>
      </trkpt>
      <trkpt lat="44.43516" lon="1.32436">
        <ele>311.713</ele>
        <time>2014-04-01T11:37:17Z</time>
      </trkpt>
      <trkpt lat="44.43508" lon="1.32417">
        <ele>310.263</ele>
        <time>2014-04-01T11:37:22Z</time>
      </trkpt>
      <trkpt lat="44.43506" lon="1.32414">
        <ele>309.705</ele>
        <time>2014-04-01T11:37:26Z</time>
      </trkpt>
    </trkseg>
  </trk>
  <trk>
    <name><![CDATA[2014-04-01-08-18-57]]></name>
    <trkseg>
      <trkpt lat="44.43504" lon="1.3241">
        <ele>309.063</ele>
        <time>2014-04-01T11:37:29Z</time>
      </trkpt>
      <trkpt lat="44.43498" lon="1.32404">
        <ele>308.044</ele>
        <time>2014-04-01T11:37:35Z</time>
      </trkpt>
    </trkseg>
  </trk>
  <trk>
    <name><![CDATA[2014-04-01-08-18-57]]></name>
    <trkseg>
      <trkpt lat="44.43496" lon="1.32401">
        <ele>307.634</ele>
        <time>2014-04-01T11:37:42Z</time>
      </trkpt>
    </trkseg>
  </trk>
  <trk>
    <name><![CDATA[2014-04-01-08-18-57]]></name>
    <trkseg>
      <trkpt lat="44.43486" lon="1.32394">
        <ele>304.211</ele>
        <time>2014-04-01T11:46:52Z</time>
      </trkpt>
      <trkpt lat="44.43481" lon="1.32389">
        <ele>303.001</ele>
        <time>2014-04-01T11:46:54Z</time>
      </trkpt>
      <trkpt lat="44.43481" lon="1.32381">
        <ele>301.653</ele>
        <time>2014-04-01T11:46:58Z</time>
      </trkpt>
      <trkpt lat="44.43493" lon="1.32363">
        <ele>300.082</ele>
        <time>2014-04-01T11:47:03Z</time>
      </trkpt>
      <trkpt lat="44.43511" lon="1.32337">
        <ele>299.454</ele>
        <time>2014-04-01T11:47:08Z</time>
      </trkpt>
      <trkpt lat="44.43524" lon="1.32316">
        <ele>300.545</ele>
        <time>2014-04-01T11:47:13Z</time>
      </trkpt>
      <trkpt lat="44.43532" lon="1.32301">
        <ele>301.154</ele>
        <time>2014-04-01T11:47:17Z</time>
      </trkpt>
      <trkpt lat="44.43538" lon="1.32277">
        <ele>301.344</ele>
        <time>2014-04-01T11:47:22Z</time>
      </trkpt>
      <trkpt lat="44.43536" lon="1.32253">
        <ele>300.713</ele>
        <time>2014-04-01T11:47:26Z</time>
      </trkpt>
      <trkpt lat="44.43532" lon="1.3224">
        <ele>299.492</ele>
        <time>2014-04-01T11:47:29Z</time>
      </trkpt>
      <trkpt lat="44.43529" lon="1.32226">
        <ele>298.012</ele>
        <time>2014-04-01T11:47:32Z</time>
      </trkpt>
      <trkpt lat="44.43534" lon="1.32213">
        <ele>298.504</ele>
        <time>2014-04-01T11:47:35Z</time>
      </trkpt>
      <trkpt lat="44.43536" lon="1.3221">
        <ele>298.804</ele>
        <time>2014-04-01T11:47:36Z</time>
      </trkpt>
      <trkpt lat="44.43539" lon="1.32198">
        <ele>298.964</ele>
        <time>2014-04-01T11:47:39Z</time>
      </trkpt>
      <trkpt lat="44.43536" lon="1.32177">
        <ele>297.993</ele>
        <time>2014-04-01T11:47:43Z</time>
      </trkpt>
      <trkpt lat="44.43536" lon="1.32156">
        <ele>297.484</ele>
        <time>2014-04-01T11:47:47Z</time>
      </trkpt>
      <trkpt lat="44.43536" lon="1.32125">
        <ele>296.482</ele>
        <time>2014-04-01T11:47:53Z</time>
      </trkpt>
      <trkpt lat="44.43526" lon="1.32113">
        <ele>293.91</ele>
        <time>2014-04-01T11:47:56Z</time>
      </trkpt>
      <trkpt lat="44.43525" lon="1.32099">
        <ele>293.113</ele>
        <time>2014-04-01T11:47:59Z</time>
      </trkpt>
      <trkpt lat="44.43533" lon="1.32071">
        <ele>293.083</ele>
        <time>2014-04-01T11:48:05Z</time>
      </trkpt>
      <trkpt lat="44.43541" lon="1.32053">
        <ele>293.444</ele>
        <time>2014-04-01T11:48:09Z</time>
      </trkpt>
      <trkpt lat="44.43547" lon="1.32052">
        <ele>294.155</ele>
        <time>2014-04-01T11:48:11Z</time>
      </trkpt>
      <trkpt lat="44.43566" lon="1.32048">
        <ele>295.854</ele>
        <time>2014-04-01T11:48:19Z</time>
      </trkpt>
      <trkpt lat="44.43574" lon="1.32055">
        <ele>297.465</ele>
        <time>2014-04-01T11:48:24Z</time>
      </trkpt>
      <trkpt lat="44.43581" lon="1.32063">
        <ele>299.274</ele>
        <time>2014-04-01T11:48:30Z</time>
      </trkpt>
      <trkpt lat="44.4359" lon="1.32068">
        <ele>300.784</ele>
        <time>2014-04-01T11:48:36Z</time>
      </trkpt>
      <trkpt lat="44.436" lon="1.32072">
        <ele>302.274</ele>
        <time>2014-04-01T11:48:43Z</time>
      </trkpt>
      <trkpt lat="44.43615" lon="1.32074">
        <ele>303.354</ele>
        <time>2014-04-01T11:48:50Z</time>
      </trkpt>
      <trkpt lat="44.43623" lon="1.32068">
        <ele>302.332</ele>
        <time>2014-04-01T11:48:53Z</time>
      </trkpt>
      <trkpt lat="44.4364" lon="1.32062">
        <ele>301.052</ele>
        <time>2014-04-01T11:48:57Z</time>
      </trkpt>
      <trkpt lat="44.43655" lon="1.32063">
        <ele>301.004</ele>
        <time>2014-04-01T11:49:01Z</time>
      </trkpt>
      <trkpt lat="44.4367" lon="1.32062">
        <ele>302.665</ele>
        <time>2014-04-01T11:49:07Z</time>
      </trkpt>
      <trkpt lat="44.43683" lon="1.32046">
        <ele>302.304</ele>
        <time>2014-04-01T11:49:12Z</time>
      </trkpt>
      <trkpt lat="44.43689" lon="1.32038">
        <ele>302.043</ele>
        <time>2014-04-01T11:49:14Z</time>
      </trkpt>
      <trkpt lat="44.43695" lon="1.32014">
        <ele>301.043</ele>
        <time>2014-04-01T11:49:19Z</time>
      </trkpt>
      <trkpt lat="44.43695" lon="1.32014">
        <ele>301.038</ele>
        <time>2014-04-01T11:49:20Z</time>
      </trkpt>
    </trkseg>
  </trk>
  <trk>
    <name><![CDATA[2014-04-01-08-18-57]]></name>
    <trkseg>
      <trkpt lat="44.43698" lon="1.32002">
        <ele>300.334</ele>
        <time>2014-04-01T11:49:42Z</time>
      </trkpt>
      <trkpt lat="44.43702" lon="1.3199">
        <ele>299.793</ele>
        <time>2014-04-01T11:49:44Z</time>
      </trkpt>
      <trkpt lat="44.43708" lon="1.3197">
        <ele>299.043</ele>
        <time>2014-04-01T11:49:47Z</time>
      </trkpt>
      <trkpt lat="44.43709" lon="1.31946">
        <ele>297.041</ele>
        <time>2014-04-01T11:49:51Z</time>
      </trkpt>
      <trkpt lat="44.43714" lon="1.31934">
        <ele>296.984</ele>
        <time>2014-04-01T11:49:54Z</time>
      </trkpt>
      <trkpt lat="44.43719" lon="1.31927">
        <ele>297.294</ele>
        <time>2014-04-01T11:49:56Z</time>
      </trkpt>
      <trkpt lat="44.4373" lon="1.31911">
        <ele>297.744</ele>
        <time>2014-04-01T11:50:00Z</time>
      </trkpt>
      <trkpt lat="44.43733" lon="1.319">
        <ele>297.363</ele>
        <time>2014-04-01T11:50:02Z</time>
      </trkpt>
      <trkpt lat="44.43736" lon="1.31876">
        <ele>296.132</ele>
        <time>2014-04-01T11:50:06Z</time>
      </trkpt>
      <trkpt lat="44.43746" lon="1.31854">
        <ele>295.413</ele>
        <time>2014-04-01T11:50:10Z</time>
      </trkpt>
      <trkpt lat="44.43757" lon="1.31851">
        <ele>296.365</ele>
        <time>2014-04-01T11:50:13Z</time>
      </trkpt>
      <trkpt lat="44.43764" lon="1.31842">
        <ele>296.654</ele>
        <time>2014-04-01T11:50:16Z</time>
      </trkpt>
      <trkpt lat="44.43765" lon="1.31836">
        <ele>296.313</ele>
        <time>2014-04-01T11:50:17Z</time>
      </trkpt>
      <trkpt lat="44.43767" lon="1.31813">
        <ele>295.012</ele>
        <time>2014-04-01T11:50:20Z</time>
      </trkpt>
      <trkpt lat="44.43773" lon="1.31795">
        <ele>294.053</ele>
        <time>2014-04-01T11:50:23Z</time>
      </trkpt>
      <trkpt lat="44.43778" lon="1.31768">
        <ele>292.172</ele>
        <time>2014-04-01T11:50:27Z</time>
      </trkpt>
      <trkpt lat="44.43787" lon="1.31752">
        <ele>291.984</ele>
        <time>2014-04-01T11:50:30Z</time>
      </trkpt>
      <trkpt lat="44.43791" lon="1.3175">
        <ele>292.406</ele>
        <time>2014-04-01T11:50:31Z</time>
      </trkpt>
      <trkpt lat="44.43823" lon="1.31742">
        <ele>294.736</ele>
        <time>2014-04-01T11:50:39Z</time>
      </trkpt>
      <trkpt lat="44.43827" lon="1.31743">
        <ele>294.915</ele>
        <time>2014-04-01T11:50:40Z</time>
      </trkpt>
      <trkpt lat="44.43838" lon="1.31733">
        <ele>294.813</ele>
        <time>2014-04-01T11:50:44Z</time>
      </trkpt>
      <trkpt lat="44.43844" lon="1.31723">
        <ele>294.603</ele>
        <time>2014-04-01T11:50:46Z</time>
      </trkpt>
      <trkpt lat="44.43851" lon="1.31714">
        <ele>294.283</ele>
        <time>2014-04-01T11:50:48Z</time>
      </trkpt>
      <trkpt lat="44.43859" lon="1.31701">
        <ele>293.753</ele>
        <time>2014-04-01T11:50:52Z</time>
      </trkpt>
      <trkpt lat="44.43859" lon="1.317">
        <ele>293.739</ele>
        <time>2014-04-01T11:50:54Z</time>
      </trkpt>
    </trkseg>
  </trk>
  <trk>
    <name><![CDATA[2014-04-01-08-18-57]]></name>
    <trkseg>
      <trkpt lat="44.43861" lon="1.31693">
        <ele>294.723</ele>
        <time>2014-04-01T11:51:47Z</time>
      </trkpt>
      <trkpt lat="44.43866" lon="1.31683">
        <ele>294.564</ele>
        <time>2014-04-01T11:51:49Z</time>
      </trkpt>
      <trkpt lat="44.43871" lon="1.31663">
        <ele>293.093</ele>
        <time>2014-04-01T11:51:53Z</time>
      </trkpt>
      <trkpt lat="44.43887" lon="1.31647">
        <ele>292.794</ele>
        <time>2014-04-01T11:51:57Z</time>
      </trkpt>
      <trkpt lat="44.43897" lon="1.31637">
        <ele>292.494</ele>
        <time>2014-04-01T11:51:59Z</time>
      </trkpt>
      <trkpt lat="44.43918" lon="1.31614">
        <ele>292.584</ele>
        <time>2014-04-01T11:52:04Z</time>
      </trkpt>
      <trkpt lat="44.43922" lon="1.316">
        <ele>292.073</ele>
        <time>2014-04-01T11:52:06Z</time>
      </trkpt>
      <trkpt lat="44.43929" lon="1.31555">
        <ele>289.021</ele>
        <time>2014-04-01T11:52:11Z</time>
      </trkpt>
      <trkpt lat="44.43934" lon="1.31538">
        <ele>287.371</ele>
        <time>2014-04-01T11:52:13Z</time>
      </trkpt>
      <trkpt lat="44.43943" lon="1.3152">
        <ele>286.032</ele>
        <time>2014-04-01T11:52:16Z</time>
      </trkpt>
      <trkpt lat="44.43954" lon="1.31497">
        <ele>284.322</ele>
        <time>2014-04-01T11:52:20Z</time>
      </trkpt>
      <trkpt lat="44.43957" lon="1.3147">
        <ele>281.931</ele>
        <time>2014-04-01T11:52:24Z</time>
      </trkpt>
      <trkpt lat="44.43966" lon="1.31437">
        <ele>278.851</ele>
        <time>2014-04-01T11:52:28Z</time>
      </trkpt>
      <trkpt lat="44.4398" lon="1.31412">
        <ele>278.775</ele>
        <time>2014-04-01T11:52:32Z</time>
      </trkpt>
      <trkpt lat="44.43994" lon="1.31399">
        <ele>281.707</ele>
        <time>2014-04-01T11:52:37Z</time>
      </trkpt>
      <trkpt lat="44.44003" lon="1.31387">
        <ele>282.975</ele>
        <time>2014-04-01T11:52:42Z</time>
      </trkpt>
      <trkpt lat="44.44013" lon="1.31363">
        <ele>283.115</ele>
        <time>2014-04-01T11:52:47Z</time>
      </trkpt>
      <trkpt lat="44.44025" lon="1.31337">
        <ele>282.564</ele>
        <time>2014-04-01T11:52:52Z</time>
      </trkpt>
      <trkpt lat="44.44044" lon="1.31309">
        <ele>282.204</ele>
        <time>2014-04-01T11:52:57Z</time>
      </trkpt>
      <trkpt lat="44.4406" lon="1.31292">
        <ele>281.143</ele>
        <time>2014-04-01T11:53:01Z</time>
      </trkpt>
      <trkpt lat="44.44068" lon="1.31271">
        <ele>277.581</ele>
        <time>2014-04-01T11:53:05Z</time>
      </trkpt>
      <trkpt lat="44.44072" lon="1.31251">
        <ele>273.71</ele>
        <time>2014-04-01T11:53:09Z</time>
      </trkpt>
      <trkpt lat="44.44067" lon="1.31241">
        <ele>271.428</ele>
        <time>2014-04-01T11:53:11Z</time>
      </trkpt>
      <trkpt lat="44.44058" lon="1.31221">
        <ele>265.699</ele>
        <time>2014-04-01T11:53:16Z</time>
      </trkpt>
      <trkpt lat="44.4406" lon="1.31211">
        <ele>263.139</ele>
        <time>2014-04-01T11:53:18Z</time>
      </trkpt>
      <trkpt lat="44.44059" lon="1.3119">
        <ele>257.668</ele>
        <time>2014-04-01T11:53:22Z</time>
      </trkpt>
      <trkpt lat="44.44054" lon="1.31172">
        <ele>252.337</ele>
        <time>2014-04-01T11:53:26Z</time>
      </trkpt>
      <trkpt lat="44.44054" lon="1.31145">
        <ele>243.897</ele>
        <time>2014-04-01T11:53:32Z</time>
      </trkpt>
      <trkpt lat="44.44059" lon="1.31124">
        <ele>237.077</ele>
        <time>2014-04-01T11:53:37Z</time>
      </trkpt>
      <trkpt lat="44.44069" lon="1.31112">
        <ele>232.249</ele>
        <time>2014-04-01T11:53:41Z</time>
      </trkpt>
      <trkpt lat="44.44074" lon="1.31107">
        <ele>230.46</ele>
        <time>2014-04-01T11:53:43Z</time>
      </trkpt>
      <trkpt lat="44.44084" lon="1.31089">
        <ele>225.548</ele>
        <time>2014-04-01T11:53:47Z</time>
      </trkpt>
      <trkpt lat="44.44087" lon="1.31087">
        <ele>224.869</ele>
        <time>2014-04-01T11:53:48Z</time>
      </trkpt>
      <trkpt lat="44.44098" lon="1.3107">
        <ele>220.199</ele>
        <time>2014-04-01T11:53:53Z</time>
      </trkpt>
      <trkpt lat="44.44102" lon="1.3106">
        <ele>217.798</ele>
        <time>2014-04-01T11:53:55Z</time>
      </trkpt>
      <trkpt lat="44.44114" lon="1.3105">
        <ele>214.17</ele>
        <time>2014-04-01T11:53:59Z</time>
      </trkpt>
      <trkpt lat="44.44114" lon="1.31043">
        <ele>211.838</ele>
        <time>2014-04-01T11:54:01Z</time>
      </trkpt>
      <trkpt lat="44.44106" lon="1.31038">
        <ele>209.549</ele>
        <time>2014-04-01T11:54:03Z</time>
      </trkpt>
      <trkpt lat="44.44096" lon="1.31036">
        <ele>207.53</ele>
        <time>2014-04-01T11:54:05Z</time>
      </trkpt>
      <trkpt lat="44.44083" lon="1.31043">
        <ele>205.572</ele>
        <time>2014-04-01T11:54:10Z</time>
      </trkpt>
      <trkpt lat="44.44072" lon="1.3104">
        <ele>203.871</ele>
        <time>2014-04-01T11:54:13Z</time>
      </trkpt>
      <trkpt lat="44.44063" lon="1.31032">
        <ele>201</ele>
        <time>2014-04-01T11:54:16Z</time>
      </trkpt>
      <trkpt lat="44.44052" lon="1.31012">
        <ele>193.718</ele>
        <time>2014-04-01T11:54:21Z</time>
      </trkpt>
      <trkpt lat="44.44037" lon="1.31">
        <ele>187.439</ele>
        <time>2014-04-01T11:54:26Z</time>
      </trkpt>
      <trkpt lat="44.44023" lon="1.30989">
        <ele>181.924</ele>
        <time>2014-04-01T11:54:31Z</time>
      </trkpt>
      <trkpt lat="44.44017" lon="1.30985">
        <ele>179.588</ele>
        <time>2014-04-01T11:54:33Z</time>
      </trkpt>
      <trkpt lat="44.44004" lon="1.30981">
        <ele>176.78</ele>
        <time>2014-04-01T11:54:36Z</time>
      </trkpt>
      <trkpt lat="44.43985" lon="1.30977">
        <ele>173.33</ele>
        <time>2014-04-01T11:54:40Z</time>
      </trkpt>
      <trkpt lat="44.43971" lon="1.30973">
        <ele>171.441</ele>
        <time>2014-04-01T11:54:44Z</time>
      </trkpt>
      <trkpt lat="44.43971" lon="1.30971">
        <ele>171.021</ele>
        <time>2014-04-01T11:54:45Z</time>
      </trkpt>
      <trkpt lat="44.43981" lon="1.30959">
        <ele>168.561</ele>
        <time>2014-04-01T11:54:49Z</time>
      </trkpt>
      <trkpt lat="44.43997" lon="1.30938">
        <ele>165.71</ele>
        <time>2014-04-01T11:54:54Z</time>
      </trkpt>
      <trkpt lat="44.44007" lon="1.3092">
        <ele>162.419</ele>
        <time>2014-04-01T11:54:58Z</time>
      </trkpt>
      <trkpt lat="44.44022" lon="1.30916">
        <ele>162.081</ele>
        <time>2014-04-01T11:55:04Z</time>
      </trkpt>
      <trkpt lat="44.44027" lon="1.30915">
        <ele>161.972</ele>
        <time>2014-04-01T11:55:06Z</time>
      </trkpt>
      <trkpt lat="44.44045" lon="1.3091">
        <ele>163.694</ele>
        <time>2014-04-01T11:55:13Z</time>
      </trkpt>
      <trkpt lat="44.4406" lon="1.30904">
        <ele>166.416</ele>
        <time>2014-04-01T11:55:19Z</time>
      </trkpt>
      <trkpt lat="44.44076" lon="1.30896">
        <ele>168.735</ele>
        <time>2014-04-01T11:55:26Z</time>
      </trkpt>
      <trkpt lat="44.4408" lon="1.30894">
        <ele>168.968</ele>
        <time>2014-04-01T11:55:30Z</time>
      </trkpt>
    </trkseg>
  </trk>
  <trk>
    <name><![CDATA[2014-04-01-08-18-57]]></name>
    <trkseg>
      <trkpt lat="44.44083" lon="1.30892">
        <ele>164.023</ele>
        <time>2014-04-01T11:55:47Z</time>
      </trkpt>
      <trkpt lat="44.44093" lon="1.30887">
        <ele>165.314</ele>
        <time>2014-04-01T11:55:52Z</time>
      </trkpt>
      <trkpt lat="44.44108" lon="1.30881">
        <ele>164.164</ele>
        <time>2014-04-01T11:55:58Z</time>
      </trkpt>
      <trkpt lat="44.44126" lon="1.30877">
        <ele>163.644</ele>
        <time>2014-04-01T11:56:04Z</time>
      </trkpt>
      <trkpt lat="44.44149" lon="1.30871">
        <ele>166.235</ele>
        <time>2014-04-01T11:56:12Z</time>
      </trkpt>
      <trkpt lat="44.44173" lon="1.30865">
        <ele>165.014</ele>
        <time>2014-04-01T11:56:19Z</time>
      </trkpt>
      <trkpt lat="44.44203" lon="1.30864">
        <ele>161.872</ele>
        <time>2014-04-01T11:56:25Z</time>
      </trkpt>
      <trkpt lat="44.44244" lon="1.30866">
        <ele>157.451</ele>
        <time>2014-04-01T11:56:32Z</time>
      </trkpt>
      <trkpt lat="44.44273" lon="1.30869">
        <ele>153.801</ele>
        <time>2014-04-01T11:56:36Z</time>
      </trkpt>
      <trkpt lat="44.44295" lon="1.30877">
        <ele>151.121</ele>
        <time>2014-04-01T11:56:39Z</time>
      </trkpt>
      <trkpt lat="44.44343" lon="1.3088">
        <ele>146.811</ele>
        <time>2014-04-01T11:56:45Z</time>
      </trkpt>
      <trkpt lat="44.44402" lon="1.30872">
        <ele>143.102</ele>
        <time>2014-04-01T11:56:53Z</time>
      </trkpt>
      <trkpt lat="44.44408" lon="1.30871">
        <ele>143.293</ele>
        <time>2014-04-01T11:56:54Z</time>
      </trkpt>
      <trkpt lat="44.44426" lon="1.30867">
        <ele>144.245</ele>
        <time>2014-04-01T11:56:59Z</time>
      </trkpt>
      <trkpt lat="44.4444" lon="1.30857">
        <ele>146.666</ele>
        <time>2014-04-01T11:57:05Z</time>
      </trkpt>
      <trkpt lat="44.44446" lon="1.30865">
        <ele>147.656</ele>
        <time>2014-04-01T11:57:10Z</time>
      </trkpt>
      <trkpt lat="44.44441" lon="1.30887">
        <ele>149.037</ele>
        <time>2014-04-01T11:57:17Z</time>
      </trkpt>
      <trkpt lat="44.44437" lon="1.3091">
        <ele>149.706</ele>
        <time>2014-04-01T11:57:24Z</time>
      </trkpt>
      <trkpt lat="44.44435" lon="1.30935">
        <ele>150.916</ele>
        <time>2014-04-01T11:57:32Z</time>
      </trkpt>
      <trkpt lat="44.44436" lon="1.30958">
        <ele>152.066</ele>
        <time>2014-04-01T11:57:40Z</time>
      </trkpt>
      <trkpt lat="44.44435" lon="1.30984">
        <ele>153.346</ele>
        <time>2014-04-01T11:57:49Z</time>
      </trkpt>
      <trkpt lat="44.44435" lon="1.31011">
        <ele>155.316</ele>
        <time>2014-04-01T11:57:59Z</time>
      </trkpt>
      <trkpt lat="44.44435" lon="1.31032">
        <ele>155.776</ele>
        <time>2014-04-01T11:58:07Z</time>
      </trkpt>
      <trkpt lat="44.44433" lon="1.31053">
        <ele>158.437</ele>
        <time>2014-04-01T11:58:15Z</time>
      </trkpt>
      <trkpt lat="44.44432" lon="1.31071">
        <ele>161.228</ele>
        <time>2014-04-01T11:58:22Z</time>
      </trkpt>
      <trkpt lat="44.44434" lon="1.31088">
        <ele>165.208</ele>
        <time>2014-04-01T11:58:28Z</time>
      </trkpt>
      <trkpt lat="44.44434" lon="1.31099">
        <ele>167.328</ele>
        <time>2014-04-01T11:58:33Z</time>
      </trkpt>
      <trkpt lat="44.4443" lon="1.31108">
        <ele>167.987</ele>
        <time>2014-04-01T11:58:37Z</time>
      </trkpt>
      <trkpt lat="44.44423" lon="1.3113">
        <ele>167.627</ele>
        <time>2014-04-01T11:58:46Z</time>
      </trkpt>
      <trkpt lat="44.44419" lon="1.31145">
        <ele>167.027</ele>
        <time>2014-04-01T11:58:52Z</time>
      </trkpt>
      <trkpt lat="44.44416" lon="1.31159">
        <ele>169.927</ele>
        <time>2014-04-01T11:58:58Z</time>
      </trkpt>
      <trkpt lat="44.44413" lon="1.31171">
        <ele>170.917</ele>
        <time>2014-04-01T11:59:03Z</time>
      </trkpt>
      <trkpt lat="44.4441" lon="1.31188">
        <ele>169.146</ele>
        <time>2014-04-01T11:59:10Z</time>
      </trkpt>
      <trkpt lat="44.44404" lon="1.31203">
        <ele>166.566</ele>
        <time>2014-04-01T11:59:16Z</time>
      </trkpt>
      <trkpt lat="44.44399" lon="1.31219">
        <ele>166.236</ele>
        <time>2014-04-01T11:59:22Z</time>
      </trkpt>
      <trkpt lat="44.44392" lon="1.31241">
        <ele>168.39</ele>
        <time>2014-04-01T11:59:31Z</time>
      </trkpt>
      <trkpt lat="44.44388" lon="1.31259">
        <ele>172.728</ele>
        <time>2014-04-01T11:59:39Z</time>
      </trkpt>
      <trkpt lat="44.44382" lon="1.31277">
        <ele>173.627</ele>
        <time>2014-04-01T11:59:46Z</time>
      </trkpt>
      <trkpt lat="44.4438" lon="1.31289">
        <ele>172.516</ele>
        <time>2014-04-01T11:59:51Z</time>
      </trkpt>
      <trkpt lat="44.44375" lon="1.3131">
        <ele>172.146</ele>
        <time>2014-04-01T11:59:59Z</time>
      </trkpt>
      <trkpt lat="44.44373" lon="1.31328">
        <ele>172.396</ele>
        <time>2014-04-01T12:00:06Z</time>
      </trkpt>
      <trkpt lat="44.44371" lon="1.3135">
        <ele>175.237</ele>
        <time>2014-04-01T12:00:15Z</time>
      </trkpt>
      <trkpt lat="44.44372" lon="1.31375">
        <ele>177.537</ele>
        <time>2014-04-01T12:00:25Z</time>
      </trkpt>
      <trkpt lat="44.44376" lon="1.31397">
        <ele>176.737</ele>
        <time>2014-04-01T12:00:34Z</time>
      </trkpt>
      <trkpt lat="44.44374" lon="1.31414">
        <ele>176.736</ele>
        <time>2014-04-01T12:00:40Z</time>
      </trkpt>
      <trkpt lat="44.44369" lon="1.31429">
        <ele>176.766</ele>
        <time>2014-04-01T12:00:46Z</time>
      </trkpt>
      <trkpt lat="44.44361" lon="1.3144">
        <ele>176.326</ele>
        <time>2014-04-01T12:00:51Z</time>
      </trkpt>
      <trkpt lat="44.44353" lon="1.31461">
        <ele>177.306</ele>
        <time>2014-04-01T12:01:00Z</time>
      </trkpt>
      <trkpt lat="44.44345" lon="1.31481">
        <ele>178.697</ele>
        <time>2014-04-01T12:01:09Z</time>
      </trkpt>
      <trkpt lat="44.44335" lon="1.315">
        <ele>180.497</ele>
        <time>2014-04-01T12:01:18Z</time>
      </trkpt>
      <trkpt lat="44.44328" lon="1.31511">
        <ele>183.117</ele>
        <time>2014-04-01T12:01:24Z</time>
      </trkpt>
      <trkpt lat="44.44323" lon="1.31516">
        <ele>184.267</ele>
        <time>2014-04-01T12:01:28Z</time>
      </trkpt>
      <trkpt lat="44.44312" lon="1.31525">
        <ele>183.056</ele>
        <time>2014-04-01T12:01:35Z</time>
      </trkpt>
      <trkpt lat="44.443" lon="1.31531">
        <ele>181.855</ele>
        <time>2014-04-01T12:01:42Z</time>
      </trkpt>
      <trkpt lat="44.44291" lon="1.31534">
        <ele>182.916</ele>
        <time>2014-04-01T12:01:49Z</time>
      </trkpt>
      <trkpt lat="44.44283" lon="1.31535">
        <ele>184.246</ele>
        <time>2014-04-01T12:01:56Z</time>
      </trkpt>
      <trkpt lat="44.44275" lon="1.31536">
        <ele>184.456</ele>
        <time>2014-04-01T12:02:02Z</time>
      </trkpt>
      <trkpt lat="44.44263" lon="1.31538">
        <ele>185.456</ele>
        <time>2014-04-01T12:02:09Z</time>
      </trkpt>
      <trkpt lat="44.44248" lon="1.3154">
        <ele>185.057</ele>
        <time>2014-04-01T12:02:17Z</time>
      </trkpt>
      <trkpt lat="44.44232" lon="1.31544">
        <ele>183.816</ele>
        <time>2014-04-01T12:02:26Z</time>
      </trkpt>
      <trkpt lat="44.44215" lon="1.31551">
        <ele>183.056</ele>
        <time>2014-04-01T12:02:36Z</time>
      </trkpt>
      <trkpt lat="44.442" lon="1.31565">
        <ele>186.967</ele>
        <time>2014-04-01T12:02:47Z</time>
      </trkpt>
      <trkpt lat="44.4419" lon="1.31578">
        <ele>188.976</ele>
        <time>2014-04-01T12:02:55Z</time>
      </trkpt>
      <trkpt lat="44.44179" lon="1.31592">
        <ele>192.166</ele>
        <time>2014-04-01T12:03:04Z</time>
      </trkpt>
      <trkpt lat="44.44167" lon="1.31606">
        <ele>194.046</ele>
        <time>2014-04-01T12:03:13Z</time>
      </trkpt>
      <trkpt lat="44.44156" lon="1.31622">
        <ele>195.526</ele>
        <time>2014-04-01T12:03:21Z</time>
      </trkpt>
      <trkpt lat="44.44147" lon="1.3164">
        <ele>196.126</ele>
        <time>2014-04-01T12:03:30Z</time>
      </trkpt>
      <trkpt lat="44.44142" lon="1.31656">
        <ele>197.077</ele>
        <time>2014-04-01T12:03:38Z</time>
      </trkpt>
      <trkpt lat="44.44137" lon="1.31674">
        <ele>199.506</ele>
        <time>2014-04-01T12:03:47Z</time>
      </trkpt>
      <trkpt lat="44.4413" lon="1.3169">
        <ele>200.312</ele>
        <time>2014-04-01T12:03:55Z</time>
      </trkpt>
      <trkpt lat="44.44121" lon="1.31704">
        <ele>201.086</ele>
        <time>2014-04-01T12:04:03Z</time>
      </trkpt>
      <trkpt lat="44.44112" lon="1.31718">
        <ele>201.816</ele>
        <time>2014-04-01T12:04:11Z</time>
      </trkpt>
      <trkpt lat="44.44102" lon="1.31735">
        <ele>201.906</ele>
        <time>2014-04-01T12:04:20Z</time>
      </trkpt>
      <trkpt lat="44.44093" lon="1.31752">
        <ele>205.637</ele>
        <time>2014-04-01T12:04:29Z</time>
      </trkpt>
      <trkpt lat="44.44085" lon="1.31768">
        <ele>208.706</ele>
        <time>2014-04-01T12:04:37Z</time>
      </trkpt>
      <trkpt lat="44.44074" lon="1.31786">
        <ele>208.706</ele>
        <time>2014-04-01T12:04:47Z</time>
      </trkpt>
      <trkpt lat="44.44065" lon="1.31798">
        <ele>209.636</ele>
        <time>2014-04-01T12:04:55Z</time>
      </trkpt>
      <trkpt lat="44.44053" lon="1.31813">
        <ele>211.706</ele>
        <time>2014-04-01T12:05:05Z</time>
      </trkpt>
      <trkpt lat="44.44042" lon="1.31825">
        <ele>213.596</ele>
        <time>2014-04-01T12:05:13Z</time>
      </trkpt>
      <trkpt lat="44.44032" lon="1.31838">
        <ele>213.805</ele>
        <time>2014-04-01T12:05:22Z</time>
      </trkpt>
      <trkpt lat="44.4402" lon="1.31853">
        <ele>213.615</ele>
        <time>2014-04-01T12:05:32Z</time>
      </trkpt>
      <trkpt lat="44.4401" lon="1.31864">
        <ele>213.435</ele>
        <time>2014-04-01T12:05:40Z</time>
      </trkpt>
      <trkpt lat="44.44001" lon="1.31876">
        <ele>214.265</ele>
        <time>2014-04-01T12:05:48Z</time>
      </trkpt>
      <trkpt lat="44.43991" lon="1.31888">
        <ele>215.616</ele>
        <time>2014-04-01T12:05:56Z</time>
      </trkpt>
      <trkpt lat="44.43984" lon="1.31904">
        <ele>218.116</ele>
        <time>2014-04-01T12:06:05Z</time>
      </trkpt>
      <trkpt lat="44.4398" lon="1.31921">
        <ele>217.456</ele>
        <time>2014-04-01T12:06:13Z</time>
      </trkpt>
      <trkpt lat="44.43975" lon="1.31943">
        <ele>218.426</ele>
        <time>2014-04-01T12:06:23Z</time>
      </trkpt>
      <trkpt lat="44.43971" lon="1.31962">
        <ele>220.623</ele>
        <time>2014-04-01T12:06:32Z</time>
      </trkpt>
      <trkpt lat="44.43967" lon="1.31985">
        <ele>222.966</ele>
        <time>2014-04-01T12:06:43Z</time>
      </trkpt>
      <trkpt lat="44.43966" lon="1.32006">
        <ele>224.676</ele>
        <time>2014-04-01T12:06:53Z</time>
      </trkpt>
      <trkpt lat="44.43965" lon="1.32022">
        <ele>226.096</ele>
        <time>2014-04-01T12:07:01Z</time>
      </trkpt>
      <trkpt lat="44.43963" lon="1.3204">
        <ele>228.517</ele>
        <time>2014-04-01T12:07:10Z</time>
      </trkpt>
      <trkpt lat="44.43964" lon="1.32054">
        <ele>231.417</ele>
        <time>2014-04-01T12:07:17Z</time>
      </trkpt>
      <trkpt lat="44.43964" lon="1.32072">
        <ele>233.436</ele>
        <time>2014-04-01T12:07:26Z</time>
      </trkpt>
      <trkpt lat="44.43965" lon="1.32089">
        <ele>235.696</ele>
        <time>2014-04-01T12:07:35Z</time>
      </trkpt>
      <trkpt lat="44.43965" lon="1.32103">
        <ele>237.587</ele>
        <time>2014-04-01T12:07:42Z</time>
      </trkpt>
      <trkpt lat="44.43965" lon="1.32121">
        <ele>239.687</ele>
        <time>2014-04-01T12:07:51Z</time>
      </trkpt>
      <trkpt lat="44.43963" lon="1.32136">
        <ele>240.796</ele>
        <time>2014-04-01T12:07:58Z</time>
      </trkpt>
      <trkpt lat="44.43962" lon="1.32151">
        <ele>239.546</ele>
        <time>2014-04-01T12:08:06Z</time>
      </trkpt>
      <trkpt lat="44.43957" lon="1.32169">
        <ele>241.506</ele>
        <time>2014-04-01T12:08:16Z</time>
      </trkpt>
      <trkpt lat="44.43957" lon="1.32181">
        <ele>241.976</ele>
        <time>2014-04-01T12:08:23Z</time>
      </trkpt>
      <trkpt lat="44.43954" lon="1.32195">
        <ele>244.366</ele>
        <time>2014-04-01T12:08:30Z</time>
      </trkpt>
      <trkpt lat="44.4395" lon="1.32211">
        <ele>248.547</ele>
        <time>2014-04-01T12:08:39Z</time>
      </trkpt>
      <trkpt lat="44.43946" lon="1.32223">
        <ele>251.567</ele>
        <time>2014-04-01T12:08:46Z</time>
      </trkpt>
      <trkpt lat="44.43944" lon="1.32236">
        <ele>253.406</ele>
        <time>2014-04-01T12:08:53Z</time>
      </trkpt>
      <trkpt lat="44.43941" lon="1.32249">
        <ele>253.906</ele>
        <time>2014-04-01T12:09:01Z</time>
      </trkpt>
      <trkpt lat="44.4394" lon="1.32254">
        <ele>255.186</ele>
        <time>2014-04-01T12:09:04Z</time>
      </trkpt>
      <trkpt lat="44.43944" lon="1.32265">
        <ele>255.536</ele>
        <time>2014-04-01T12:09:11Z</time>
      </trkpt>
      <trkpt lat="44.43948" lon="1.32266">
        <ele>257.917</ele>
        <time>2014-04-01T12:09:16Z</time>
      </trkpt>
      <trkpt lat="44.43954" lon="1.3226">
        <ele>254.766</ele>
        <time>2014-04-01T12:09:23Z</time>
      </trkpt>
      <trkpt lat="44.43964" lon="1.32245">
        <ele>254.946</ele>
        <time>2014-04-01T12:09:33Z</time>
      </trkpt>
      <trkpt lat="44.43971" lon="1.32231">
        <ele>254.396</ele>
        <time>2014-04-01T12:09:41Z</time>
      </trkpt>
      <trkpt lat="44.43979" lon="1.32212">
        <ele>254.236</ele>
        <time>2014-04-01T12:09:51Z</time>
      </trkpt>
      <trkpt lat="44.43987" lon="1.32192">
        <ele>254.396</ele>
        <time>2014-04-01T12:10:02Z</time>
      </trkpt>
      <trkpt lat="44.43995" lon="1.32174">
        <ele>255.326</ele>
        <time>2014-04-01T12:10:12Z</time>
      </trkpt>
      <trkpt lat="44.44" lon="1.3216">
        <ele>256.256</ele>
        <time>2014-04-01T12:10:20Z</time>
      </trkpt>
      <trkpt lat="44.44006" lon="1.32143">
        <ele>257.556</ele>
        <time>2014-04-01T12:10:30Z</time>
      </trkpt>
      <trkpt lat="44.44009" lon="1.32134">
        <ele>258.236</ele>
        <time>2014-04-01T12:10:35Z</time>
      </trkpt>
      <trkpt lat="44.44011" lon="1.32126">
        <ele>259.157</ele>
        <time>2014-04-01T12:10:40Z</time>
      </trkpt>
      <trkpt lat="44.44015" lon="1.32113">
        <ele>260.437</ele>
        <time>2014-04-01T12:10:47Z</time>
      </trkpt>
      <trkpt lat="44.4402" lon="1.32098">
        <ele>261.777</ele>
        <time>2014-04-01T12:10:55Z</time>
      </trkpt>
      <trkpt lat="44.44024" lon="1.32081">
        <ele>263.197</ele>
        <time>2014-04-01T12:11:04Z</time>
      </trkpt>
      <trkpt lat="44.44028" lon="1.32064">
        <ele>264.606</ele>
        <time>2014-04-01T12:11:13Z</time>
      </trkpt>
      <trkpt lat="44.44032" lon="1.32048">
        <ele>265.757</ele>
        <time>2014-04-01T12:11:22Z</time>
      </trkpt>
      <trkpt lat="44.44039" lon="1.32028">
        <ele>267.546</ele>
        <time>2014-04-01T12:11:34Z</time>
      </trkpt>
      <trkpt lat="44.44047" lon="1.32014">
        <ele>268.967</ele>
        <time>2014-04-01T12:11:44Z</time>
      </trkpt>
      <trkpt lat="44.44058" lon="1.32001">
        <ele>271.366</ele>
        <time>2014-04-01T12:11:55Z</time>
      </trkpt>
      <trkpt lat="44.44067" lon="1.31992">
        <ele>272.796</ele>
        <time>2014-04-01T12:12:04Z</time>
      </trkpt>
      <trkpt lat="44.44077" lon="1.31983">
        <ele>274.546</ele>
        <time>2014-04-01T12:12:13Z</time>
      </trkpt>
      <trkpt lat="44.44087" lon="1.31975">
        <ele>276.626</ele>
        <time>2014-04-01T12:12:21Z</time>
      </trkpt>
      <trkpt lat="44.44098" lon="1.31968">
        <ele>278.837</ele>
        <time>2014-04-01T12:12:30Z</time>
      </trkpt>
      <trkpt lat="44.44106" lon="1.31963">
        <ele>280.016</ele>
        <time>2014-04-01T12:12:37Z</time>
      </trkpt>
      <trkpt lat="44.44125" lon="1.31955">
        <ele>282.796</ele>
        <time>2014-04-01T12:12:50Z</time>
      </trkpt>
      <trkpt lat="44.44135" lon="1.3195">
        <ele>284.227</ele>
        <time>2014-04-01T12:12:57Z</time>
      </trkpt>
      <trkpt lat="44.44152" lon="1.31943">
        <ele>285.386</ele>
        <time>2014-04-01T12:13:07Z</time>
      </trkpt>
      <trkpt lat="44.44171" lon="1.31938">
        <ele>286.547</ele>
        <time>2014-04-01T12:13:18Z</time>
      </trkpt>
      <trkpt lat="44.4419" lon="1.31935">
        <ele>288.037</ele>
        <time>2014-04-01T12:13:28Z</time>
      </trkpt>
      <trkpt lat="44.44207" lon="1.31938">
        <ele>289.607</ele>
        <time>2014-04-01T12:13:37Z</time>
      </trkpt>
      <trkpt lat="44.44231" lon="1.31943">
        <ele>291.266</ele>
        <time>2014-04-01T12:13:49Z</time>
      </trkpt>
      <trkpt lat="44.44244" lon="1.31946">
        <ele>291.126</ele>
        <time>2014-04-01T12:13:56Z</time>
      </trkpt>
      <trkpt lat="44.44244" lon="1.31946">
        <ele>291.12</ele>
        <time>2014-04-01T12:13:57Z</time>
      </trkpt>
    </trkseg>
  </trk>
  <trk>
    <name><![CDATA[2014-04-01-08-18-57]]></name>
    <trkseg>
      <trkpt lat="44.44252" lon="1.31951">
        <ele>289.466</ele>
        <time>2014-04-01T12:14:44Z</time>
      </trkpt>
      <trkpt lat="44.44263" lon="1.31963">
        <ele>288.465</ele>
        <time>2014-04-01T12:14:48Z</time>
      </trkpt>
      <trkpt lat="44.44282" lon="1.31978">
        <ele>286.694</ele>
        <time>2014-04-01T12:14:52Z</time>
      </trkpt>
      <trkpt lat="44.44301" lon="1.3199">
        <ele>284.854</ele>
        <time>2014-04-01T12:14:55Z</time>
      </trkpt>
      <trkpt lat="44.44323" lon="1.32019">
        <ele>283.845</ele>
        <time>2014-04-01T12:14:59Z</time>
      </trkpt>
      <trkpt lat="44.44327" lon="1.32027">
        <ele>283.785</ele>
        <time>2014-04-01T12:15:00Z</time>
      </trkpt>
      <trkpt lat="44.44341" lon="1.32066">
        <ele>282.274</ele>
        <time>2014-04-01T12:15:05Z</time>
      </trkpt>
      <trkpt lat="44.44349" lon="1.32083">
        <ele>279.982</ele>
        <time>2014-04-01T12:15:07Z</time>
      </trkpt>
      <trkpt lat="44.44373" lon="1.32103">
        <ele>279.847</ele>
        <time>2014-04-01T12:15:11Z</time>
      </trkpt>
      <trkpt lat="44.44388" lon="1.32096">
        <ele>280.949</ele>
        <time>2014-04-01T12:15:14Z</time>
      </trkpt>
      <trkpt lat="44.44391" lon="1.32092">
        <ele>281.409</ele>
        <time>2014-04-01T12:15:15Z</time>
      </trkpt>
      <trkpt lat="44.44414" lon="1.32059">
        <ele>285.049</ele>
        <time>2014-04-01T12:15:23Z</time>
      </trkpt>
      <trkpt lat="44.44432" lon="1.32035">
        <ele>287.708</ele>
        <time>2014-04-01T12:15:30Z</time>
      </trkpt>
      <trkpt lat="44.44453" lon="1.32006">
        <ele>289.708</ele>
        <time>2014-04-01T12:15:39Z</time>
      </trkpt>
      <trkpt lat="44.44468" lon="1.31986">
        <ele>291.688</ele>
        <time>2014-04-01T12:15:46Z</time>
      </trkpt>
      <trkpt lat="44.44485" lon="1.3196">
        <ele>291.697</ele>
        <time>2014-04-01T12:15:54Z</time>
      </trkpt>
      <trkpt lat="44.44498" lon="1.31932">
        <ele>291.387</ele>
        <time>2014-04-01T12:16:01Z</time>
      </trkpt>
      <trkpt lat="44.44512" lon="1.31906">
        <ele>290.337</ele>
        <time>2014-04-01T12:16:07Z</time>
      </trkpt>
      <trkpt lat="44.44535" lon="1.31884">
        <ele>289.557</ele>
        <time>2014-04-01T12:16:13Z</time>
      </trkpt>
      <trkpt lat="44.44553" lon="1.31874">
        <ele>289.758</ele>
        <time>2014-04-01T12:16:17Z</time>
      </trkpt>
      <trkpt lat="44.44591" lon="1.31854">
        <ele>288.607</ele>
        <time>2014-04-01T12:16:25Z</time>
      </trkpt>
      <trkpt lat="44.44597" lon="1.31851">
        <ele>288.467</ele>
        <time>2014-04-01T12:16:26Z</time>
      </trkpt>
      <trkpt lat="44.44636" lon="1.31847">
        <ele>284.133</ele>
        <time>2014-04-01T12:16:31Z</time>
      </trkpt>
      <trkpt lat="44.44681" lon="1.31858">
        <ele>281.636</ele>
        <time>2014-04-01T12:16:36Z</time>
      </trkpt>
      <trkpt lat="44.44723" lon="1.31867">
        <ele>280.496</ele>
        <time>2014-04-01T12:16:41Z</time>
      </trkpt>
      <trkpt lat="44.44754" lon="1.31859">
        <ele>279.607</ele>
        <time>2014-04-01T12:16:45Z</time>
      </trkpt>
      <trkpt lat="44.44793" lon="1.31833">
        <ele>279.478</ele>
        <time>2014-04-01T12:16:51Z</time>
      </trkpt>
      <trkpt lat="44.44804" lon="1.31825">
        <ele>279.798</ele>
        <time>2014-04-01T12:16:53Z</time>
      </trkpt>
      <trkpt lat="44.4482" lon="1.31817">
        <ele>281.008</ele>
        <time>2014-04-01T12:16:56Z</time>
      </trkpt>
      <trkpt lat="44.44841" lon="1.3181">
        <ele>281.098</ele>
        <time>2014-04-01T12:17:00Z</time>
      </trkpt>
      <trkpt lat="44.44863" lon="1.31797">
        <ele>280.588</ele>
        <time>2014-04-01T12:17:04Z</time>
      </trkpt>
      <trkpt lat="44.44906" lon="1.31765">
        <ele>281.309</ele>
        <time>2014-04-01T12:17:13Z</time>
      </trkpt>
      <trkpt lat="44.44948" lon="1.31745">
        <ele>281.71</ele>
        <time>2014-04-01T12:17:22Z</time>
      </trkpt>
      <trkpt lat="44.44995" lon="1.31732">
        <ele>281.339</ele>
        <time>2014-04-01T12:17:33Z</time>
      </trkpt>
      <trkpt lat="44.45003" lon="1.31732">
        <ele>282.039</ele>
        <time>2014-04-01T12:17:35Z</time>
      </trkpt>
      <trkpt lat="44.45012" lon="1.31731">
        <ele>282.869</ele>
        <time>2014-04-01T12:17:37Z</time>
      </trkpt>
      <trkpt lat="44.45027" lon="1.31716">
        <ele>283.79</ele>
        <time>2014-04-01T12:17:42Z</time>
      </trkpt>
      <trkpt lat="44.45046" lon="1.31684">
        <ele>284.859</ele>
        <time>2014-04-01T12:17:50Z</time>
      </trkpt>
      <trkpt lat="44.45055" lon="1.31663">
        <ele>285.519</ele>
        <time>2014-04-01T12:17:56Z</time>
      </trkpt>
      <trkpt lat="44.45057" lon="1.31632">
        <ele>285.128</ele>
        <time>2014-04-01T12:18:02Z</time>
      </trkpt>
      <trkpt lat="44.45058" lon="1.31626">
        <ele>285.048</ele>
        <time>2014-04-01T12:18:03Z</time>
      </trkpt>
      <trkpt lat="44.45067" lon="1.31596">
        <ele>284.638</ele>
        <time>2014-04-01T12:18:08Z</time>
      </trkpt>
      <trkpt lat="44.45069" lon="1.31557">
        <ele>283.728</ele>
        <time>2014-04-01T12:18:14Z</time>
      </trkpt>
      <trkpt lat="44.45066" lon="1.31503">
        <ele>284.6</ele>
        <time>2014-04-01T12:18:22Z</time>
      </trkpt>
      <trkpt lat="44.45063" lon="1.31459">
        <ele>286.5</ele>
        <time>2014-04-01T12:18:30Z</time>
      </trkpt>
      <trkpt lat="44.45066" lon="1.31423">
        <ele>286.439</ele>
        <time>2014-04-01T12:18:36Z</time>
      </trkpt>
      <trkpt lat="44.45072" lon="1.31372">
        <ele>286.559</ele>
        <time>2014-04-01T12:18:45Z</time>
      </trkpt>
      <trkpt lat="44.45079" lon="1.31333">
        <ele>286.479</ele>
        <time>2014-04-01T12:18:52Z</time>
      </trkpt>
      <trkpt lat="44.45086" lon="1.31282">
        <ele>286.939</ele>
        <time>2014-04-01T12:19:01Z</time>
      </trkpt>
      <trkpt lat="44.45101" lon="1.31236">
        <ele>286.899</ele>
        <time>2014-04-01T12:19:09Z</time>
      </trkpt>
      <trkpt lat="44.45107" lon="1.31218">
        <ele>286.769</ele>
        <time>2014-04-01T12:19:12Z</time>
      </trkpt>
      <trkpt lat="44.45127" lon="1.3118">
        <ele>285.288</ele>
        <time>2014-04-01T12:19:20Z</time>
      </trkpt>
      <trkpt lat="44.45137" lon="1.31161">
        <ele>283.918</ele>
        <time>2014-04-01T12:19:25Z</time>
      </trkpt>
      <trkpt lat="44.45144" lon="1.31147">
        <ele>282.767</ele>
        <time>2014-04-01T12:19:29Z</time>
      </trkpt>
      <trkpt lat="44.45159" lon="1.31121">
        <ele>279.886</ele>
        <time>2014-04-01T12:19:34Z</time>
      </trkpt>
      <trkpt lat="44.45166" lon="1.31111">
        <ele>278.024</ele>
        <time>2014-04-01T12:19:36Z</time>
      </trkpt>
      <trkpt lat="44.45175" lon="1.31083">
        <ele>274.184</ele>
        <time>2014-04-01T12:19:40Z</time>
      </trkpt>
      <trkpt lat="44.45171" lon="1.31054">
        <ele>270.364</ele>
        <time>2014-04-01T12:19:44Z</time>
      </trkpt>
      <trkpt lat="44.4517" lon="1.31045">
        <ele>269.023</ele>
        <time>2014-04-01T12:19:45Z</time>
      </trkpt>
      <trkpt lat="44.45164" lon="1.31002">
        <ele>262.233</ele>
        <time>2014-04-01T12:19:51Z</time>
      </trkpt>
      <trkpt lat="44.45163" lon="1.30999">
        <ele>261.423</ele>
        <time>2014-04-01T12:19:52Z</time>
      </trkpt>
      <trkpt lat="44.45185" lon="1.3099">
        <ele>254.059</ele>
        <time>2014-04-01T12:20:22Z</time>
      </trkpt>
      <trkpt lat="44.45185" lon="1.30991">
        <ele>254.024</ele>
        <time>2014-04-01T12:20:23Z</time>
      </trkpt>
    </trkseg>
  </trk>
  <trk>
    <name><![CDATA[2014-04-01-08-18-57]]></name>
    <trkseg>
      <trkpt lat="44.45185" lon="1.3098">
        <ele>253.608</ele>
        <time>2014-04-01T12:20:32Z</time>
      </trkpt>
      <trkpt lat="44.45184" lon="1.30973">
        <ele>253.048</ele>
        <time>2014-04-01T12:20:34Z</time>
      </trkpt>
      <trkpt lat="44.45178" lon="1.30957">
        <ele>251.977</ele>
        <time>2014-04-01T12:20:37Z</time>
      </trkpt>
      <trkpt lat="44.45164" lon="1.30939">
        <ele>248.566</ele>
        <time>2014-04-01T12:20:41Z</time>
      </trkpt>
      <trkpt lat="44.45164" lon="1.30925">
        <ele>244.406</ele>
        <time>2014-04-01T12:20:46Z</time>
      </trkpt>
      <trkpt lat="44.45158" lon="1.30914">
        <ele>242.546</ele>
        <time>2014-04-01T12:20:49Z</time>
      </trkpt>
      <trkpt lat="44.4515" lon="1.30896">
        <ele>239.136</ele>
        <time>2014-04-01T12:20:52Z</time>
      </trkpt>
      <trkpt lat="44.45148" lon="1.30889">
        <ele>237.774</ele>
        <time>2014-04-01T12:20:53Z</time>
      </trkpt>
      <trkpt lat="44.45129" lon="1.30836">
        <ele>227.843</ele>
        <time>2014-04-01T12:20:59Z</time>
      </trkpt>
      <trkpt lat="44.45128" lon="1.30827">
        <ele>226.332</ele>
        <time>2014-04-01T12:21:00Z</time>
      </trkpt>
      <trkpt lat="44.45126" lon="1.30808">
        <ele>223.033</ele>
        <time>2014-04-01T12:21:02Z</time>
      </trkpt>
      <trkpt lat="44.45131" lon="1.30778">
        <ele>218.452</ele>
        <time>2014-04-01T12:21:06Z</time>
      </trkpt>
      <trkpt lat="44.45134" lon="1.30753">
        <ele>215.084</ele>
        <time>2014-04-01T12:21:09Z</time>
      </trkpt>
      <trkpt lat="44.45141" lon="1.30728">
        <ele>212.213</ele>
        <time>2014-04-01T12:21:12Z</time>
      </trkpt>
      <trkpt lat="44.45144" lon="1.3072">
        <ele>211.123</ele>
        <time>2014-04-01T12:21:13Z</time>
      </trkpt>
      <trkpt lat="44.45151" lon="1.30704">
        <ele>208.954</ele>
        <time>2014-04-01T12:21:15Z</time>
      </trkpt>
      <trkpt lat="44.45156" lon="1.30677">
        <ele>205.172</ele>
        <time>2014-04-01T12:21:18Z</time>
      </trkpt>
      <trkpt lat="44.45151" lon="1.30637">
        <ele>199.211</ele>
        <time>2014-04-01T12:21:22Z</time>
      </trkpt>
      <trkpt lat="44.45149" lon="1.30618">
        <ele>196.291</ele>
        <time>2014-04-01T12:21:24Z</time>
      </trkpt>
      <trkpt lat="44.45144" lon="1.30597">
        <ele>194.011</ele>
        <time>2014-04-01T12:21:26Z</time>
      </trkpt>
      <trkpt lat="44.45139" lon="1.30575">
        <ele>190.881</ele>
        <time>2014-04-01T12:21:28Z</time>
      </trkpt>
      <trkpt lat="44.45128" lon="1.30533">
        <ele>185.13</ele>
        <time>2014-04-01T12:21:32Z</time>
      </trkpt>
      <trkpt lat="44.45124" lon="1.30514">
        <ele>181.601</ele>
        <time>2014-04-01T12:21:34Z</time>
      </trkpt>
      <trkpt lat="44.45115" lon="1.3048">
        <ele>174.999</ele>
        <time>2014-04-01T12:21:38Z</time>
      </trkpt>
      <trkpt lat="44.45111" lon="1.30462">
        <ele>170.919</ele>
        <time>2014-04-01T12:21:41Z</time>
      </trkpt>
      <trkpt lat="44.451" lon="1.30452">
        <ele>166.629</ele>
        <time>2014-04-01T12:21:44Z</time>
      </trkpt>
      <trkpt lat="44.45078" lon="1.30427">
        <ele>162.621</ele>
        <time>2014-04-01T12:21:48Z</time>
      </trkpt>
      <trkpt lat="44.45058" lon="1.30386">
        <ele>156.581</ele>
        <time>2014-04-01T12:21:53Z</time>
      </trkpt>
      <trkpt lat="44.45057" lon="1.30368">
        <ele>153.432</ele>
        <time>2014-04-01T12:21:55Z</time>
      </trkpt>
      <trkpt lat="44.45062" lon="1.30327">
        <ele>146.21</ele>
        <time>2014-04-01T12:22:00Z</time>
      </trkpt>
      <trkpt lat="44.45069" lon="1.30285">
        <ele>139.791</ele>
        <time>2014-04-01T12:22:05Z</time>
      </trkpt>
      <trkpt lat="44.45069" lon="1.30257">
        <ele>135.832</ele>
        <time>2014-04-01T12:22:08Z</time>
      </trkpt>
      <trkpt lat="44.45068" lon="1.30235">
        <ele>132.262</ele>
        <time>2014-04-01T12:22:11Z</time>
      </trkpt>
      <trkpt lat="44.45073" lon="1.30212">
        <ele>127.762</ele>
        <time>2014-04-01T12:22:16Z</time>
      </trkpt>
      <trkpt lat="44.45066" lon="1.30193">
        <ele>125.251</ele>
        <time>2014-04-01T12:22:19Z</time>
      </trkpt>
      <trkpt lat="44.45063" lon="1.3017">
        <ele>122.082</ele>
        <time>2014-04-01T12:22:22Z</time>
      </trkpt>
      <trkpt lat="44.45063" lon="1.30125">
        <ele>117.202</ele>
        <time>2014-04-01T12:22:27Z</time>
      </trkpt>
      <trkpt lat="44.45063" lon="1.30108">
        <ele>116.811</ele>
        <time>2014-04-01T12:22:30Z</time>
      </trkpt>
      <trkpt lat="44.45063" lon="1.30106">
        <ele>117.149</ele>
        <time>2014-04-01T12:22:31Z</time>
      </trkpt>
      <trkpt lat="44.45068" lon="1.30103">
        <ele>117.144</ele>
        <time>2014-04-01T12:22:35Z</time>
      </trkpt>
      <trkpt lat="44.45064" lon="1.30105">
        <ele>117.675</ele>
        <time>2014-04-01T12:22:37Z</time>
      </trkpt>
      <trkpt lat="44.45046" lon="1.30107">
        <ele>119.946</ele>
        <time>2014-04-01T12:22:43Z</time>
      </trkpt>
      <trkpt lat="44.45019" lon="1.30107">
        <ele>121.117</ele>
        <time>2014-04-01T12:22:50Z</time>
      </trkpt>
      <trkpt lat="44.44984" lon="1.30094">
        <ele>121.997</ele>
        <time>2014-04-01T12:22:59Z</time>
      </trkpt>
      <trkpt lat="44.44964" lon="1.3008">
        <ele>122.147</ele>
        <time>2014-04-01T12:23:05Z</time>
      </trkpt>
      <trkpt lat="44.44946" lon="1.30062">
        <ele>123.117</ele>
        <time>2014-04-01T12:23:11Z</time>
      </trkpt>
      <trkpt lat="44.44934" lon="1.30044">
        <ele>124.537</ele>
        <time>2014-04-01T12:23:17Z</time>
      </trkpt>
      <trkpt lat="44.44932" lon="1.30042">
        <ele>124.426</ele>
        <time>2014-04-01T12:23:18Z</time>
      </trkpt>
      <trkpt lat="44.44931" lon="1.30038">
        <ele>125.348</ele>
        <time>2014-04-01T12:23:22Z</time>
      </trkpt>
    </trkseg>
  </trk>
  <trk>
    <name><![CDATA[2014-04-01-08-18-57]]></name>
    <trkseg>
      <trkpt lat="44.44917" lon="1.30022">
        <ele>126.336</ele>
        <time>2014-04-01T12:23:38Z</time>
      </trkpt>
      <trkpt lat="44.44902" lon="1.29981">
        <ele>126.007</ele>
        <time>2014-04-01T12:23:47Z</time>
      </trkpt>
      <trkpt lat="44.44882" lon="1.2994">
        <ele>125.366</ele>
        <time>2014-04-01T12:23:56Z</time>
      </trkpt>
      <trkpt lat="44.44856" lon="1.29907">
        <ele>126.266</ele>
        <time>2014-04-01T12:24:05Z</time>
      </trkpt>
      <trkpt lat="44.44834" lon="1.29885">
        <ele>127.237</ele>
        <time>2014-04-01T12:24:12Z</time>
      </trkpt>
      <trkpt lat="44.44808" lon="1.29862">
        <ele>129.216</ele>
        <time>2014-04-01T12:24:20Z</time>
      </trkpt>
      <trkpt lat="44.44783" lon="1.29838">
        <ele>130.615</ele>
        <time>2014-04-01T12:24:28Z</time>
      </trkpt>
      <trkpt lat="44.44774" lon="1.2983">
        <ele>130.957</ele>
        <time>2014-04-01T12:24:32Z</time>
      </trkpt>
      <trkpt lat="44.44776" lon="1.29822">
        <ele>131.075</ele>
        <time>2014-04-01T12:24:37Z</time>
      </trkpt>
      <trkpt lat="44.44789" lon="1.29816">
        <ele>132.775</ele>
        <time>2014-04-01T12:24:41Z</time>
      </trkpt>
      <trkpt lat="44.44807" lon="1.29806">
        <ele>129.885</ele>
        <time>2014-04-01T12:24:46Z</time>
      </trkpt>
      <trkpt lat="44.44815" lon="1.29806">
        <ele>129.294</ele>
        <time>2014-04-01T12:24:49Z</time>
      </trkpt>
      <trkpt lat="44.44827" lon="1.29806">
        <ele>129.525</ele>
        <time>2014-04-01T12:24:53Z</time>
      </trkpt>
      <trkpt lat="44.4484" lon="1.29806">
        <ele>127.914</ele>
        <time>2014-04-01T12:24:56Z</time>
      </trkpt>
      <trkpt lat="44.44856" lon="1.29815">
        <ele>125.854</ele>
        <time>2014-04-01T12:25:00Z</time>
      </trkpt>
      <trkpt lat="44.44874" lon="1.29831">
        <ele>124.293</ele>
        <time>2014-04-01T12:25:04Z</time>
      </trkpt>
      <trkpt lat="44.44885" lon="1.29839">
        <ele>123.773</ele>
        <time>2014-04-01T12:25:07Z</time>
      </trkpt>
      <trkpt lat="44.4491" lon="1.29869">
        <ele>125.144</ele>
        <time>2014-04-01T12:25:14Z</time>
      </trkpt>
      <trkpt lat="44.44914" lon="1.29874">
        <ele>125.494</ele>
        <time>2014-04-01T12:25:15Z</time>
      </trkpt>
    </trkseg>
  </trk>
  <trk>
    <name><![CDATA[2014-04-01-08-18-57]]></name>
    <trkseg>
      <trkpt lat="44.44984" lon="1.3">
        <ele>129.797</ele>
        <time>2014-04-01T12:26:10Z</time>
      </trkpt>
      <trkpt lat="44.44987" lon="1.30002">
        <ele>130.687</ele>
        <time>2014-04-01T12:26:12Z</time>
      </trkpt>
      <trkpt lat="44.44994" lon="1.3001">
        <ele>132.037</ele>
        <time>2014-04-01T12:26:18Z</time>
      </trkpt>
      <trkpt lat="44.44995" lon="1.3001">
        <ele>132.591</ele>
        <time>2014-04-01T12:26:20Z</time>
      </trkpt>
    </trkseg>
  </trk>
  <trk>
    <name><![CDATA[2014-04-01-08-18-57]]></name>
    <trkseg>
      <trkpt lat="44.44996" lon="1.30012">
        <ele>133.245</ele>
        <time>2014-04-01T12:26:25Z</time>
      </trkpt>
    </trkseg>
  </trk>
  <trk>
    <name><![CDATA[2014-04-01-08-18-57]]></name>
    <trkseg>
      <trkpt lat="44.45" lon="1.30015">
        <ele>133.847</ele>
        <time>2014-04-01T12:26:32Z</time>
      </trkpt>
      <trkpt lat="44.45003" lon="1.30019">
        <ele>133.266</ele>
        <time>2014-04-01T12:26:36Z</time>
      </trkpt>
      <trkpt lat="44.45015" lon="1.30029">
        <ele>129.964</ele>
        <time>2014-04-01T12:26:41Z</time>
      </trkpt>
      <trkpt lat="44.45034" lon="1.30027">
        <ele>127.344</ele>
        <time>2014-04-01T12:26:45Z</time>
      </trkpt>
      <trkpt lat="44.45047" lon="1.30024">
        <ele>126.405</ele>
        <time>2014-04-01T12:26:49Z</time>
      </trkpt>
      <trkpt lat="44.45058" lon="1.30029">
        <ele>124.924</ele>
        <time>2014-04-01T12:26:53Z</time>
      </trkpt>
      <trkpt lat="44.4507" lon="1.30025">
        <ele>123.744</ele>
        <time>2014-04-01T12:26:56Z</time>
      </trkpt>
      <trkpt lat="44.45089" lon="1.30021">
        <ele>120.643</ele>
        <time>2014-04-01T12:27:00Z</time>
      </trkpt>
      <trkpt lat="44.4511" lon="1.3001">
        <ele>118.504</ele>
        <time>2014-04-01T12:27:05Z</time>
      </trkpt>
      <trkpt lat="44.45122" lon="1.30002">
        <ele>117.444</ele>
        <time>2014-04-01T12:27:09Z</time>
      </trkpt>
      <trkpt lat="44.45141" lon="1.29997">
        <ele>118.616</ele>
        <time>2014-04-01T12:27:14Z</time>
      </trkpt>
      <trkpt lat="44.45161" lon="1.29996">
        <ele>119.096</ele>
        <time>2014-04-01T12:27:18Z</time>
      </trkpt>
      <trkpt lat="44.45178" lon="1.29984">
        <ele>119.608</ele>
        <time>2014-04-01T12:27:22Z</time>
      </trkpt>
      <trkpt lat="44.45195" lon="1.29982">
        <ele>120.237</ele>
        <time>2014-04-01T12:27:26Z</time>
      </trkpt>
      <trkpt lat="44.45213" lon="1.29987">
        <ele>121.356</ele>
        <time>2014-04-01T12:27:30Z</time>
      </trkpt>
      <trkpt lat="44.45226" lon="1.29996">
        <ele>121.586</ele>
        <time>2014-04-01T12:27:33Z</time>
      </trkpt>
      <trkpt lat="44.45236" lon="1.29995">
        <ele>121.757</ele>
        <time>2014-04-01T12:27:35Z</time>
      </trkpt>
      <trkpt lat="44.45257" lon="1.29999">
        <ele>121.156</ele>
        <time>2014-04-01T12:27:40Z</time>
      </trkpt>
      <trkpt lat="44.45261" lon="1.30003">
        <ele>120.846</ele>
        <time>2014-04-01T12:27:41Z</time>
      </trkpt>
      <trkpt lat="44.45289" lon="1.30006">
        <ele>121.868</ele>
        <time>2014-04-01T12:27:47Z</time>
      </trkpt>
      <trkpt lat="44.45302" lon="1.30015">
        <ele>122.167</ele>
        <time>2014-04-01T12:27:50Z</time>
      </trkpt>
      <trkpt lat="44.45317" lon="1.3002">
        <ele>120.466</ele>
        <time>2014-04-01T12:27:53Z</time>
      </trkpt>
      <trkpt lat="44.45328" lon="1.30023">
        <ele>118.576</ele>
        <time>2014-04-01T12:27:55Z</time>
      </trkpt>
      <trkpt lat="44.45352" lon="1.30025">
        <ele>117.566</ele>
        <time>2014-04-01T12:27:59Z</time>
      </trkpt>
      <trkpt lat="44.45372" lon="1.3003">
        <ele>117.416</ele>
        <time>2014-04-01T12:28:03Z</time>
      </trkpt>
      <trkpt lat="44.45395" lon="1.30049">
        <ele>115.356</ele>
        <time>2014-04-01T12:28:08Z</time>
      </trkpt>
      <trkpt lat="44.454" lon="1.30051">
        <ele>114.525</ele>
        <time>2014-04-01T12:28:09Z</time>
      </trkpt>
      <trkpt lat="44.45425" lon="1.30048">
        <ele>111.895</ele>
        <time>2014-04-01T12:28:14Z</time>
      </trkpt>
      <trkpt lat="44.4544" lon="1.30039">
        <ele>112.585</ele>
        <time>2014-04-01T12:28:18Z</time>
      </trkpt>
      <trkpt lat="44.45444" lon="1.30041">
        <ele>112.646</ele>
        <time>2014-04-01T12:28:19Z</time>
      </trkpt>
      <trkpt lat="44.45463" lon="1.30045">
        <ele>111.307</ele>
        <time>2014-04-01T12:28:24Z</time>
      </trkpt>
      <trkpt lat="44.45467" lon="1.30046">
        <ele>111.417</ele>
        <time>2014-04-01T12:28:25Z</time>
      </trkpt>
      <trkpt lat="44.45484" lon="1.30039">
        <ele>111.388</ele>
        <time>2014-04-01T12:28:29Z</time>
      </trkpt>
      <trkpt lat="44.45493" lon="1.30038">
        <ele>111.628</ele>
        <time>2014-04-01T12:28:32Z</time>
      </trkpt>
      <trkpt lat="44.45499" lon="1.30033">
        <ele>112.198</ele>
        <time>2014-04-01T12:28:35Z</time>
      </trkpt>
      <trkpt lat="44.45513" lon="1.30035">
        <ele>112.829</ele>
        <time>2014-04-01T12:28:39Z</time>
      </trkpt>
      <trkpt lat="44.45534" lon="1.30029">
        <ele>112.608</ele>
        <time>2014-04-01T12:28:43Z</time>
      </trkpt>
      <trkpt lat="44.45548" lon="1.30034">
        <ele>114.069</ele>
        <time>2014-04-01T12:28:46Z</time>
      </trkpt>
      <trkpt lat="44.45563" lon="1.3002">
        <ele>113.709</ele>
        <time>2014-04-01T12:28:50Z</time>
      </trkpt>
      <trkpt lat="44.45566" lon="1.30019">
        <ele>114.459</ele>
        <time>2014-04-01T12:28:51Z</time>
      </trkpt>
      <trkpt lat="44.45583" lon="1.30014">
        <ele>115.879</ele>
        <time>2014-04-01T12:28:56Z</time>
      </trkpt>
      <trkpt lat="44.45596" lon="1.30012">
        <ele>115.379</ele>
        <time>2014-04-01T12:29:00Z</time>
      </trkpt>
      <trkpt lat="44.45604" lon="1.30012">
        <ele>115.359</ele>
        <time>2014-04-01T12:29:02Z</time>
      </trkpt>
      <trkpt lat="44.45619" lon="1.30009">
        <ele>115.319</ele>
        <time>2014-04-01T12:29:05Z</time>
      </trkpt>
      <trkpt lat="44.45648" lon="1.30014">
        <ele>114.398</ele>
        <time>2014-04-01T12:29:10Z</time>
      </trkpt>
      <trkpt lat="44.45659" lon="1.30011">
        <ele>114.948</ele>
        <time>2014-04-01T12:29:12Z</time>
      </trkpt>
      <trkpt lat="44.45672" lon="1.30007">
        <ele>115.138</ele>
        <time>2014-04-01T12:29:15Z</time>
      </trkpt>
      <trkpt lat="44.45698" lon="1.3">
        <ele>114.058</ele>
        <time>2014-04-01T12:29:21Z</time>
      </trkpt>
      <trkpt lat="44.45724" lon="1.3">
        <ele>113.019</ele>
        <time>2014-04-01T12:29:26Z</time>
      </trkpt>
      <trkpt lat="44.45739" lon="1.29994">
        <ele>111.748</ele>
        <time>2014-04-01T12:29:29Z</time>
      </trkpt>
      <trkpt lat="44.45746" lon="1.29986">
        <ele>111.529</ele>
        <time>2014-04-01T12:29:31Z</time>
      </trkpt>
      <trkpt lat="44.45769" lon="1.29975">
        <ele>109.548</ele>
        <time>2014-04-01T12:29:37Z</time>
      </trkpt>
      <trkpt lat="44.45772" lon="1.29974">
        <ele>109.408</ele>
        <time>2014-04-01T12:29:38Z</time>
      </trkpt>
      <trkpt lat="44.45796" lon="1.29968">
        <ele>107.938</ele>
        <time>2014-04-01T12:29:43Z</time>
      </trkpt>
      <trkpt lat="44.45816" lon="1.29961">
        <ele>107.058</ele>
        <time>2014-04-01T12:29:46Z</time>
      </trkpt>
      <trkpt lat="44.45828" lon="1.29954">
        <ele>107.439</ele>
        <time>2014-04-01T12:29:48Z</time>
      </trkpt>
      <trkpt lat="44.45848" lon="1.29949">
        <ele>108.4</ele>
        <time>2014-04-01T12:29:52Z</time>
      </trkpt>
      <trkpt lat="44.45874" lon="1.29948">
        <ele>109.239</ele>
        <time>2014-04-01T12:29:57Z</time>
      </trkpt>
      <trkpt lat="44.459" lon="1.29951">
        <ele>110.07</ele>
        <time>2014-04-01T12:30:02Z</time>
      </trkpt>
      <trkpt lat="44.45908" lon="1.29956">
        <ele>110.63</ele>
        <time>2014-04-01T12:30:04Z</time>
      </trkpt>
      <trkpt lat="44.45928" lon="1.2996">
        <ele>111.51</ele>
        <time>2014-04-01T12:30:08Z</time>
      </trkpt>
      <trkpt lat="44.45957" lon="1.29941">
        <ele>110.349</ele>
        <time>2014-04-01T12:30:13Z</time>
      </trkpt>
      <trkpt lat="44.46006" lon="1.29942">
        <ele>109.519</ele>
        <time>2014-04-01T12:30:21Z</time>
      </trkpt>
      <trkpt lat="44.46028" lon="1.29947">
        <ele>110.111</ele>
        <time>2014-04-01T12:30:25Z</time>
      </trkpt>
      <trkpt lat="44.46066" lon="1.29963">
        <ele>110.521</ele>
        <time>2014-04-01T12:30:32Z</time>
      </trkpt>
      <trkpt lat="44.46094" lon="1.29974">
        <ele>110.581</ele>
        <time>2014-04-01T12:30:37Z</time>
      </trkpt>
      <trkpt lat="44.46116" lon="1.2998">
        <ele>112.441</ele>
        <time>2014-04-01T12:30:41Z</time>
      </trkpt>
      <trkpt lat="44.46138" lon="1.29988">
        <ele>113.191</ele>
        <time>2014-04-01T12:30:46Z</time>
      </trkpt>
      <trkpt lat="44.46158" lon="1.29996">
        <ele>114.251</ele>
        <time>2014-04-01T12:30:50Z</time>
      </trkpt>
      <trkpt lat="44.46178" lon="1.30011">
        <ele>115.772</ele>
        <time>2014-04-01T12:30:54Z</time>
      </trkpt>
      <trkpt lat="44.46201" lon="1.30035">
        <ele>111.81</ele>
        <time>2014-04-01T12:30:59Z</time>
      </trkpt>
      <trkpt lat="44.46205" lon="1.30035">
        <ele>111.5</ele>
        <time>2014-04-01T12:31:00Z</time>
      </trkpt>
      <trkpt lat="44.46238" lon="1.30028">
        <ele>108.69</ele>
        <time>2014-04-01T12:31:08Z</time>
      </trkpt>
      <trkpt lat="44.46246" lon="1.30026">
        <ele>109.481</ele>
        <time>2014-04-01T12:31:10Z</time>
      </trkpt>
      <trkpt lat="44.46289" lon="1.30013">
        <ele>104.079</ele>
        <time>2014-04-01T12:31:20Z</time>
      </trkpt>
      <trkpt lat="44.46313" lon="1.30003">
        <ele>102.8</ele>
        <time>2014-04-01T12:31:25Z</time>
      </trkpt>
      <trkpt lat="44.46335" lon="1.29991">
        <ele>106.382</ele>
        <time>2014-04-01T12:31:31Z</time>
      </trkpt>
      <trkpt lat="44.46358" lon="1.29992">
        <ele>108.092</ele>
        <time>2014-04-01T12:31:36Z</time>
      </trkpt>
      <trkpt lat="44.46395" lon="1.29996">
        <ele>108.221</ele>
        <time>2014-04-01T12:31:43Z</time>
      </trkpt>
      <trkpt lat="44.46435" lon="1.29994">
        <ele>108.911</ele>
        <time>2014-04-01T12:31:50Z</time>
      </trkpt>
      <trkpt lat="44.46451" lon="1.29996">
        <ele>108.271</ele>
        <time>2014-04-01T12:31:53Z</time>
      </trkpt>
      <trkpt lat="44.46469" lon="1.29985">
        <ele>104.17</ele>
        <time>2014-04-01T12:31:57Z</time>
      </trkpt>
      <trkpt lat="44.46496" lon="1.29936">
        <ele>100.921</ele>
        <time>2014-04-01T12:32:05Z</time>
      </trkpt>
      <trkpt lat="44.46502" lon="1.29897">
        <ele>100.681</ele>
        <time>2014-04-01T12:32:10Z</time>
      </trkpt>
      <trkpt lat="44.46501" lon="1.29888">
        <ele>100.661</ele>
        <time>2014-04-01T12:32:11Z</time>
      </trkpt>
      <trkpt lat="44.46496" lon="1.29861">
        <ele>100.531</ele>
        <time>2014-04-01T12:32:14Z</time>
      </trkpt>
      <trkpt lat="44.46473" lon="1.29818">
        <ele>99.481</ele>
        <time>2014-04-01T12:32:19Z</time>
      </trkpt>
      <trkpt lat="44.46454" lon="1.298">
        <ele>99.671</ele>
        <time>2014-04-01T12:32:22Z</time>
      </trkpt>
      <trkpt lat="44.4642" lon="1.29766">
        <ele>101.052</ele>
        <time>2014-04-01T12:32:28Z</time>
      </trkpt>
      <trkpt lat="44.46394" lon="1.29728">
        <ele>101.442</ele>
        <time>2014-04-01T12:32:34Z</time>
      </trkpt>
      <trkpt lat="44.4639" lon="1.29722">
        <ele>101.532</ele>
        <time>2014-04-01T12:32:35Z</time>
      </trkpt>
      <trkpt lat="44.46366" lon="1.29703">
        <ele>101.651</ele>
        <time>2014-04-01T12:32:40Z</time>
      </trkpt>
      <trkpt lat="44.46337" lon="1.29677">
        <ele>102.962</ele>
        <time>2014-04-01T12:32:47Z</time>
      </trkpt>
      <trkpt lat="44.46309" lon="1.29652">
        <ele>104.962</ele>
        <time>2014-04-01T12:32:54Z</time>
      </trkpt>
      <trkpt lat="44.46279" lon="1.29624">
        <ele>107.392</ele>
        <time>2014-04-01T12:33:02Z</time>
      </trkpt>
      <trkpt lat="44.46272" lon="1.29617">
        <ele>109.122</ele>
        <time>2014-04-01T12:33:06Z</time>
      </trkpt>
      <trkpt lat="44.4627" lon="1.29614">
        <ele>109.732</ele>
        <time>2014-04-01T12:33:09Z</time>
      </trkpt>
      <trkpt lat="44.46267" lon="1.29612">
        <ele>110.091</ele>
        <time>2014-04-01T12:33:13Z</time>
      </trkpt>
    </trkseg>
  </trk>
  <trk>
    <name><![CDATA[2014-04-01-08-18-57]]></name>
    <trkseg>
      <trkpt lat="44.46267" lon="1.29612">
        <ele>111.861</ele>
        <time>2014-04-01T12:33:39Z</time>
      </trkpt>
      <trkpt lat="44.46273" lon="1.29621">
        <ele>111.3</ele>
        <time>2014-04-01T12:33:44Z</time>
      </trkpt>
      <trkpt lat="44.46277" lon="1.29621">
        <ele>111.54</ele>
        <time>2014-04-01T12:33:48Z</time>
      </trkpt>
    </trkseg>
  </trk>
  <trk>
    <name><![CDATA[2014-04-01-08-18-57]]></name>
    <trkseg>
      <trkpt lat="44.4627" lon="1.29601">
        <ele>108.309</ele>
        <time>2014-04-01T12:34:00Z</time>
      </trkpt>
      <trkpt lat="44.46258" lon="1.29568">
        <ele>107.32</ele>
        <time>2014-04-01T12:34:05Z</time>
      </trkpt>
      <trkpt lat="44.46235" lon="1.29539">
        <ele>105.44</ele>
        <time>2014-04-01T12:34:11Z</time>
      </trkpt>
      <trkpt lat="44.46228" lon="1.2953">
        <ele>105.08</ele>
        <time>2014-04-01T12:34:13Z</time>
      </trkpt>
      <trkpt lat="44.46211" lon="1.29504">
        <ele>103.239</ele>
        <time>2014-04-01T12:34:18Z</time>
      </trkpt>
      <trkpt lat="44.46204" lon="1.29492">
        <ele>101.929</ele>
        <time>2014-04-01T12:34:20Z</time>
      </trkpt>
      <trkpt lat="44.46192" lon="1.29461">
        <ele>100.329</ele>
        <time>2014-04-01T12:34:25Z</time>
      </trkpt>
      <trkpt lat="44.46179" lon="1.2943">
        <ele>99.599</ele>
        <time>2014-04-01T12:34:30Z</time>
      </trkpt>
      <trkpt lat="44.46173" lon="1.29418">
        <ele>99.629</ele>
        <time>2014-04-01T12:34:32Z</time>
      </trkpt>
      <trkpt lat="44.46164" lon="1.29397">
        <ele>100.08</ele>
        <time>2014-04-01T12:34:35Z</time>
      </trkpt>
      <trkpt lat="44.46156" lon="1.29371">
        <ele>100.66</ele>
        <time>2014-04-01T12:34:39Z</time>
      </trkpt>
      <trkpt lat="44.46144" lon="1.29339">
        <ele>99.779</ele>
        <time>2014-04-01T12:34:44Z</time>
      </trkpt>
      <trkpt lat="44.46133" lon="1.29309">
        <ele>99.959</ele>
        <time>2014-04-01T12:34:49Z</time>
      </trkpt>
      <trkpt lat="44.46132" lon="1.29304">
        <ele>100.851</ele>
        <time>2014-04-01T12:34:52Z</time>
      </trkpt>
    </trkseg>
  </trk>
  <trk>
    <name><![CDATA[2014-04-01-08-18-57]]></name>
    <trkseg>
      <trkpt lat="44.46129" lon="1.293">
        <ele>102.143</ele>
        <time>2014-04-01T12:34:59Z</time>
      </trkpt>
    </trkseg>
  </trk>
  <trk>
    <name><![CDATA[2014-04-01-08-18-57]]></name>
    <trkseg>
      <trkpt lat="44.46128" lon="1.29294">
        <ele>102.119</ele>
        <time>2014-04-01T12:35:04Z</time>
      </trkpt>
      <trkpt lat="44.46124" lon="1.29275">
        <ele>101.529</ele>
        <time>2014-04-01T12:35:08Z</time>
      </trkpt>
      <trkpt lat="44.46122" lon="1.29262">
        <ele>101.048</ele>
        <time>2014-04-01T12:35:10Z</time>
      </trkpt>
      <trkpt lat="44.46117" lon="1.29229">
        <ele>101.739</ele>
        <time>2014-04-01T12:35:15Z</time>
      </trkpt>
      <trkpt lat="44.46116" lon="1.29216">
        <ele>100.939</ele>
        <time>2014-04-01T12:35:17Z</time>
      </trkpt>
      <trkpt lat="44.46114" lon="1.29201">
        <ele>100.068</ele>
        <time>2014-04-01T12:35:19Z</time>
      </trkpt>
      <trkpt lat="44.46107" lon="1.29173">
        <ele>98.909</ele>
        <time>2014-04-01T12:35:23Z</time>
      </trkpt>
      <trkpt lat="44.461" lon="1.29137">
        <ele>100.309</ele>
        <time>2014-04-01T12:35:29Z</time>
      </trkpt>
      <trkpt lat="44.46099" lon="1.29131">
        <ele>100.308</ele>
        <time>2014-04-01T12:35:30Z</time>
      </trkpt>
      <trkpt lat="44.46094" lon="1.29096">
        <ele>98.838</ele>
        <time>2014-04-01T12:35:35Z</time>
      </trkpt>
      <trkpt lat="44.46092" lon="1.29077">
        <ele>99.628</ele>
        <time>2014-04-01T12:35:39Z</time>
      </trkpt>
      <trkpt lat="44.46092" lon="1.29065">
        <ele>100.599</ele>
        <time>2014-04-01T12:35:42Z</time>
      </trkpt>
      <trkpt lat="44.46091" lon="1.2904">
        <ele>99.827</ele>
        <time>2014-04-01T12:35:48Z</time>
      </trkpt>
      <trkpt lat="44.46094" lon="1.29022">
        <ele>99.408</ele>
        <time>2014-04-01T12:35:51Z</time>
      </trkpt>
      <trkpt lat="44.46097" lon="1.28992">
        <ele>99.097</ele>
        <time>2014-04-01T12:35:56Z</time>
      </trkpt>
      <trkpt lat="44.46098" lon="1.28985">
        <ele>99.517</ele>
        <time>2014-04-01T12:35:57Z</time>
      </trkpt>
      <trkpt lat="44.461" lon="1.28973">
        <ele>100.068</ele>
        <time>2014-04-01T12:35:59Z</time>
      </trkpt>
      <trkpt lat="44.461" lon="1.28946">
        <ele>98.347</ele>
        <time>2014-04-01T12:36:03Z</time>
      </trkpt>
      <trkpt lat="44.46097" lon="1.28929">
        <ele>94.536</ele>
        <time>2014-04-01T12:36:06Z</time>
      </trkpt>
      <trkpt lat="44.46084" lon="1.28921">
        <ele>93.397</ele>
        <time>2014-04-01T12:36:11Z</time>
      </trkpt>
      <trkpt lat="44.46082" lon="1.2892">
        <ele>93.656</ele>
        <time>2014-04-01T12:36:12Z</time>
      </trkpt>
      <trkpt lat="44.46075" lon="1.28919">
        <ele>94.398</ele>
        <time>2014-04-01T12:36:17Z</time>
      </trkpt>
    </trkseg>
  </trk>
  <trk>
    <name><![CDATA[2014-04-01-08-18-57]]></name>
    <trkseg>
      <trkpt lat="44.46072" lon="1.2892">
        <ele>95.639</ele>
        <time>2014-04-01T12:36:23Z</time>
      </trkpt>
      <trkpt lat="44.4607" lon="1.28919">
        <ele>96.914</ele>
        <time>2014-04-01T12:36:27Z</time>
      </trkpt>
    </trkseg>
  </trk>
  <trk>
    <name><![CDATA[2014-04-01-08-18-57]]></name>
    <trkseg>
      <trkpt lat="44.46055" lon="1.28906">
        <ele>105.118</ele>
        <time>2014-04-01T12:36:51Z</time>
      </trkpt>
      <trkpt lat="44.46037" lon="1.28882">
        <ele>104.098</ele>
        <time>2014-04-01T12:36:58Z</time>
      </trkpt>
      <trkpt lat="44.46035" lon="1.28878">
        <ele>103.648</ele>
        <time>2014-04-01T12:36:59Z</time>
      </trkpt>
      <trkpt lat="44.46041" lon="1.28863">
        <ele>102.858</ele>
        <time>2014-04-01T12:37:03Z</time>
      </trkpt>
      <trkpt lat="44.46047" lon="1.28865">
        <ele>102.929</ele>
        <time>2014-04-01T12:37:05Z</time>
      </trkpt>
      <trkpt lat="44.46059" lon="1.28876">
        <ele>104.469</ele>
        <time>2014-04-01T12:37:09Z</time>
      </trkpt>
      <trkpt lat="44.46079" lon="1.28881">
        <ele>104.489</ele>
        <time>2014-04-01T12:37:14Z</time>
      </trkpt>
      <trkpt lat="44.46091" lon="1.28872">
        <ele>103.949</ele>
        <time>2014-04-01T12:37:18Z</time>
      </trkpt>
      <trkpt lat="44.46093" lon="1.28863">
        <ele>104.719</ele>
        <time>2014-04-01T12:37:20Z</time>
      </trkpt>
      <trkpt lat="44.46104" lon="1.28828">
        <ele>105.079</ele>
        <time>2014-04-01T12:37:26Z</time>
      </trkpt>
      <trkpt lat="44.46109" lon="1.28801">
        <ele>105.559</ele>
        <time>2014-04-01T12:37:31Z</time>
      </trkpt>
      <trkpt lat="44.46111" lon="1.2877">
        <ele>103.777</ele>
        <time>2014-04-01T12:37:36Z</time>
      </trkpt>
      <trkpt lat="44.46128" lon="1.28734">
        <ele>102.808</ele>
        <time>2014-04-01T12:37:42Z</time>
      </trkpt>
      <trkpt lat="44.46136" lon="1.28714">
        <ele>102.078</ele>
        <time>2014-04-01T12:37:45Z</time>
      </trkpt>
      <trkpt lat="44.46148" lon="1.2869">
        <ele>102.328</ele>
        <time>2014-04-01T12:37:49Z</time>
      </trkpt>
      <trkpt lat="44.46163" lon="1.28654">
        <ele>102.988</ele>
        <time>2014-04-01T12:37:55Z</time>
      </trkpt>
      <trkpt lat="44.46165" lon="1.28648">
        <ele>102.678</ele>
        <time>2014-04-01T12:37:56Z</time>
      </trkpt>
      <trkpt lat="44.46192" lon="1.28603">
        <ele>102.438</ele>
        <time>2014-04-01T12:38:04Z</time>
      </trkpt>
      <trkpt lat="44.46207" lon="1.28581">
        <ele>102.968</ele>
        <time>2014-04-01T12:38:09Z</time>
      </trkpt>
      <trkpt lat="44.46226" lon="1.28553">
        <ele>103.288</ele>
        <time>2014-04-01T12:38:15Z</time>
      </trkpt>
      <trkpt lat="44.46249" lon="1.28523">
        <ele>104.919</ele>
        <time>2014-04-01T12:38:22Z</time>
      </trkpt>
      <trkpt lat="44.46274" lon="1.2849">
        <ele>106.669</ele>
        <time>2014-04-01T12:38:29Z</time>
      </trkpt>
      <trkpt lat="44.4628" lon="1.28481">
        <ele>106.89</ele>
        <time>2014-04-01T12:38:31Z</time>
      </trkpt>
      <trkpt lat="44.46303" lon="1.28455">
        <ele>108.23</ele>
        <time>2014-04-01T12:38:37Z</time>
      </trkpt>
      <trkpt lat="44.46313" lon="1.28445">
        <ele>109.01</ele>
        <time>2014-04-01T12:38:39Z</time>
      </trkpt>
      <trkpt lat="44.46323" lon="1.28435">
        <ele>109.8</ele>
        <time>2014-04-01T12:38:41Z</time>
      </trkpt>
      <trkpt lat="44.46346" lon="1.284">
        <ele>108.799</ele>
        <time>2014-04-01T12:38:46Z</time>
      </trkpt>
      <trkpt lat="44.46369" lon="1.28369">
        <ele>108.319</ele>
        <time>2014-04-01T12:38:51Z</time>
      </trkpt>
      <trkpt lat="44.46408" lon="1.28332">
        <ele>110.33</ele>
        <time>2014-04-01T12:38:59Z</time>
      </trkpt>
      <trkpt lat="44.46423" lon="1.2832">
        <ele>112.181</ele>
        <time>2014-04-01T12:39:02Z</time>
      </trkpt>
      <trkpt lat="44.46444" lon="1.28307">
        <ele>114.622</ele>
        <time>2014-04-01T12:39:07Z</time>
      </trkpt>
      <trkpt lat="44.46448" lon="1.28304">
        <ele>114.601</ele>
        <time>2014-04-01T12:39:08Z</time>
      </trkpt>
      <trkpt lat="44.46456" lon="1.28298">
        <ele>114.841</ele>
        <time>2014-04-01T12:39:10Z</time>
      </trkpt>
      <trkpt lat="44.46482" lon="1.28281">
        <ele>111.639</ele>
        <time>2014-04-01T12:39:16Z</time>
      </trkpt>
      <trkpt lat="44.46491" lon="1.28256">
        <ele>108.138</ele>
        <time>2014-04-01T12:39:20Z</time>
      </trkpt>
      <trkpt lat="44.46498" lon="1.28232">
        <ele>105.168</ele>
        <time>2014-04-01T12:39:25Z</time>
      </trkpt>
      <trkpt lat="44.46533" lon="1.28228">
        <ele>104.497</ele>
        <time>2014-04-01T12:39:32Z</time>
      </trkpt>
      <trkpt lat="44.46584" lon="1.28213">
        <ele>109.46</ele>
        <time>2014-04-01T12:39:40Z</time>
      </trkpt>
      <trkpt lat="44.46616" lon="1.28205">
        <ele>110.4</ele>
        <time>2014-04-01T12:39:45Z</time>
      </trkpt>
      <trkpt lat="44.46669" lon="1.28199">
        <ele>111.58</ele>
        <time>2014-04-01T12:39:54Z</time>
      </trkpt>
      <trkpt lat="44.46706" lon="1.28202">
        <ele>110.559</ele>
        <time>2014-04-01T12:39:59Z</time>
      </trkpt>
      <trkpt lat="44.4675" lon="1.28203">
        <ele>109.759</ele>
        <time>2014-04-01T12:40:05Z</time>
      </trkpt>
      <trkpt lat="44.46799" lon="1.28205">
        <ele>108.508</ele>
        <time>2014-04-01T12:40:12Z</time>
      </trkpt>
      <trkpt lat="44.46835" lon="1.28202">
        <ele>106.778</ele>
        <time>2014-04-01T12:40:17Z</time>
      </trkpt>
      <trkpt lat="44.46877" lon="1.28199">
        <ele>105.517</ele>
        <time>2014-04-01T12:40:23Z</time>
      </trkpt>
      <trkpt lat="44.46917" lon="1.28197">
        <ele>108.059</ele>
        <time>2014-04-01T12:40:29Z</time>
      </trkpt>
      <trkpt lat="44.4696" lon="1.28195">
        <ele>110.101</ele>
        <time>2014-04-01T12:40:36Z</time>
      </trkpt>
      <trkpt lat="44.46991" lon="1.28193">
        <ele>107.351</ele>
        <time>2014-04-01T12:40:41Z</time>
      </trkpt>
      <trkpt lat="44.47037" lon="1.28189">
        <ele>105.76</ele>
        <time>2014-04-01T12:40:48Z</time>
      </trkpt>
      <trkpt lat="44.47081" lon="1.28182">
        <ele>104.791</ele>
        <time>2014-04-01T12:40:55Z</time>
      </trkpt>
      <trkpt lat="44.47127" lon="1.28177">
        <ele>103.781</ele>
        <time>2014-04-01T12:41:02Z</time>
      </trkpt>
      <trkpt lat="44.47172" lon="1.28176">
        <ele>103.601</ele>
        <time>2014-04-01T12:41:09Z</time>
      </trkpt>
      <trkpt lat="44.47213" lon="1.28172">
        <ele>104.361</ele>
        <time>2014-04-01T12:41:15Z</time>
      </trkpt>
      <trkpt lat="44.4722" lon="1.28171">
        <ele>104.471</ele>
        <time>2014-04-01T12:41:16Z</time>
      </trkpt>
      <trkpt lat="44.47244" lon="1.28163">
        <ele>104.501</ele>
        <time>2014-04-01T12:41:20Z</time>
      </trkpt>
      <trkpt lat="44.47254" lon="1.28159">
        <ele>104.952</ele>
        <time>2014-04-01T12:41:22Z</time>
      </trkpt>
      <trkpt lat="44.47299" lon="1.28147">
        <ele>104.722</ele>
        <time>2014-04-01T12:41:31Z</time>
      </trkpt>
      <trkpt lat="44.47341" lon="1.28134">
        <ele>105.672</ele>
        <time>2014-04-01T12:41:39Z</time>
      </trkpt>
      <trkpt lat="44.47352" lon="1.28134">
        <ele>105.872</ele>
        <time>2014-04-01T12:41:41Z</time>
      </trkpt>
      <trkpt lat="44.47401" lon="1.28125">
        <ele>104.092</ele>
        <time>2014-04-01T12:41:49Z</time>
      </trkpt>
      <trkpt lat="44.47454" lon="1.28118">
        <ele>103.533</ele>
        <time>2014-04-01T12:41:58Z</time>
      </trkpt>
      <trkpt lat="44.47485" lon="1.28104">
        <ele>104.822</ele>
        <time>2014-04-01T12:42:04Z</time>
      </trkpt>
      <trkpt lat="44.47489" lon="1.28103">
        <ele>105.142</ele>
        <time>2014-04-01T12:42:05Z</time>
      </trkpt>
      <trkpt lat="44.47501" lon="1.28116">
        <ele>106.252</ele>
        <time>2014-04-01T12:42:09Z</time>
      </trkpt>
      <trkpt lat="44.47522" lon="1.28159">
        <ele>106.832</ele>
        <time>2014-04-01T12:42:16Z</time>
      </trkpt>
      <trkpt lat="44.47532" lon="1.28179">
        <ele>106.982</ele>
        <time>2014-04-01T12:42:19Z</time>
      </trkpt>
      <trkpt lat="44.47554" lon="1.28196">
        <ele>107.652</ele>
        <time>2014-04-01T12:42:23Z</time>
      </trkpt>
      <trkpt lat="44.4756" lon="1.28197">
        <ele>107.672</ele>
        <time>2014-04-01T12:42:24Z</time>
      </trkpt>
      <trkpt lat="44.47629" lon="1.28193">
        <ele>106.255</ele>
        <time>2014-04-01T12:42:35Z</time>
      </trkpt>
      <trkpt lat="44.47681" lon="1.2819">
        <ele>105.164</ele>
        <time>2014-04-01T12:42:44Z</time>
      </trkpt>
      <trkpt lat="44.47692" lon="1.28189">
        <ele>105.394</ele>
        <time>2014-04-01T12:42:46Z</time>
      </trkpt>
      <trkpt lat="44.4771" lon="1.28201">
        <ele>105.704</ele>
        <time>2014-04-01T12:42:50Z</time>
      </trkpt>
      <trkpt lat="44.47711" lon="1.28208">
        <ele>105.494</ele>
        <time>2014-04-01T12:42:51Z</time>
      </trkpt>
      <trkpt lat="44.47724" lon="1.28268">
        <ele>104.324</ele>
        <time>2014-04-01T12:42:59Z</time>
      </trkpt>
      <trkpt lat="44.47738" lon="1.28335">
        <ele>104.294</ele>
        <time>2014-04-01T12:43:08Z</time>
      </trkpt>
      <trkpt lat="44.4775" lon="1.28395">
        <ele>104.184</ele>
        <time>2014-04-01T12:43:17Z</time>
      </trkpt>
      <trkpt lat="44.47759" lon="1.28437">
        <ele>105.644</ele>
        <time>2014-04-01T12:43:23Z</time>
      </trkpt>
      <trkpt lat="44.47779" lon="1.28513">
        <ele>106.094</ele>
        <time>2014-04-01T12:43:34Z</time>
      </trkpt>
      <trkpt lat="44.47795" lon="1.28575">
        <ele>106.895</ele>
        <time>2014-04-01T12:43:43Z</time>
      </trkpt>
      <trkpt lat="44.47785" lon="1.28585">
        <ele>107.475</ele>
        <time>2014-04-01T12:43:47Z</time>
      </trkpt>
      <trkpt lat="44.47748" lon="1.28588">
        <ele>106.063</ele>
        <time>2014-04-01T12:43:54Z</time>
      </trkpt>
      <trkpt lat="44.47742" lon="1.28589">
        <ele>105.714</ele>
        <time>2014-04-01T12:43:55Z</time>
      </trkpt>
      <trkpt lat="44.4771" lon="1.28583">
        <ele>106.655</ele>
        <time>2014-04-01T12:44:01Z</time>
      </trkpt>
      <trkpt lat="44.47678" lon="1.28575">
        <ele>109.166</ele>
        <time>2014-04-01T12:44:09Z</time>
      </trkpt>
    </trkseg>
  </trk>
</gpx>